     2              OBSERVATION DATA    GPS                 RINEX VERSION / TYPE
teqc 1997Sep10 19970910 19:01:13UTC                         PGM / RUN BY / DATE
                                                            COMMENT
BIT 2 OF LLI FLAGS DATA COLLECTED UNDER A-S CONDITION       COMMENT
BIT 2 OF LLI FLAGS DATA COLLECTED UNDER A-S CONDITION       COMMENT
Original Marker Name: unknown                               COMMENT
Campaign Name: Southern California GPS Survey March - A     COMMENT
4-Character Station Name: DSHO                              COMMENT
6-Character Antenna Code: TI4100                            COMMENT
Vertical Measurement Point: PAE                             COMMENT
Vertical Offset to Rinex Ref. Point: 0.0000                 COMMENT
Radial Measurement Point: RRP                               COMMENT
Radial Offset to Rinex Ref. Point: 0.0000                   COMMENT
Antenna Height from Field Measurement: 1.5324 m             COMMENT
Original XYZ: 0.0000 0.0000 0.0000                          COMMENT
New XYZ position is based on association with SCEC monument COMMENT
E1D0H9V7+0011. Position of that monument is believed to be  COMMENT
valid to within 1 m horizontally; vertical accuracy         COMMENT
should be no worse than 3-times this value.                 COMMENT
                                                            COMMENT
Revised Rinex header created by UCSD GPS archive for        COMMENT
GSAC on 12-Apr-1999 (1999:102) 05:06:11 GMT                 COMMENT
For assistance contact dagnew@ucsd.edu or hjohnson@ucsd.edu COMMENT
                                                            COMMENT
(DESERT SHORES COMMUNITY PARK)                              MARKER NAME
unknown NATIONAL GEODETIC SURVEY                            OBSERVER / AGENCY
003 TI 4100 GSI TI4100                                      REC # / TYPE / VERS
4017 TI 4100                                                ANT # / TYPE
 -2340255.0000 -4789064.0000  3490751.0000                  APPROX POSITION XYZ
        1.5324        0.0000        0.0000                  ANTENNA: DELTA H/E/N
     1     1     0                                          WAVELENGTH FACT L1/2
     6    L1    L2    P1    P2    D1    D2                  # / TYPES OF OBSERV
     0                                                      INTERVAL
  1988     3    24     2    53    8.000000                  TIME OF FIRST OBS
  1988     3    24     8    24    2.000000                  TIME OF LAST OBS
     0                                                      # OF SATELLITES
                                                            END OF HEADER
 88  3 24  2 53  8.4400000  0  3G 6G 9G11
    176873.979 9                                                      2003.772
     48006.535
   2858910.654 8  -3425172.334 9  24234786.095    24234793.985        2917.450
      2260.307
    107708.058 8    -60420.600 8  22879114.788    22879120.731        3560.343
      2782.576
 88  3 24  3 44 32.0800000  0  3G 6G 9G11
  -5176869.378 9  -4169795.323 9  20294736.653    20294741.289        1369.843
      1063.589
  -6362944.836 9 -10611021.675 9  22479916.120    22479920.535        3016.914
      2341.702
  -9303331.900 9  -7393692.247 9  21088249.144    21088254.899        2384.931
      1859.208
 88  3 24  3 45  2.0800000  0  3G 6G 9G11
  -5217389.612 9  -4201369.516 9  20287025.523    20287030.446        1336.542
      1047.681
  -6453297.140 9 -10681426.013 9  22462721.843    22462727.294        3015.766
      2352.564
  -9374635.861 9  -7449253.734 8  21074680.270    21074685.687        2361.558
      1856.753
 88  3 24  3 45 32.0800000  0  3G 6G 9G11
  -5257610.964 9  -4232710.819 8  20279372.528    20279375.977        1332.515
      1044.108
  -6543609.176 9 -10751798.969 8  22445535.261    22445542.169        3008.900
      2340.987
  -9445474.857 9  -7504452.931 8  21061200.242    21061205.025        2362.068
      1842.530
 88  3 24  3 46  2.0800000  0  3G 6G 9G11
  -5297530.762 9  -4263817.138 9  20271775.978    20271779.935        1336.725
      1036.552
  -6633878.964 9 -10822138.988 8  22428357.655    22428364.296        3007.401
      2347.996
  -9515846.860 9  -7559288.215 8  21047808.890    21047814.895        2342.276
      1815.575
 88  3 24  3 46 32.0800000  0  3G 6G 9G11
  -5337147.125 9  -4294687.015 9  20264237.141    20264241.098        1321.351
      1024.672
  -6724104.662 9 -10892444.667 8  22411188.875    22411194.747        2999.267
      2348.630
  -9585750.361 9  -7613758.434 8  21034507.283    21034511.853        2327.180
      1807.857
 88  3 24  3 47  2.0800000  0  3G 6G 9G11
  -5376457.419 9  -4325318.401 9  20256756.459    20256760.220        1316.080
      1014.649
  -6814284.264 9 -10962714.430 8  22394028.163    22394033.954        3008.741
      2341.254
  -9655183.542 9  -7667862.180 8  21021294.302    21021298.981        2318.129
      1789.017
 88  3 24  3 47 32.0800000  0  3G 6G 9G11
  -5415459.751 9  -4355709.817 9  20249334.531    20249339.037        1293.090
      1002.582
  -6904416.354 9 -11032947.165 8  22376876.960    22376882.951        3000.806
      2337.365
  -9724145.184 9  -7721598.482 9  21008171.362    21008175.631        2297.938
      1788.290
 88  3 24  3 48  2.0800000  0  3G 6G 9G11
  -5454151.916 9  -4385859.543 9  20241971.678    20241976.231        1286.607
      1002.513
  -6994499.241 9 -11103141.574 8  22359734.987    22359739.829        3005.655
      2354.403
  -9792633.585 9  -7774966.040 8  20995138.406    20995143.500        2277.684
      1776.049
 88  3 24  3 48 32.0800000  0  3G 6G 9G11
  -5492531.497 9  -4415765.703 8  20234667.636    20234672.965        1269.462
       996.610
  -7084530.522 9 -11173295.752 9  22342603.245    22342607.391        2998.246
      2332.897
  -9860646.775 9  -7827963.301 9  20982195.151    20982200.441        2263.417
      1776.440
 88  3 24  3 49  2.0800000  0  3G 6G 9G11
  -5530596.231 9  -4445426.525 8  20227424.635    20227428.582        1255.650
       976.950
  -7174508.620 9 -11243408.498 9  22325480.141    22325484.642        3009.825
      2338.085
  -9928183.218 8  -7880589.054 8  20969343.805    20969349.750        2247.628
      1746.061
 88  3 24  3 49 32.0800000  0  3G 6G 9G11
  -5568343.599 9  -4474840.048 9  20220240.828    20220245.873        1260.491
       976.794
  -7264431.078 9 -11313477.890 9  22308369.187    22308372.877        2998.334
      2336.029
  -9995241.240 9  -7932842.023 8  20956583.232    20956588.376        2234.120
      1732.161
 88  3 24  3 50  2.0800000  0  3G 6G 9G11
  -5605771.262 8  -4504004.442 9  20213119.632    20213123.951        1254.988
       977.186
  -7354296.240 9 -11383502.622 9  22291267.973    22291271.961        2996.269
      2330.467
 -10061819.401 9  -7984721.093 8  20943913.240    20943918.799        2209.981
      1737.710
 88  3 24  3 50 32.0800000  0  3G 6G 9G11
  -5642876.721 9  -4532917.784 9  20206057.984    20206062.662        1248.290
       965.249
  -7444101.685 9 -11453480.820 9  22274178.495    22274182.611        3007.792
      2335.308
 -10127915.628 8  -8036224.611 8  20931336.457    20931341.132        2194.854
      1720.671
 88  3 24  3 51  2.0800000  0  3G 6G 9G11
  -5679657.800 9  -4561578.352 9  20199058.836    20199062.421        1214.160
       961.390
  -7533845.669 9 -11523411.133 8  22257099.934    22257104.588        3007.385
      2326.559
 -10193528.633 8  -8087351.593 8  20918849.200    20918855.785        2164.934
      1708.797
 88  3 24  3 51 32.0800000  0  3G 6G 9G11
  -5716112.306 9  -4589984.450 9  20192122.486    20192125.979        1206.560
       944.750
  -7623526.216 9 -11593292.014 8  22240034.726    22240039.046        2982.250
      2324.378
 -10258656.785 9  -8138100.776 8  20906456.397    20906462.995        2167.693
      1691.821
 88  3 24  3 52  2.0800000  0  3G 6G 9G11
  -5752237.902 9  -4618134.252 9  20185246.618    20185251.666        1197.382
       934.255
  -7713141.538 8 -11663122.074 8  22222981.839    22222986.016        2989.929
      2330.113
 -10323298.782 8  -8188471.122 8  20894155.468    20894160.152        2145.022
      1667.537
 88  3 24  3 52 32.0800000  0  3G 6G 9G11
  -5788032.376 9  -4646026.041 9  20178434.280    20178441.299        1206.616
       910.903
  -7802689.432 9 -11732899.587 9  22205941.281    22205945.811        2969.969
      2329.952
 -10387452.799 9  -8238461.232 8  20881947.918    20881953.146        2145.915
      1669.538
 88  3 24  3 53  2.0800000  0  3G 6G 9G11
  -5823493.315 9  -4673657.925 9  20171687.108    20171692.641        1176.241
       924.804
  -7892167.810 9 -11802622.951 8  22188913.821    22188918.071        2980.240
      2325.639
 -10451117.734 9  -8288070.253 8  20869832.641    20869837.822        2118.858
      1654.805
 88  3 24  3 53 32.0800000  0  3G 6G 9G11
  -5858618.254 9  -4701027.992 9  20165004.127    20165007.911        1164.144
       908.213
  -7981574.559 9 -11872290.505 8  22171898.886    22171905.030        2978.031
      2332.978
 -10514291.818 9  -8337296.779 9  20857810.405    20857815.598        2094.225
      1638.246
 88  3 24  3 54  2.0800000  0  3G 6G 9G11
  -5893404.819 9  -4728134.390 9  20158384.552    20158388.703        1165.125
       888.528
  -8070907.569 9 -11941900.574 8  22154900.177    22154906.199        2980.854
      2320.420
 -10576973.633 9  -8386139.727 8  20845882.404    20845888.260        2080.924
      1622.270
 88  3 24  3 54 32.0800000  0  3G 6G 9G11
  -5927851.246 9  -4754975.730 9  20151829.482    20151832.651        1127.008
       902.521
  -8160165.000 9 -12011451.757 8  22137915.017    22137920.277        2974.961
      2311.751
 -10639161.917 9  -8434598.098 8  20834048.099    20834054.736        2074.401
      1623.171
 88  3 24  3 55  2.0800000  0  3G 6G 9G11
  -5961954.953 8  -4781550.042 9  20145339.493    20145343.153        1126.434
       877.026
  -8249344.891 9 -12080942.537 9  22120944.717    22120950.555        2985.798
      2307.942
 -10700855.286 9  -8482670.844 9  20822309.588    20822315.122        2044.075
      1604.082
 88  3 24  3 55 32.0800000  0  3G 6G 9G11
  -5995714.021 9  -4807855.809 9  20138914.906    20138919.424        1119.520
       879.139
  -8338445.233 9 -12150371.316 9  22103990.043    22103994.327        2964.148
      2321.140
 -10762052.787 8  -8530357.178 8  20810663.453    20810668.904        2032.297
      1567.321
 88  3 24  3 56  2.0800000  0  3G 6G 9G11
  -6029126.026 9  -4833891.119 9  20132556.680    20132562.106        1120.405
       867.811
  -8427464.013 9 -12219736.541 9  22087050.122    22087055.599        2970.615
      2312.056
 -10822752.925 9  -8577655.959 8  20799112.607    20799117.321        2036.722
      1580.464
 88  3 24  3 56 32.0800000  0  3G 6G 9G11
  -6062189.026 9  -4859654.473 9  20126264.832    20126270.135        1111.577
       858.590
  -8516399.424 9 -12289036.803 9  22070126.704    22070130.900        2957.473
      2312.764
 -10882954.556 9  -8624566.298 8  20787656.458    20787662.299        1995.192
      1555.105
 88  3 24  3 57  2.0800000  0  3G 6G 9G11
  -6094900.399 9  -4885143.842 9  20120040.621    20120045.556        1092.590
       852.078
  -8605248.941 9 -12358270.141 9  22053218.765    22053223.682        2959.834
      2302.387
 -10942656.157 9  -8671087.008 8  20776294.984    20776302.436        1983.446
      1557.106
 88  3 24  3 57 32.0800000  0  3G 6G 9G11
  -6127258.400 8  -4910357.860 9  20113882.372    20113887.802        1082.335
       821.705
  -8694010.741 9 -12427435.155 9  22036328.067    22036332.585        2958.957
      2304.680
 -11001856.813 9  -8717217.360 8  20765029.104    20765035.161        1980.918
      1539.347
 88  3 24  3 58  2.0800000  0  3G 6G 9G11
  -6159260.131 9  -4935294.258 9  20107792.309    20107798.676        1058.971
       840.358
  -8782682.247 9 -12496529.781 9  22019453.418    22019458.490        2964.571
      2302.300
 -11060554.752 8  -8762955.973 8  20753859.948    20753866.884        1970.591
      1524.173
 88  3 24  3 58 32.0800000  0  3G 6G 9G11
  -6190903.772 9  -4959951.632 9  20101772.595    20101776.691        1055.223
       809.240
  -8871261.853 9 -12565552.810 8  22002597.092    22002602.533        2964.220
      2294.831
 -11118749.054 9  -8808302.161 8  20742785.963    20742791.977        1933.965
      1508.545
 88  3 24  3 59  2.0800000  0  3G 6G 9G11
  -6222187.187 9  -4984328.324 9  20095820.333    20095823.416        1047.360
       817.473
  -8959747.477 8 -12634502.607 8  21985758.837    21985764.501        2954.970
      2302.083
 -11176438.899 8  -8853255.270 8  20731807.637    20731813.780        1921.900
      1497.926
 88  3 24  3 59 32.0800000  0  3G 6G 9G11
  -6253108.023 9  -5008422.469 9  20089934.278    20089938.735        1031.236
       806.245
  -9048136.592 9 -12703377.190 9  21968938.464    21968944.177        2935.281
      2296.323
 -11233622.824 9  -8897814.145 7  20720925.857    20720931.226        1901.533
      1480.217
 88  3 24  4  0  2.0800000  0  3G 6G 9G11
  -6283663.950 9  -5032232.275 9  20084120.071    20084124.257        1011.922
       782.912
  -9136427.344 9 -12772175.132 9  21952137.717    21952143.544        2935.377
      2295.117
 -11290299.498 9  -8941977.752 9  20710140.831    20710146.309        1875.082
      1468.286
 88  3 24  4  0 32.0800000  0  3G 6G 9G11
  -6313853.073 9  -5055756.260 9  20078375.451    20078379.633         996.436
       789.070
  -9224617.630 9 -12840894.789 9  21935355.939    21935361.974        2931.908
      2284.442
 -11346468.163 9  -8985745.503 9  20699451.727    20699457.745        1863.679
      1443.071
 88  3 24  4  1  2.0800000  0  3G 6G 9G11
  -6343672.738 9  -5078992.354 9  20072700.762    20072704.975         995.359
       755.000
  -9312704.836 9 -12909534.118 9  21918594.124    21918597.979        2944.021
      2285.523
 -11402127.090 9  -9029116.063 8  20688860.611    20688866.580        1851.662
      1445.258
 88  3 24  4  1 32.0800000  0  3G 6G 9G11
  -6373120.835 9  -5101938.922 9  20067097.483    20067102.051         984.921
       762.612
  -9400686.887 9 -12978091.527 9  21901851.837    21901855.849        2931.086
      2294.726
 -11457275.506 9  -9072088.829 8  20678365.778    20678372.692        1827.069
      1422.049
 88  3 24  4  2  2.0800000  0  3G 6G 9G11
  -6402195.402 9  -5124594.424 8  20061565.006    20061568.941         959.036
       753.365
  -9488561.965 9 -13046565.569 9  21885129.294    21885133.691        2920.098
      2282.671
 -11511912.514 9  -9114663.088 8  20667970.009    20667974.318        1820.378
      1421.266
 88  3 24  4  2 32.0800000  0  3G 6G 9G11
  -6430893.616 8  -5146956.665 9  20056103.876    20056107.718         951.668
       738.266
  -9576327.039 9 -13114953.892 8  21868428.325    21868431.888        2918.024
      2281.751
 -11566036.536 9  -9156837.624 8  20657669.847    20657674.124        1788.010
      1397.959
 88  3 24  4  3  2.0800000  0  3G 6G 9G11
  -6459213.663 9  -5169024.219 9  20050714.146    20050717.847         909.037
       740.124
  -9663980.295 9 -13183255.105 9  21851748.225    21851752.888        2921.453
      2276.886
 -11619646.980 9  -9198611.954 8  20647467.805    20647472.720        1778.274
      1374.675
 88  3 24  4  3 32.0800000  0  3G 6G 9G11
  -6487152.829 9  -5190795.001 9  20045398.081    20045400.878         920.799
       720.202
  -9751519.027 9 -13251467.073 9  21835090.634    21835093.905        2917.514
      2289.823
 -11672742.118 8  -9239984.767 8  20637364.692    20637370.054        1757.628
      1380.429
 88  3 24  4  4  2.0800000  0  3G 6G 9G11
  -6514709.205 9  -5212267.488 9  20040153.615    20040158.170         918.845
       705.525
  -9838941.219 9 -13319588.227 9  21818454.670    21818458.141        2912.865
      2264.228
 -11725321.657 9  -9280955.804 9  20627359.123    20627363.490        1733.067
      1371.494
 88  3 24  4  4 32.0800000  0  3G 6G 9G11
  -6541880.406 9  -5233439.848 9  20034982.985    20034988.019         899.324
       702.437
  -9926244.599 9 -13387616.806 9  21801840.070    21801845.803        2919.189
      2269.317
 -11777384.429 9  -9321524.175 8  20617452.267    20617457.066        1738.314
      1351.013
 88  3 24  4  5  2.0800000  0  3G 6G 9G11
  -6568663.755 9  -5254309.995 8  20029886.283    20029890.917         893.893
       696.335
 -10013426.089 9 -13455550.397 9  21785250.566    21785254.957        2904.253
      2262.153
 -11828928.598 8  -9361688.438 7  20607643.903    20607647.300        1720.914
      1315.017
 88  3 24  4  5 32.0800000  0  3G 6G 9G11
  -6595057.314 9  -5274876.405 8  20024863.451    20024867.284         887.099
       689.873
 -10100483.900 9 -13523387.623 8  21768683.732    21768689.125        2897.187
      2259.425
 -11879953.499 8  -9401448.085 8  20597933.325    20597937.653        1699.838
      1346.999
 88  3 24  4  6  2.0800000  0  3G 6G 9G11
  -6621058.471 9  -5295137.045 9  20019916.779    20019920.065         873.639
       676.389
 -10187415.327 8 -13591126.353 9  21752140.570    21752146.161        2912.945
      2267.205
 -11930457.996 9  -9440802.185 7  20588321.976    20588327.496        1687.430
      1299.737
 88  3 24  4  6 32.0800000  0  3G 6G 9G11
  -6646665.394 9  -5315090.484 8  20015043.744    20015048.093         844.413
       671.959
 -10274218.111 9 -13658764.851 9  21735623.144    21735627.055        2894.707
      2243.766
 -11980441.538 9  -9479750.378 8  20578810.676    20578816.193        1655.285
      1282.270
 88  3 24  4  7  2.0800000  0  3G 6G 9G11
  -6671875.741 8  -5334734.913 9  20010245.559    20010251.397         841.295
       645.059
 -10360889.913 9 -13726301.274 8  21719130.074    21719134.665        2888.527
      2252.329
 -12029903.180 8  -9518291.892 8  20569399.056    20569403.427        1627.845
      1283.289
 88  3 24  4  7 32.0800000  0  3G 6G 9G11
  -6696687.245 8  -5354068.527 9  20005524.432    20005528.867         831.781
       640.237
 -10447428.321 8 -13793733.768 9  21702661.747    21702666.823        2882.132
      2241.685
 -12078841.788 9  -9556425.857 7  20560086.187    20560090.482        1626.266
      1266.189
 88  3 24  4  8  2.0800000  0  3G 6G 9G11
  -6721097.802 9  -5373089.745 9  20000879.355    20000883.307         815.019
       632.110
 -10533830.916 9 -13861060.428 8  21686220.903    21686225.029        2888.806
      2239.566
 -12127256.500 8  -9594151.584 8  20550873.003    20550877.020        1603.954
      1256.937
 88  3 24  4  8 32.0800000  0  3G 6G 9G11
  -6745105.349 8  -5391796.917 9  19996310.324    19996313.674         791.949
       613.251
 -10620095.401 9 -13928279.478 9  21669805.862    21669809.598        2873.416
      2244.574
 -12175147.046 9  -9631468.865 8  20541759.383    20541765.093        1580.717
      1234.940
 88  3 24  4  9  2.0800000  0  3G 6G 9G11
  -6768707.582 9  -5410188.262 9  19991819.407    19991823.084         779.326
       613.767
 -10706219.340 9 -13995389.002 9  21653417.224    21653421.033        2863.217
      2239.156
 -12222512.388 9  -9668376.893 8  20532744.969    20532751.434        1588.284
      1224.538
 88  3 24  4  9 32.0800000  0  3G 6G 9G11
  -6791902.773 9  -5428262.432 9  19987405.385    19987408.687         749.135
       609.280
 -10792200.635 9 -14062387.369 8  21637055.018    21637059.396        2855.210
      2228.244
 -12269352.164 8  -9704875.406 8  20523831.992    20523838.252        1560.590
      1210.886
 88  3 24  4 10  2.0800000  0  3G 6G 9G11
  -6814688.670 9  -5446017.679 9  19983069.330    19983074.981         755.172
       577.397
 -10878036.863 9 -14129272.714 8  21620720.891    21620725.014        2856.088
      2231.681
 -12315665.500 8  -9740963.701 8  20515019.505    20515024.353        1538.134
      1206.878
 88  3 24  4 10 32.0800000  0  3G 6G 9G11
  -6837062.977 8  -5463452.202 9  19978811.080    19978816.680         743.027
       566.076
 -10963725.940 9 -14196043.389 9  21604415.127    21604418.475        2857.021
      2228.928
 -12361451.315 9  -9776640.929 8  20506307.110    20506312.497        1524.107
      1180.147
 88  3 24  4 11  2.0800000  0  3G 6G 9G11
  -6859023.537 8  -5480564.331 8  19974633.157    19974636.706         717.636
       572.147
 -11049264.470 9 -14262696.766 8  21588137.339    21588141.280        2853.464
      2237.435
 -12406708.982 8  -9811906.628 8  20497694.060    20497700.403        1491.994
      1157.566
 88  3 24  4 11 32.0800000  0  3G 6G 9G11
  -6880568.351 9  -5497352.495 8  19970532.298    19970537.417         720.356
       562.049
 -11134650.818 9 -14329231.567 9  21571888.534    21571892.764        2838.632
      2208.186
 -12451438.068 8  -9846760.441 8  20489181.702    20489188.857        1493.509
      1166.408
 88  3 24  4 12  2.0800000  0  3G 6G 9G11
  -6901695.814 9  -5513815.456 9  19966512.102    19966517.664         687.645
       544.290
 -11219882.603 9 -14395645.920 9  21555668.568    21555674.152        2840.123
      2222.043
 -12495638.163 8  -9881202.059 9  20480771.893    20480778.331        1479.203
      1135.799
 88  3 24  4 12 32.0800000  0  3G 6G 9G11
  -6922403.655 8  -5529951.425 9  19962572.506    19962576.448         705.739
       529.421
 -11304957.436 9 -14461937.962 9  21539479.594    21539484.463        2825.370
      2211.119
 -12539308.680 9  -9915231.007 9  20472461.592    20472466.582        1454.714
      1121.830
 88  3 24  4 13  2.0800000  0  3G 6G 9G11
  -6942689.455 8  -5545758.549 9  19958712.155    19958716.227         665.548
       514.427
 -11389872.441 9 -14528105.472 8  21523320.932    21523326.033        2845.665
      2208.118
 -12582448.570 8  -9948846.476 8  20464252.205    20464257.648        1436.389
      1115.561
 88  3 24  4 13 32.0800000  0  3G 6G 9G11
  -6962551.172 8  -5561235.209 9  19954933.414    19954936.440         654.336
       513.420
 -11474625.492 9 -14594146.780 8  21507192.952    21507197.024        2810.586
      2208.727
 -12625057.519 9  -9982048.245 8  20456144.720    20456149.257        1416.230
      1106.035
 88  3 24  4 14  2.0800000  0  4G 6G 9G11G13
  -6981987.031 9  -5576380.029 8  19951233.658    19951237.783         658.355
       502.142
 -11559213.783 9 -14660059.690 8  21491096.234    21491100.163        2802.755
      2201.991
 -12667135.367 8 -10014836.151 8  20448136.568    20448142.895        1412.514
      1075.681
 -29107521.381 9                                  36887664.000 1      3754.869

 88  3 24  4 14 32.0800000  0  4G 6G 9G11G13
  -7000994.302 9  -5591190.880 9  19947616.927    19947620.430         631.043
       490.224
 -11643634.767 9 -14725842.269 9  21475031.380    21475036.216        2816.846
      2192.900
 -12708680.662 8 -10047209.084 7  20440230.971    20440236.339        1375.234
      1069.666
 -29218782.760 8  36883353.352 8  23454817.721    23454823.544        3691.617
      2897.637
 88  3 24  4 15  2.0800000  0  4G 6G 9G11G13
  -7019570.969 9  -5605666.211 8  19944081.449    19944086.067         616.242
       476.032
 -11727885.640 9 -14791492.281 8  21458999.570    21459003.220        2802.229
      2189.992
 -12749692.917 8 -10079166.651 8  20432426.559    20432432.456        1362.291
      1063.023
 -29329833.385 9  36796820.487 7  23433684.791    23433691.376        3687.582
      2878.939
 88  3 24  4 15 32.0800000  0  4G 6G 9G11G13
  -7037715.448 9  -5619804.759 9  19940629.060    19940633.104         607.917
       466.773
 -11811964.449 9 -14857008.192 9  21442999.737    21443004.652        2795.953
      2186.749
 -12790172.017 8 -10110708.794 7  20424724.710    20424729.040        1353.791
      1045.239
 -29440668.376 8  36710455.619 8  23412594.335    23412598.502        3698.945
      2885.924
 88  3 24  4 16  2.0800000  0  4G 6G 9G11G13
  -7055425.301 8  -5633604.648 8  19937258.643    19937263.415         587.319
       451.935
 -11895868.061 9 -14922387.602 8  21427033.741    21427038.814        2799.988
      2175.110
 -12830117.245 8 -10141834.926 8  20417122.285    20417128.234        1328.312
      1023.267
 -29551285.029 9  36624260.860 8  23391545.619    23391549.709        3703.092
      2870.576
 88  3 24  4 16 32.0800000  0  4G 6G 9G11G13
  -7072698.612 9  -5647064.368 9  19933971.147    19933976.813         574.481
       448.250
 -11979594.264 9 -14987628.774 9  21411100.693    21411105.376        2793.648
      2168.803
 -12869528.306 9 -10172544.825 7  20409622.692    20409628.148        1308.775
      1019.452
 -29661680.984 9  36538238.094 8  23370536.158    23370542.522        3690.133
      2869.985
 88  3 24  4 17  2.0800000  0  4G 6G 9G11G13
  -7089533.285 9  -5660182.289 9  19930768.483    19930772.427         559.361
       432.336
 -12063140.302 9 -15052729.544 9  21395202.103    21395207.300        2794.685
      2169.307
 -12908404.850 8 -10202838.218 8  20402224.827    20402229.332        1302.460
      1023.056
 -29771853.910 9  36452389.150 8  23349571.651    23349577.083        3689.057
      2854.420
 88  3 24  4 17 32.0800000  0  4G 6G 9G11G13
  -7105927.460 9  -5672956.981 9  19927648.565    19927653.095         548.500
       420.263
 -12146504.012 9 -15117688.255 9  21379338.905    21379343.192        2774.103
      2154.959
 -12946746.411 8 -10232714.727 8  20394928.286    20394934.673        1271.455
       985.693
 -29881801.537 9  36366715.732 8  23328648.864    23328654.541        3665.788
      2851.549
 88  3 24  4 18  2.0800000  0  4G 6G 9G11G13
  -7121879.029 9  -5685386.770 8  19924612.327    19924617.567         527.105
       421.736
 -12229682.365 9 -15182502.534 9  21363510.729    21363515.306        2781.854
      2163.049
 -12984552.244 8 -10262173.800 8  20387735.130    20387739.254        1255.794
       979.019
 -29991522.069 9  36281219.256 9  23307769.663    23307775.533        3648.212
      2849.368
 88  3 24  4 18 32.0800000  0  4G 6G 9G11G13
  -7137385.897 9  -5697470.037 9  19921663.152    19921666.598         518.086
       403.157
 -12312672.640 9 -15247170.258 8  21347717.793    21347722.105        2770.459
      2157.165
 -13021822.226 9 -10291215.333 7  20380642.394    20380646.788        1253.728
       957.345
 -30101012.563 9  36195902.088 9  23286933.737    23286939.839        3647.415
      2840.433
 88  3 24  4 19  2.0800000  0  4G 6G 9G11G13
  -7152446.068 8  -5709205.231 9  19918797.557    19918801.002         495.487
       385.155
 -12395472.714 9 -15311689.761 9  21331962.220    21331966.072        2766.791
      2145.265
 -13058556.020 9 -10319839.047 7  20373652.571    20373656.254        1199.024
       950.355
 -30210270.230 8  36110766.317 9  23266142.722    23266148.293        3627.144
      2846.305
 88  3 24  4 19 32.0800000  0  4G 6G 9G11G13
  -7167057.650 8  -5720590.889 9  19916016.870    19916020.827         479.905
       368.279
 -12478079.820 9 -15376058.912 8  21316241.167    21316245.295        2757.692
      2133.745
 -13094753.328 8 -10348044.729 8  20366763.644    20366769.066        1206.991
       949.056
 -30319293.510 8  36025813.188 9  23245396.580    23245402.805        3641.243
      2829.198
 88  3 24  4 20  2.0800000  0  4G 6G 9G11G13
  -7181218.436 9  -5731625.272 9  19913321.568    19913325.112         466.659
       361.356
 -12560490.760 9 -15440275.200 8  21300559.517    21300563.992        2744.359
      2141.028
 -13130413.736 9 -10375832.033 7  20359977.258    20359982.778        1180.564
       926.326
 -30428079.173 8  35941045.214 8  23224695.460    23224701.714        3634.728
      2821.605
 88  3 24  4 20 32.0800000  0  4G 6G 9G11G13
  -7194926.877 9  -5742307.180 9  19910712.776    19910716.117         458.374
       351.601
 -12642703.884 9 -15504337.348 9  21284915.040    21284919.156        2715.986
      2124.816
 -13165537.465 9 -10403201.154 8  20353293.776    20353298.540        1160.380
       893.014
 -30536625.453 7  35856463.757 8  23204037.851    23204045.096        3631.498
      2813.670
 88  3 24  4 21  2.0800000  0  4G 6G 9G11G13
  -7208180.626 9  -5752634.781 9  19908190.596    19908194.278         435.966
       337.172
 -12724716.015 9 -15568242.880 9  21269308.688    21269312.445        2733.091
      2116.440
 -13200123.677 8 -10430151.437 8  20346712.865    20346717.624        1147.829
       894.425
 -30644929.878 8  35772070.795 8  23183429.173    23183435.783        3600.350
      2802.945
 88  3 24  4 21 32.0800000  0  4G 6G 9G11G13
  -7220977.749 9  -5762606.565 9  19905754.915    19905759.687         428.470
       327.150
 -12806524.162 9 -15631989.472 8  21253741.571    21253745.815        2726.775
      2131.508
 -13234172.059 8 -10456682.618 8  20340232.960    20340237.713        1131.258
       883.494
 -30752990.084 9  35687868.095 8  23162865.359    23162873.027        3600.613
      2801.329
 88  3 24  4 22  2.0800000  0  4G 6G 9G11G13
  -7233316.428 9  -5772221.122 9  19903407.735    19903412.304         402.434
       315.548
 -12888126.065 9 -15695575.342 8  21238213.356    21238216.835        2715.683
      2115.794
 -13267682.524 8 -10482794.666 8  20333856.544    20333860.598        1125.086
       864.201
 -30860804.024 8  35603857.333 9  23142348.870    23142356.909        3588.580
      2798.092
 88  3 24  4 22 32.0800000  0  4G 6G 9G11G13
  -7245194.656 9  -5781476.885 8  19901146.907    19901151.490         393.694
       305.519
 -12969518.855 9 -15758998.265 8  21222724.708    21222729.431        2697.350
      2100.564
 -13300654.791 9 -10508487.301 7  20327582.661    20327586.886        1088.149
       834.778
 -30968369.509 8  35520040.151 9  23121880.229    23121886.820        3580.239
      2799.881
 88  3 24  4 23  2.0800000  0  4G 6G 9G11G13
  -7256610.795 9  -5790372.582 8  19898974.392    19898978.820         354.356
       301.934
 -13050700.195 9 -15822256.433 9  21207275.724    21207280.797        2697.151
      2108.430
 -13333088.949 9 -10533760.659 8  20321410.387    20321414.068        1080.318
       837.003
 -31075683.457 8  35436418.956 8  23101458.566    23101465.897        3565.710
      2784.285
 88  3 24  4 23 32.0800000  0  4G 6G 9G11G13
  -7267562.661 9  -5798906.506 9  19896890.698    19896894.480         356.294
       273.537
 -13131666.938 9 -15885347.378 9  21191868.346    21191872.222        2708.363
      2104.342
 -13364984.852 9 -10558614.590 8  20315340.781    20315344.671        1065.717
       817.386
 -31182743.413 9  35352995.664 7  23081086.917    23081092.866        3575.351
      2772.025
 88  3 24  4 24  2.0800000  0  4G 6G 9G11G13
  -7278048.512 8  -5807077.312 9  19894894.791    19894899.182         362.570
       268.933
 -13212417.093 9 -15948269.569 8  21176501.691    21176506.116        2694.726
      2098.749
 -13396342.051 9 -10583048.755 9  20309373.427    20309379.551        1043.134
       802.181
 -31289547.870 9  35269771.458 8  23060762.262    23060768.161        3554.641
      2770.180
 88  3 24  4 24 32.0800000  0  4G 6G 9G11G13
  -7288066.735 9  -5814883.725 9  19892988.829    19892993.186         334.596
       252.242
 -13292947.412 9 -16011020.452 9  21161177.499    21161182.134        2688.833
      2088.993
 -13427161.222 9 -10607063.672 8  20303509.737    20303513.426        1029.912
       788.815
 -31396094.706 9  35186747.988 8  23040486.791    23040492.732        3546.172
      2769.049
 88  3 24  4 25  2.0800000  0  4G 6G 9G11G13
  -7297615.279 9  -5822324.146 9  19891171.880    19891176.500         304.876
       252.621
 -13373255.517 8 -16073598.184 9  21145894.772    21145900.194        2679.790
      2082.879
 -13457441.833 9 -10630658.947 8  20297746.835    20297751.655        1011.116
       774.231
 -31502381.517 9  35103927.103 8  23020261.942    23020266.915        3545.574
      2758.025
 88  3 24  4 25 32.0800000  0  4G 6G 9G11G13
  -7306692.402 9  -5829397.243 9  19889444.150    19889448.291         289.740
       224.715
 -13453338.678 9 -16136000.628 8  21130655.952    21130660.335        2667.462
      2080.698
 -13487183.962 8 -10653834.616 7  20292087.276    20292092.249         987.855
       778.537
 -31608406.070 9  35021310.625 8  23000085.499    23000091.678        3530.311
      2751.892
 88  3 24  4 26  2.0800000  0  4G 6G 9G11G13
  -7315296.254 9  -5836101.548 9  19887806.834    19887810.586         278.488
       220.167
 -13533193.976 9 -16198225.507 9  21115460.737    21115465.004        2665.899
      2079.039
 -13516387.481 8 -10676590.590 8  20286529.573    20286534.722         967.481
       751.731
 -31714166.369 9  34938900.045 9  22979960.226    22979966.513        3521.284
      2729.436
 88  3 24  4 26 32.0800000  0  4G 6G 9G11G13
  -7323425.017 8  -5842435.644 9  19886261.364    19886264.930         251.958
       199.543
 -13612818.935 9 -16260270.904 9  21100307.590    21100312.793        2640.421
      2067.842
 -13545052.360 8 -10698926.832 8  20281074.504    20281079.401         934.411
       741.012
 -31819660.101 9  34856697.174 8  22959885.686    22959891.000        3520.232
      2743.796
 88  3 24  4 27  2.0800000  0  4G 6G 9G11G13
  -7331076.762 9  -5848398.053 9  19884804.464    19884808.815         243.226
       195.535
 -13692210.787 9 -16322134.664 8  21085200.050    21085204.484        2643.228
      2054.569
 -13573178.904 9 -10720843.604 8  20275722.808    20275727.867         928.167
       713.765
 -31924884.215 9  34774704.365 7  22939861.580    22939867.776        3491.357
      2730.747
 88  3 24  4 27 32.0800000  0  4G 6G 9G11G13
  -7338249.954 9  -5853987.558 9  19883439.294    19883444.109         242.883
       184.419
 -13771366.770 9 -16383814.629 8  21070136.907    21070141.323        2629.959
      2057.676
 -13600767.045 8 -10742340.853 8  20270472.784    20270477.727         904.491
       721.333
 -32029836.891 9  34692923.108 8  22919889.192    22919895.317        3494.156
      2718.972
 88  3 24  4 28  2.0800000  0  4G 6G 9G11G13
  -7344942.586 9  -5859202.584 9  19882165.439    19882170.666         222.006
       175.682
 -13850283.778 9 -16445308.394 8  21055119.987    21055124.366        2630.780
      2047.635
 -13627816.432 9 -10763418.288 8  20265324.842    20265330.154         901.062
       704.283
 -32134516.062 8  34611354.953 9  22899970.094    22899976.673        3474.443
      2711.068
 88  3 24  4 28 32.0800000  0  4G 6G 9G11G13
  -7351153.191 9  -5864042.020 8  19880984.189    19880987.641         194.152
       149.429
 -13928959.330 9 -16506613.996 9  21040148.224    21040153.009        2624.209
      2046.118
 -13654327.562 8 -10784076.294 8  20260280.190    20260286.093         870.879
       678.614
 -32238919.561 8  34530001.624 9  22880101.610    22880109.628        3485.599
      2703.506
 88  3 24  4 29  2.0800000  0  4G 6G 9G11G13
  -7356880.035 9  -5868504.503 9  19879894.275    19879898.248         192.971
       139.711
 -14007391.197 9 -16567729.707 8  21025222.957    21025228.213        2610.581
      2036.518
 -13680300.576 8 -10804314.982 9  20255337.176    20255343.676         852.698
       658.580
 -32343045.217 7  34448864.816 9  22860287.697    22860294.834        3485.830
      2706.544
 88  3 24  4 29 32.0800000  0  4G 6G 9G11G13
  -7362121.207 8  -5872588.531 9  19878896.549    19878901.977         171.951
       130.937
 -14085576.160 9 -16628653.022 8  21010345.207    21010349.352        2604.090
      2036.661
 -13705735.515 7 -10824134.399 9  20250496.475    20250503.112         833.703
       655.306
 -32446890.843 8  34367946.174 8  22840528.201    22840532.050        3445.273
      2695.422
 88  3 24  4 30  2.0800000  0  4G 6G 9G11G13
  -7366875.261 9  -5876293.007 9  19877992.545    19877997.490         154.399
       112.134
 -14163511.458 9 -16689381.814 8  20995514.805    20995518.849        2585.900
      2023.171
 -13730632.808 8 -10843534.873 8  20245759.501    20245765.794         824.548
       648.222
 -32550454.053 7  34287247.636 8  22820818.280    22820826.075        3448.574
      2677.228
 88  3 24  4 30 32.0800000  0  4G 6G 9G11G13
  -7371140.585 8  -5879616.657 9  19877180.335    19877185.352         144.703
       104.031
 -14241194.639 9 -16749914.144 8  20980731.590    20980736.086        2602.064
      2011.856
 -13754992.673 8 -10862516.567 9  20241123.834    20241129.601         812.986
       614.568
 -32653732.815 8  34206770.711 8  22801166.671    22801172.521        3434.922
      2663.501
 88  3 24  4 31  2.0800000  0  4G 6G 9G11G13
  -7374915.322 8  -5882558.025 9  19876462.385    19876466.190         116.545
       103.466
 -14318622.517 9 -16810247.547 9  20965997.904    20966001.544        2580.534
      1996.818
 -13778814.780 9 -10881079.233 9  20236591.450    20236596.030         792.021
       618.756
 -32756724.879 8  34126517.186 9  22781566.506    22781574.093        3440.034
      2670.616
 88  3 24  4 31 32.0800000  0  4G 6G 9G11G13
  -7378197.821 9  -5885115.807 9  19875837.522    19875842.659          94.911
        83.954
 -14395792.871 9 -16870380.270 8  20951313.448    20951317.318        2573.229
      1991.611
 -13802100.108 8 -10899223.636 8  20232159.473    20232165.385         751.424
       595.405
 -32859428.270 9  34046488.609 9  22762024.087    22762030.255        3407.642
      2668.764
 88  3 24  4 32  2.0800000  0  4G 6G 9G11G13
  -7380986.387 9  -5887288.717 9  19875307.400    19875311.244          93.085
        63.014
 -14472702.241 9 -16930309.634 9  20936677.968    20936681.207        2565.733
      1985.198
 -13824848.649 8 -10916949.757 8  20227830.547    20227836.269         756.918
       588.557
 -32961840.998 9  33966686.542 9  22742534.497    22742541.860        3414.037
      2657.176
 88  3 24  4 32 32.0800000  0  4G 6G 9G11G13
  -7383279.545 9  -5889075.603 9  19874871.082    19874875.130          51.044
        49.890
 -14549348.162 9 -16990033.711 8  20922092.466    20922096.634        2563.086
      1979.861
 -13847060.552 7 -10934257.710 7  20223603.671    20223609.079         720.770
       566.747
 -33063960.812 8  33887112.703 9  22723103.081    22723108.125        3415.385
      2655.218
 88  3 24  4 33  2.0800000  0  4G 6G 9G11G13
  -7385075.622 9  -5890475.140 9  19874529.288    19874532.995          56.427
        50.021
 -14625727.927 9 -17049550.394 8  20907557.006    20907562.788        2553.054
      1987.007
 -13868735.973 8 -10951147.644 8  20219479.619    20219484.208         715.387
       564.230
 -33165785.771 9  33807768.574 8  22703725.643    22703731.948        3386.988
      2646.003
 88  3 24  4 33 32.0800000  0  4G 6G 9G11G13
  -7386372.898 9  -5891486.010 9  19874282.141    19874286.876          37.041
        38.960
 -14701838.226 9 -17108857.110 8  20893074.321    20893079.263        2529.075
      1973.610
 -13889875.259 8 -10967619.795 8  20215456.930    20215460.941         701.791
       532.391
 -33267313.511 8  33728656.109 8  22684405.858    22684410.989        3377.076
      2640.088
 88  3 24  4 34  2.0800000  0  4G 6G 9G11G13
  -7387170.095 9  -5892107.203 9  19874130.771    19874134.456           1.116
        25.327
 -14777677.264 9 -17167952.443 9  20878643.242    20878646.695        2528.533
      1973.784
 -13910479.093 9 -10983674.708 8  20211535.216    20211541.067         685.061
       514.911
 -33368542.015 9  33649776.778 8  22665141.968    22665148.076        3366.215
      2639.777
 88  3 24  4 34 32.0800000  0  4G 6G 9G11G13
  -7387465.800 9  -5892337.636 9  19874074.517    19874078.342           4.506
         4.250
 -14853241.533 9 -17226833.681 8  20864262.952    20864267.203        2522.082
      1961.070
 -13930548.118 9 -10999312.891 7  20207717.505    20207721.758         666.999
       522.940
 -33469469.706 8  33571131.862 9  22645937.485    22645941.122        3348.863
      2613.449
 88  3 24  4 35  2.0800000  0  4G 6G 9G11G13
  -7387258.061 9  -5892175.770 9  19874113.985    19874117.356         -10.239
       -14.882
 -14928528.288 9 -17285498.686 8  20849937.411    20849941.715        2513.748
      1949.227
 -13950082.038 7 -11014534.116 8  20203999.769    20204004.058         645.987
       507.200
 -33570093.684 8  33492723.580 9  22626789.567    22626793.768        3357.579
      2611.057
 88  3 24  4 35 32.0800000  0  4G 6G 9G11G13
  -7386545.348 9  -5891620.423 9  19874248.278    19874253.921         -22.272
       -16.908
 -15003534.614 9 -17343945.158 7  20835663.272    20835668.465        2506.835
      1948.226
 -13969081.374 8 -11029338.784 7  20200384.614    20200388.961         628.531
       496.599
 -33670412.153 9  33414553.382 8  22607698.428    22607704.403        3322.021
      2596.212
 88  3 24  4 36  2.0800000  0  4G 6G 9G11G13
  -7385326.161 8  -5890670.410 9  19874480.677    19874485.575         -59.154
       -44.422
 -15078257.645 9 -17402170.875 8  20821444.720    20821448.476        2488.215
      1942.522
 -13987546.753 8 -11043727.375 8  20196870.490    20196875.291         602.742
       470.029
 -33770422.940 9  33336622.918 8  22588667.026    22588672.692        3327.994
      2590.651
 88  3 24  4 36 32.0800000  0  4G 6G 9G11G13
  -7383599.060 9  -5889324.633 9  19874809.012    19874814.429         -51.498
       -48.921
 -15152694.627 9 -17460173.704 8  20807279.792    20807283.682        2480.264
      1927.423
 -14005478.189 8 -11057699.919 9  20193458.022    20193463.566         579.847
       460.615
 -33870124.042 9  33258933.773 8  22569694.550    22569700.106        3315.682
      2581.827
 88  3 24  4 37  2.0800000  0  4G 6G 9G11G13
  -7381362.819 8  -5887582.114 8  19875234.868    19875238.875         -87.750
       -60.821
 -15226842.822 9 -17517951.505 8  20793169.898    20793173.218        2471.931
      1921.880
 -14022876.346 7 -11071256.887 8  20190148.113    20190152.222         563.245
       448.772
 -33969513.595 9  33181487.355 8  22550781.697    22550786.710        3330.307
      2579.976
 88  3 24  4 37 32.0800000  0  4G 6G 9G11G13
  -7378615.901 8  -5885441.655 9  19875757.267    19875762.403         -80.485
       -82.879
 -15300699.560 9 -17575502.204 8  20779114.396    20779118.098        2468.103
      1914.921
 -14039742.463 8 -11084399.301 8  20186937.221    20186942.510         565.653
       414.888
 -34068589.766 8  33104285.206 9  22531926.946    22531933.772        3305.331
      2567.679
 88  3 24  4 38  2.0800000  0  4G 6G 9G11G13
  -7375356.784 9  -5882902.111 8  19876377.355    19876381.480        -119.727
       -89.423
 -15374261.553 9 -17632823.231 8  20765115.605    20765120.420        2440.663
      1907.613
 -14056076.294 8 -11097126.941 6  20183828.890    20183834.807         534.425
       418.268
 -34167350.083 8  33027329.114 8  22513134.679    22513140.289        3298.050
      2566.659
 88  3 24  4 38 32.0800000  0  4G 6G 9G11G13
  -7371583.869 8  -5879962.187 9  19877095.502    19877099.415        -130.301
      -107.554
 -15447526.171 9 -17689912.521 8  20751174.619    20751178.239        2434.148
      1912.249
 -14071878.532 8 -11109440.363 8  20180820.832    20180827.753         511.037
       419.791
 -34265792.545 8  32950620.769 8  22494400.445    22494407.199        3277.062
      2549.137
 88  3 24  4 39  2.0800000  0  4G 6G 9G11G13
  -7367296.151 9  -5876621.118 8  19877911.626    19877915.935        -158.116
      -120.112
 -15520490.803 9 -17746768.066 9  20737290.234    20737293.403        2431.740
      1900.268
 -14087149.851 8 -11121340.089 7  20177915.886    20177921.665         500.176
       378.519
 -34363915.472 8  32874161.388 8  22475728.738    22475734.525        3276.663
      2553.076
 88  3 24  4 39 32.0800000  0  4G 6G 9G11G13
  -7362491.953 9  -5872877.604 8  19878826.305    19878829.900        -167.605
      -126.109
 -15593152.250 9 -17803387.365 8  20723463.485    20723467.599        2428.742
      1880.645
 -14101890.686 8 -11132826.445 8  20175109.745    20175116.728         503.333
       370.136
 -34461716.788 8  32797952.615 8  22457118.547    22457124.840        3250.547
      2534.646
 88  3 24  4 40  2.0800000  0  4G 6G 9G11G13
  -7357169.913 8  -5868730.564 7  19879838.650    19879843.091        -184.758
      -146.384
 -15665507.620 9 -17859768.156 8  20709694.438    20709698.779        2405.696
      1859.226
 -14116101.692 8 -11143899.934 7  20172407.016    20172412.949         470.423
       360.008
 -34559194.287 9  32721996.150 8  22438568.352    22438574.167        3253.817
      2536.367
 88  3 24  4 40 32.0800000  0  4G 6G 9G11G13
  -7351328.876 9  -5864179.114 8  19880950.477    19880954.725        -221.129
      -155.910
 -15737554.446 9 -17915908.526 8  20695983.977    20695987.593        2398.336
      1875.295
 -14129783.624 9 -11154561.161 9  20169803.809    20169808.967         456.819
       365.886
 -34656346.142 8  32646293.445 9  22420081.195    22420087.548        3223.562
      2524.232
 88  3 24  4 41  2.0800000  0  4G 6G 9G11G13
  -7344967.434 8  -5859222.154 8  19882161.130    19882165.585        -212.477
      -167.362
 -15809289.714 9 -17971806.117 9  20682333.348    20682337.163        2393.742
      1853.187
 -14142937.243 8 -11164810.721 8  20167300.034    20167305.325         405.767
       354.857
 -34753170.270 9  32570846.106 9  22401656.563    22401663.341        3235.507
      2509.586
 88  3 24  4 41 32.0800000  0  4G 6G 9G11G13
  -7338084.308 8  -5853858.692 8  19883470.313    19883475.660        -219.869
      -182.331
 -15880710.291 9 -18027458.507 9  20668742.560    20668746.344        2372.602
      1857.107
 -14155563.256 8 -11174649.164 7  20164897.384    20164902.691         409.228
       314.107
 -34849665.211 9  32495655.283 8  22383293.447    22383300.181        3212.733
      2498.817
 88  3 24  4 42  2.0800000  0  4G 6G 9G11G13
  -7330678.170 9  -5848087.685 9  19884880.849    19884884.561        -256.399
      -202.837
 -15951813.515 9 -18082863.606 8  20655211.929    20655216.602        2370.848
      1835.918
 -14167662.140 8 -11184076.866 8  20162595.256    20162600.043         396.764
       326.385
 -34945829.140 9  32420722.370 9  22364994.454    22365000.770        3195.899
      2491.566
 88  3 24  4 42 32.0800000  0  4G 6G 9G11G13
  -7322747.559 9  -5841908.002 9  19886389.799    19886394.053        -281.200
      -217.787
 -16022596.288 9 -18138018.989 9  20641741.976    20641745.974        2368.503
      1830.792
 -14179234.332 7 -11193094.146 8  20160392.798    20160397.360         376.836
       300.716
 -35041660.062 9  32346048.948 9  22346758.326    22346765.202        3191.521
      2480.487
 88  3 24  4 43  2.0800000  0  4G 6G 9G11G13
  -7314291.306 9  -5835318.726 8  19887998.207    19888003.139        -282.970
      -231.861
 -16093055.746 9 -18192922.459 8  20628333.889    20628338.108        2349.086
      1823.758
 -14190280.617 8 -11201701.622 8  20158291.480    20158295.785         347.243
       276.725
 -35137155.334 9  32271637.064 8  22328586.796    22328592.726        3185.883
      2469.687
 88  3 24  4 43 32.0800000  0  4G 6G 9G11G13
  -7305307.884 9  -5828318.656 9  19889707.859    19889712.613        -300.713
      -232.483
 -16163188.926 9 -18247571.660 9  20614988.549    20614992.977        2332.778
      1823.006
 -14200801.387 8 -11209899.612 9  20156288.947    20156293.641         342.395
       247.278
 -35232313.008 8  32197488.263 8  22310478.077    22310483.994        3180.692
      2470.309
 88  3 24  4 44  2.0800000  0  4G 6G 9G11G13
  -7295796.132 9  -5820906.917 9  19891518.342    19891522.172        -316.303
      -256.232
 -16232992.849 9 -18301964.315 8  20601704.593    20601709.766        2330.083
      1804.048
 -14210797.527 7 -11217688.799 7  20154386.530    20154392.165         321.717
       255.355
 -35327131.588 8  32123603.675 8  22292435.368    22292440.571        3150.174
      2476.274
 88  3 24  4 44 32.0800000  0  4G 6G 9G11G13
  -7285754.599 8  -5813082.358 9  19893429.196    19893433.551        -345.832
      -266.932
 -16302464.334 9 -18356097.934 8  20588484.398    20588489.756        2315.849
      1806.478
 -14220269.850 8 -11225069.827 9  20152584.709    20152589.921         309.469
       234.415
 -35421608.505 8  32049985.347 8  22274455.854    22274461.946        3144.536
      2453.040
 88  3 24  4 45  2.0800000  0  4G 6G 9G11G13
  -7275182.232 9  -5804844.162 9  19895441.234    19895444.729        -352.275
      -274.314
 -16371600.576 9 -18409970.315 8  20575328.772    20575332.678        2290.498
      1799.425
 -14229219.195 9 -11232043.330 8  20150880.587    20150885.461         297.292
       225.007
 -35515742.024 8  31976634.553 9  22256543.772    22256548.938        3121.012
      2443.484
 88  3 24  4 45 32.0800000  0  4G 6G 9G11G13
  -7264077.631 9  -5796191.236 9  19897554.050    19897558.651        -384.771
      -306.837
 -16440398.750 8 -18463579.266 8  20562237.116    20562241.306        2283.975
      1792.671
 -14237646.016 8 -11238609.671 8  20149277.617    20149283.338         260.769
       219.471
 -35609530.898 8  31903552.349 8  22238694.617    22238701.502        3117.742
      2435.710
 88  3 24  4 46  2.0800000  0  4G 6G 9G11G13
  -7252439.286 9  -5787122.414 9  19899768.271    19899772.869        -394.452
      -305.681
 -16508855.219 9 -18516921.959 8  20549210.363    20549215.080        2268.944
      1795.050
 -14245550.847 9 -11244769.272 8  20147773.723    20147778.699         247.245
       205.900
 -35702971.987 9  31830741.140 8  22220914.650    22220920.643        3104.600
      2422.500
 88  3 24  4 46 32.0800000  0  4G 6G 9G11G13
  -7240266.075 9  -5777636.806 9  19902085.364    19902089.635        -412.968
      -326.367
 -16576967.382 9 -18569996.359 9  20536249.237    20536253.168        2281.081
      1768.971
 -14252934.415 9 -11250522.684 8  20146368.150    20146373.313         235.985
       188.943
 -35796063.763 9  31758202.118 8  22203199.457    22203204.752        3112.838
      2421.841
 88  3 24  4 47  2.0800000  0  4G 6G 9G11G13
  -7227556.457 9  -5767733.223 9  19904504.179    19904507.904        -424.938
      -328.902
 -16644731.748 9 -18622799.738 8  20523354.042    20523358.653        2248.458
      1773.091
 -14259797.342 8 -11255870.414 7  20145062.522    20145067.627         221.169
       176.335
 -35888804.042 8  31685936.957 9  22185552.150    22185558.514        3097.423
      2414.285
 88  3 24  4 47 32.0800000  0  4G 6G 9G11G13
  -7214308.948 9  -5757410.491 8  19907025.159    19907030.620        -443.709
      -357.765
 -16712144.827 9 -18675329.404 9  20510526.027    20510529.731        2243.139
      1741.668
 -14266139.896 8 -11260812.660 7  20143854.823    20143860.610         208.171
       162.161
 -35981190.602 8  31613947.465 8  22167970.418    22167977.096        3072.791
      2384.645
 88  3 24  4 48  2.0800000  0  4G 6G 9G11G13
  -7200521.924 9  -5746667.360 9  19909648.870    19909652.854        -462.800
      -364.929
 -16779203.718 9 -18727583.072 8  20497764.531    20497768.932        2250.060
      1725.176
 -14271962.805 8 -11265349.969 8  20142746.855    20142752.683         184.893
       138.039
 -36073221.081 9  31542235.434 8  22150457.860    22150465.034        3061.658
      2387.044
 88  3 24  4 48 32.0800000  0  4G 6G 9G11G13
  -7186193.715 9  -5735502.540 8  19912375.065    19912379.641        -475.702
      -385.932
 -16845904.439 9 -18779557.649 9  20485071.977    20485076.857        2231.552
      1717.415
 -14277266.396 9 -11269482.634 8  20141738.802    20141743.389         171.489
       125.686
 -36164893.061 8  31470802.728 8  22133013.616    22133019.521        3026.380
      2366.656
 88  3 24  4 49  2.0800000  0  4G 6G 9G11G13
  -7171323.282 9  -5723915.202 9  19915204.628    19915208.816        -500.176
      -401.323
 -16912244.104 9 -18831250.899 8  20472447.662    20472452.161        2210.539
      1726.028
 -14282051.592 8 -11273211.324 8  20140826.778    20140832.495         166.146
       112.097
 -36256205.004 9  31399650.580 8  22115638.122    22115643.397        3025.104
      2380.488
 88  3 24  4 49 32.0800000  0  4G 6G 9G11G13
  -7155909.466 9  -5711904.446 9  19918137.627    19918142.054        -514.442
      -402.398
 -16978219.781 9 -18882660.521 9  20459893.543    20459897.131        2204.040
      1709.039
 -14286319.071 8 -11276536.630 8  20140014.156    20140020.336         126.378
       105.255
 -36347154.869 7  31328780.578 8  22098330.292    22098335.374        3021.707
      2358.802
 88  3 24  4 50  2.0800000  0  4G 6G 9G11G13
  -7139951.384 9  -5699469.576 9  19921174.612    19921178.746        -545.079
      -410.563
 -17043828.618 9 -18933784.268 8  20447408.180    20447412.721        2191.234
      1708.673
 -14290069.743 7 -11279459.225 8  20139301.732    20139305.604         126.537
        97.258
 -36437741.207 9  31258193.833 9  22081092.551    22081099.178        3014.825
      2355.354
 88  3 24  4 50 32.0800000  0  4G 6G 9G11G13
  -7123448.213 8  -5686609.987 9  19924314.659    19924319.553        -560.581
      -428.024
 -17109067.716 9 -18984619.926 9  20434993.573    20434997.494        2170.460
      1687.993
 -14293305.146 7 -11281980.304 8  20138686.213    20138690.775         105.915
        79.978
 -36527962.325 9  31187891.697 9  22063924.212    22063928.986        3007.465
      2350.016
 88  3 24  4 51  2.0800000  0  4G 6G 9G11G13
  -7106399.182 8  -5673325.040 9  19927558.435    19927563.451        -577.694
      -455.545
 -17173934.441 9 -19035165.415 8  20422650.198    20422654.149        2151.792
      1693.716
 -14296026.145 8 -11284100.548 7  20138168.128    20138173.188          93.236
        54.402
 -36617815.849 9  31117875.973 9  22046825.782    22046831.216        3000.431
      2328.466
 88  3 24  4 51 32.0800000  0  4G 6G 9G11G13
  -7088803.313 9  -5659613.988 9  19930907.505    19930912.167        -605.788
      -457.347
 -17238425.891 9 -19085418.499 7  20410377.534    20410381.461        2154.057
      1663.281
 -14298234.060 8 -11285820.969 8  20137747.195    20137752.533          65.031
        61.610
 -36707301.051 9  31048147.275 9  22029796.917    22029802.457        2977.027
      2323.974
 88  3 24  4 52  2.0800000  0  4G 6G 9G11G13
  -7070659.948 9  -5645476.311 8  19934360.277    19934364.805        -615.349
      -480.854
 -17302539.364 9 -19135377.044 9  20398177.004    20398180.860        2114.783
      1654.886
 -14299929.879 8 -11287142.376 8  20137425.608    20137430.260          41.746
        35.711
 -36796416.343 9  30978706.817 8  22012839.570    22012843.548        2960.344
      2317.978
 88  3 24  4 52 32.0800000  0  4G 6G 9G11G13
  -7051968.204 8  -5630911.320 9  19937916.611    19937920.640        -633.754
      -502.801
 -17366272.102 9 -19185038.909 9  20386048.384    20386052.523        2140.333
      1650.257
 -14301114.823 7 -11288065.705 8  20137198.768    20137204.404           6.571
        19.232
 -36885159.360 9  30909556.439 8  21995951.436    21995956.525        2955.623
      2293.812
 88  3 24  4 53  2.0800000  0  4G 6G 9G11G13
  -7032727.554 8  -5615918.623 9  19941578.516    19941582.730        -652.693
      -513.252
 -17429621.348 9 -19234401.952 8  20373993.937    20373997.883        2101.075
      1648.790
 -14301790.054 7 -11288591.851 7  20137070.444    20137076.000          23.540
        22.531
 -36973529.428 9  30840696.657 9  21979135.906    21979141.437        2950.472
      2291.265
 88  3 24  4 53 32.0800000  0  4G 6G 9G11G13
  -7012937.208 9  -5600497.592 8  19945343.899    19945348.941        -675.117
      -528.047
 -17492584.332 9 -19283464.015 8  20362012.767    20362017.719        2094.792
      1630.808
 -14301957.212 7 -11288722.089 8  20137039.768    20137043.333         -16.858
        -1.622
 -37061524.378 9  30772129.196 8  21962391.058    21962397.280        2936.126
      2270.237
 88  3 24  4 54  2.0800000  0  4G 6G 9G11G13
  -6992596.618 8  -5584647.785 8  19949214.760    19949220.061        -683.833
      -536.548
 -17555158.246 9 -19332222.906 9  20350104.946    20350109.226        2097.678
      1612.663
 -14301617.673 8 -11288457.512 8  20137103.863    20137108.255         -13.692
       -21.363
 -37149142.926 8  30703855.017 8  21945718.146    21945722.473        2910.050
      2266.304
 88  3 24  4 54 32.0800000  0  4G 6G 9G11G13
  -6971705.140 9  -5568368.715 8  19953190.250    19953194.068        -716.823
      -545.179
 -17617340.494 9 -19380676.588 8  20338272.201    20338276.503        2072.344
      1624.289
 -14300772.515 8 -11287798.923 7  20137264.884    20137269.271         -23.405
       -20.499
 -37236384.100 9  30635874.897 8  21929114.994    21929121.289        2915.425
      2254.895
 88  3 24  4 55  2.0800000  0  4G 6G 9G11G13
  -6950267.275 8  -5551663.899 8  19957269.541    19957274.405        -726.448
      -556.196
 -17679133.477 9 -19428826.944 8  20326513.322    20326517.476        2059.545
      1607.301
 -14299428.157 8 -11286751.369 9  20137520.148    20137525.194         -47.527
       -44.783
 -37323251.720 9  30568185.875 9  21912584.707    21912591.685        2892.825
      2262.787
 88  3 24  4 55 32.0800000  0  4G 6G 9G11G13
  -6928296.287 9  -5534543.654 8  19961450.671    19961454.375        -746.599
      -568.922
 -17740548.175 8 -19476682.552 8  20314825.959    20314830.798        2045.159
      1591.903
 -14297599.893 7 -11285326.732 9  20137867.768    20137872.584         -71.211
       -46.622
 -37409757.086 8  30500779.122 8  21896123.663    21896128.754        2867.571
      2250.272
 88  3 24  4 56  2.0800000  0  4G 6G 9G11G13
  -6905785.297 8  -5517002.650 8  19965735.413    19965737.714        -776.678
      -589.551
 -17801575.897 9 -19524236.619 8  20303212.189    20303217.587        2031.021
      1582.918
 -14295282.689 8 -11283521.104 8  20138308.983    20138314.670         -94.759
       -65.792
 -37495893.617 8  30433659.771 7  21879731.384    21879737.363        2887.690
      2239.218
 88  3 24  4 56 32.0800000  0  4G 6G 9G11G13
  -6882724.535 9  -5499033.236 8  19970122.240    19970127.713        -798.520
      -595.684
 -17862204.326 8 -19571479.537 8  20291674.970    20291680.426        2011.436
      1567.626
 -14292468.987 8 -11281328.606 8  20138843.821    20138850.201         -91.514
       -75.236
 -37581650.284 8  30366836.428 8  21863414.225    21863419.385        2844.078
      2223.969
 88  3 24  4 57  2.0800000  0  4G 6G 9G11G13
  -6859111.373 9  -5480633.374 8  19974616.255    19974621.098        -804.445
      -631.047
 -17922428.628 9 -19618407.557 8  20280215.437    20280220.316        1998.597
      1570.484
 -14289157.987 8 -11278748.591 9  20139474.264    20139480.037        -125.309
       -81.469
 -37667023.619 8  30300311.766 7  21847166.722    21847172.212        2846.383
      2227.511
 88  3 24  4 57 32.0800000  0  4G 6G 9G11G13
  -6834947.055 8  -5461804.061 8  19979214.603    19979218.985        -805.849
      -655.386
 -17982248.102 8 -19665020.136 8  20268833.415    20268836.967        1989.275
      1552.054
 -14285352.713 7 -11275783.440 8  20140198.627    20140204.067        -133.076
       -99.688
 -37752014.231 8  30234085.346 8  21830995.675    21831000.245        2819.868
      2198.760
 88  3 24  4 58  2.0800000  0  4G 6G 9G11G13
  -6810231.307 9  -5442545.061 9  19983917.536    19983922.413        -825.864
      -656.729
 -18041660.184 9 -19711315.244 9  20257527.368    20257531.162        1971.699
      1536.439
 -14281054.721 7 -11272434.354 8  20141016.213    20141022.331        -156.880
      -112.084
 -37836620.789 9  30168158.154 8  21814894.880    21814898.717        2823.090
      2191.378
 88  3 24  4 58 32.0800000  0  4G 6G 9G11G13
  -6784962.572 8  -5422855.162 8  19988726.945    19988730.580        -847.323
      -652.012
 -18100660.977 9 -19757289.883 8  20246299.312    20246302.447        1957.944
      1521.041
 -14276264.458 8 -11268701.693 8  20141928.163    20141933.909        -156.210
      -130.726
 -37920840.422 8  30102532.488 9  21798868.886    21798873.389        2799.494
      2190.396
 88  3 24  4 59  2.0800000  0  4G 6G 9G11G13
  -6759141.142 9  -5402734.585 7  19993639.997    19993643.650        -873.918
      -682.360
 -18159248.553 9 -19802942.531 8  20235149.517    20235154.879        1956.771
      1517.213
 -14270984.311 8 -11264587.287 8  20142933.393    20142938.735        -176.552
      -150.330
 -38004672.640 8  30037208.694 8  21782914.417    21782921.565        2802.691
      2178.826
 88  3 24  4 59 32.0800000  0  4G 6G 9G11G13
  -6732767.084 9  -5382183.379 9  19998658.426    19998663.738        -883.288
      -683.802
 -18217420.417 9 -19848271.244 9  20224080.825    20224083.903        1932.067
      1521.439
 -14265215.787 7 -11260092.320 8  20144030.412    20144036.302        -194.734
      -158.793
 -38088116.795 9  29972187.309 8  21767035.617    21767041.309        2777.787
      2165.299
 88  3 24  5  0  2.0800000  0  4G 6G 9G11G13
  -6705838.820 9  -5361200.343 8  20003783.710    20003787.816        -900.951
      -721.277
 -18275172.892 9 -19893273.168 8  20213091.239    20213095.239        1919.260
      1500.175
 -14258959.793 7 -11255217.523 7  20145219.749    20145226.813        -216.639
      -177.870
 -38171170.616 8  29907470.039 8  21751231.035    21751237.237        2746.336
      2154.512
 88  3 24  5  0 32.0800000  0  4G 6G 9G11G13
  -6678356.044 9  -5339785.206 8  20009012.892    20009016.734        -921.612
      -726.143
 -18332503.404 9 -19937946.280 8  20202182.126    20202185.063        1911.740
      1492.122
 -14252217.645 8 -11249963.878 8  20146503.637    20146509.750        -226.081
      -173.470
 -38253832.956 9  29843057.860 8  21735501.770    21735507.308        2745.746
      2136.883
 88  3 24  5  1  2.0800000  0  4G 6G 9G11G13
  -6650317.990 9  -5317937.376 8  20014348.711    20014353.320        -945.129
      -730.188
 -18389408.775 9 -19982288.130 9  20191352.344    20191356.153        1892.769
      1473.928
 -14244990.514 7 -11244332.340 8  20147879.028    20147884.984        -230.451
      -186.662
 -38336101.588 9  29778952.441 8  21719846.089    21719851.624        2743.035
      2124.437
 88  3 24  5  1 32.0800000  0  4G 6G 9G11G13
  -6621723.343 9  -5295655.855 8  20019788.748    20019793.938        -961.396
      -759.610
 -18445885.240 8 -20026295.758 8  20180604.764    20180610.297        1881.470
      1456.281
 -14237278.954 8 -11238323.321 8  20149346.518    20149352.220        -257.021
      -191.360
 -38417974.373 9  29715155.483 8  21704266.894    21704271.752        2733.705
      2109.847
 88  3 24  5  2  2.0800000  0  4G 6G 9G11G13
  -6592573.017 8  -5272941.322 9  20025334.845    20025341.758        -988.039
      -766.551
 -18501931.439 8 -20069968.109 9  20169939.445    20169943.770        1859.787
      1469.082
 -14229085.705 7 -11231938.961 7  20150906.079    20150909.811        -291.487
      -213.102
 -38499451.049 8  29651667.175 9  21688761.236    21688767.769        2717.246
      2110.040
 88  3 24  5  2 32.0800000  0  4G 6G 9G11G13
  -6562866.953 8  -5249793.762 9  20030989.722    20030993.910       -1009.928
      -764.954
 -18557544.790 9 -20113303.196 8  20159356.702    20159361.146        1847.507
      1447.078
 -14220412.766 8 -11225180.817 8  20152555.384    20152561.043        -297.348
      -240.237
 -38580531.009 9  29588488.031 9  21673332.374    21673338.547        2693.124
      2112.388
 88  3 24  5  3  2.0800000  0  4G 6G 9G11G13
  -6532604.047 9  -5226212.289 8  20036749.361    20036753.289       -1020.582
      -802.398
 -18612722.096 9 -20156298.494 9  20148857.405    20148861.595        1834.572
      1440.598
 -14211260.669 8 -11218049.312 7  20154298.688    20154303.120        -303.855
      -222.540
 -38661212.245 9  29525619.529 9  21657980.147    21657984.766        2696.784
      2089.068
 88  3 24  5  3 32.0800000  0  4G 6G 9G11G13
  -6501783.355 8  -5202196.166 8  20042613.832    20042617.944       -1047.137
      -818.026
 -18667459.737 9 -20198951.190 8  20138441.673    20138444.540        1817.156
      1419.061
 -14201630.017 8 -11210544.886 8  20156130.258    20156137.229        -331.008
      -247.998
 -38741492.952 9  29463063.155 9  21642702.469    21642708.195        2678.180
      2078.474
 88  3 24  5  4  2.0800000  0  4G 6G 9G11G13
  -6470405.835 9  -5177746.168 8  20048585.052    20048588.621       -1045.717
      -817.616
 -18721756.046 9 -20241260.000 8  20128108.335    20128112.570        1809.366
      1406.111
 -14191523.903 8 -11202669.976 8  20158053.987    20158059.561        -323.129
      -277.905
 -38821372.905 8  29400819.037 8  21627501.447    21627508.493        2651.920
      2067.140
 88  3 24  5  4 32.0800000  0  4G 6G 9G11G13
  -6438471.038 9  -5152861.919 9  20054660.795    20054666.572       -1063.508
      -840.079
 -18775608.382 9 -20283222.853 9  20117860.236    20117864.659        1791.973
      1393.727
 -14180943.689 8 -11194425.636 8  20160068.067    20160072.555        -343.870
      -276.402
 -38900850.423 8  29338888.534 7  21612376.979    21612383.815        2641.203
      2061.056
 88  3 24  5  5  2.0800000  0  4G 6G 9G11G13
  -6405977.413 8  -5127542.223 8  20060845.394    20060850.379       -1096.115
      -855.240
 -18829012.480 9 -20324836.427 9  20107698.149    20107702.236        1763.035
      1379.976
 -14169889.519 7 -11185811.993 8  20162170.773    20162175.302        -370.473
      -297.678
 -38979923.036 8  29277273.525 8  21597329.663    21597336.691        2629.129
      2040.787
 88  3 24  5  5 32.0800000  0  4G 6G 9G11G13
  -6372925.461 9  -5101787.468 8  20067135.441    20067139.672       -1099.353
      -869.756
 -18881966.470 9 -20366099.272 9  20097621.245    20097625.121        1748.984
      1375.284
 -14158363.864 7 -11176830.946 8  20164365.308    20164369.566        -382.426
      -314.262
 -39058590.305 8  29215974.393 8  21582361.600    21582366.457        2631.274
      2029.360
 88  3 24  5  6  2.0800000  0  4G 6G 9G11G13
  -6339315.317 8  -5075597.752 8  20073529.917    20073534.946       -1135.883
      -890.218
 -18934467.988 9 -20407009.543 8  20087631.023    20087634.262        1742.851
      1362.006
 -14146368.696 7 -11167484.059 8  20166646.443    20166652.471        -392.195
      -321.824
 -39136851.920 8  29154991.344 9  21567468.126    21567473.532        2595.047
      2025.402
 88  3 24  5  6 32.0800000  0  4G 6G 9G11G13
  -6305145.789 8  -5048972.151 8  20080033.005    20080037.190       -1146.768
      -899.638
 -18986513.378 9 -20447564.382 8  20077727.295    20077731.381        1725.164
      1349.305
 -14133904.775 9 -11157771.897 8  20169017.924    20169024.336        -420.384
      -314.113
 -39214705.024 8  29094326.610 9  21552652.823    21552659.250        2585.039
      2019.617
 88  3 24  5  7  2.0800000  0  4G 6G 9G11G13
  -6270417.881 9  -5021911.459 8  20086641.492    20086644.918       -1159.471
      -905.373
 -19038101.052 9 -20487762.557 8  20067909.918    20067913.677        1719.487
      1348.907
 -14120974.398 8 -11147696.284 9  20171478.705    20171484.217        -439.770
      -346.369
 -39292149.858 9  29033979.999 7  21537915.879    21537921.848        2584.138
      1992.027
 88  3 24  5  7 32.0800000  0  4G 6G 9G11G13
  -6235131.348 9  -4994415.482 8  20093356.427    20093360.511       -1180.843
      -923.294
 -19089227.874 9 -20527601.637 8  20058181.094    20058185.451        1699.192
      1328.892
 -14107579.479 8 -11137258.681 9  20174027.514    20174033.503        -452.066
      -361.456
 -39369184.774 9  28973952.809 8  21523257.527    21523263.226        2548.517
      1983.900
 88  3 24  5  8  2.0800000  0  4G 6G 9G11G13
  -6199285.111 9  -4966483.360 8  20100176.877    20100181.221       -1198.402
      -941.668
 -19139890.538 8 -20567079.029 8  20048539.616    20048544.909        1689.359
      1312.469
 -14093720.514 7 -11126459.483 9  20176663.491    20176670.682        -469.084
      -355.851
 -39445807.526 8  28914246.795 8  21508675.098    21508681.791        2543.238
      1985.316
 88  3 24  5  8 32.0800000  0  4G 6G 9G11G13
  -6162879.049 9  -4938115.017 8  20107105.437    20107110.282       -1214.989
      -956.898
 -19190086.313 9 -20606192.626 8  20038988.423    20038992.653        1666.234
      1288.372
 -14079399.143 7 -11115299.970 8  20179389.516    20179396.417        -471.460
      -390.120
 -39522017.503 9  28854862.431 9  21494174.541    21494180.081        2533.317
      1980.035
 88  3 24  5  9  2.0800000  0  4G 6G 9G11G13
  -6125914.342 9  -4909311.370 9  20114139.796    20114144.052       -1235.762
      -964.802
 -19239813.667 8 -20644941.203 8  20029525.577    20029529.650        1655.660
      1283.053
 -14064617.959 7 -11103782.155 8  20182202.648    20182208.751        -491.476
      -382.458
 -39597814.884 9  28795799.547 8  21479749.492    21479755.605        2500.758
      1969.254
 88  3 24  5  9 32.0800000  0  4G 6G 9G11G13
  -6088390.141 9  -4880071.742 8  20121280.988    20121283.625       -1248.114
      -970.202
 -19289069.184 7 -20683322.107 8  20020151.861    20020156.679        1622.750
      1274.491
 -14049378.277 8 -11091907.083 8  20185102.862    20185107.788        -487.791
      -411.918
 -39673197.496 9  28737059.870 8  21465405.213    21465410.326        2520.335
      1948.463
 88  3 24  5 10  2.0800000  0  4G 6G 9G11G13
  -6050307.153 9  -4850396.702 9  20128527.287    20128531.266       -1284.461
      -992.428
 -19337850.698 8 -20721333.676 8  20010868.730    20010873.998        1628.092
      1269.352
 -14033682.456 8 -11079676.570 8  20188089.516    20188095.816        -516.348
      -409.532
 -39748165.153 9  28678643.536 7  21451138.662    21451145.819        2499.777
      1937.607
 88  3 24  5 10 32.0800000  0  4G 6G 9G11G13
  -6011664.551 9  -4820285.594 8  20135880.697    20135885.017       -1290.921
      -995.535
 -19386154.888 9 -20758973.288 8  20001676.278    20001682.217        1607.893
      1231.118
 -14017531.329 8 -11067091.262 9  20191163.240    20191168.385        -532.990
      -413.384
 -39822715.436 9  28620552.435 8  21436952.430    21436958.828        2473.446
      1918.090
 88  3 24  5 11  2.0800000  0  4G 6G 9G11G13
  -5972462.460 9  -4789738.526 8  20143340.774    20143344.866       -1319.868
     -1020.813
 -19433979.415 8 -20796239.155 9  19992575.885    19992581.768        1576.714
      1245.795
 -14000927.064 8 -11054152.870 9  20194321.712    20194328.392        -555.733
      -435.524
 -39896847.786 9  28562786.999 9  21422845.353    21422851.034        2446.094
      1917.760
 88  3 24  5 11 32.0800000  0  4G 6G 9G11G13
  -5932701.847 9  -4758756.260 8  20150906.504    20150910.775       -1334.891
     -1046.128
 -19481322.284 9 -20833129.709 9  19983568.133    19983572.379        1572.886
      1215.951
 -13983872.023 7 -11040863.220 8  20197568.054    20197573.680        -564.066
      -456.334
 -39970562.055 9  28505347.337 8  21408818.253    21408824.745        2449.044
      1904.090
 88  3 24  5 12  2.0800000  0  4G 6G 9G11G13
  -5892381.232 9  -4727337.634 9  20158579.978    20158583.681       -1351.861
     -1066.323
 -19528179.284 9 -20869641.662 8  19974651.467    19974655.385        1553.460
      1204.107
 -13966366.027 8 -11027222.198 8  20200900.545    20200904.531        -589.943
      -458.198
 -40043855.625 8  28448235.484 9  21394870.830    21394875.805        2443.598
      1910.478
 88  3 24  5 12 32.0800000  0  4G 6G 9G11G13
  -5851501.130 9  -4695483.019 8  20166359.762    20166363.016       -1363.368
     -1064.235
 -19574548.589 9 -20905773.583 8  19965827.781    19965831.750        1534.123
      1200.416
 -13948411.802 9 -11013231.884 8  20204317.009    20204321.325        -592.662
      -480.462
 -40116727.757 9  28391452.038 9  21381003.377    21381009.798        2418.862
      1889.643
 88  3 24  5 13  2.0800000  0  4G 6G 9G11G13
  -5810062.392 9  -4663193.117 9  20174244.191    20174249.270       -1393.622
     -1073.450
 -19620428.050 9 -20941523.800 8  19957097.132    19957101.589        1530.215
      1196.825
 -13930011.276 8 -10998893.802 8  20207818.738    20207822.585        -622.056
      -469.495
 -40189178.503 9  28334996.930 8  21367217.106    21367221.733        2409.460
      1876.637
 88  3 24  5 13 32.0800000  0  4G 6G 9G11G13
  -5768064.901 9  -4630467.809 8  20182236.132    20182240.079       -1394.763
     -1101.834
 -19665814.991 9 -20976890.247 8  19948459.697    19948463.764        1508.373
      1175.343
 -13911166.437 7 -10984209.496 8  20211403.970    20211410.078        -631.083
      -492.710
 -40261206.794 9  28278871.009 7  21353510.921    21353515.122        2383.607
      1864.340
 88  3 24  5 14  2.0800000  0  4G 6G 9G11G13
  -5725509.622 9  -4597307.884 9  20190334.433    20190338.766       -1412.960
     -1113.367
 -19710707.321 9 -21011871.288 8  19939917.925    19939922.368        1494.131
      1170.161
 -13891879.946 8 -10969181.059 9  20215073.948    20215079.764        -640.628
      -509.263
 -40332812.156 9  28223074.641 8  21339883.777    21339889.975        2380.792
      1862.159
 88  3 24  5 14 32.0800000  0  4G 6G 9G11G13
  -5682395.310 9  -4563712.331 9  20198538.936    20198543.005       -1443.670
     -1127.311
 -19755101.215 9 -21046463.921 8  19931469.353    19931474.040        1457.529
      1161.872
 -13872152.195 9 -10953808.782 8  20218827.094    20218833.961        -641.792
      -511.972
 -40403992.284 8  28167609.622 8  21326338.470    21326344.699        2364.038
      1841.822
 88  3 24  5 15  2.0800000  0  4G 6G 9G11G13
  -5638722.093 9  -4529681.272 8  20206849.526    20206853.819       -1473.470
     -1137.048
 -19798994.096 9 -21080666.177 8  19923116.758    19923122.491        1456.787
      1143.821
 -13851984.755 8 -10938093.895 9  20222665.744    20222671.442        -676.688
      -523.269
 -40474746.201 8  28112476.731 8  21312875.272    21312880.861        2342.124
      1832.662
 88  3 24  5 15 32.0800000  0  4G 6G 9G11G13
  -5594491.393 9  -4495215.814 9  20215266.149    20215270.313       -1489.482
     -1153.713
 -19842384.443 8 -21114476.838 7  19914860.398    19914864.973        1433.550
      1110.155
 -13831380.340 8 -10922038.502 9  20226586.094    20226592.454        -701.297
      -538.226
 -40545074.072 8  28057675.817 8  21299491.873    21299497.839        2338.711
      1806.440
 88  3 24  5 16  2.0800000  0  4G 6G 9G11G13
  -5549702.823 9  -4460315.649 9  20223789.482    20223794.101       -1511.978
     -1163.916
 -19885269.006 9 -21147893.377 8  19906700.122    19906703.180        1433.391
      1109.732
 -13810340.300 9 -10905643.676 8  20230591.191    20230595.859        -698.187
      -550.467
 -40614974.113 9  28003208.272 9  21286190.745    21286196.277        2318.863
      1813.947
 88  3 24  5 16 32.0800000  0  4G 6G 9G11G13
  -5504356.337 9  -4424980.735 8  20232418.883    20232422.839       -1523.317
     -1194.662
 -19927645.060 9 -21180913.678 8  19898636.053    19898639.422        1394.372
      1092.414
 -13788866.213 9 -10888910.607 9  20234677.417    20234682.466        -736.631
      -559.185
 -40684445.082 9  27949075.070 7  21272969.593    21272975.899        2315.785
      1790.148
 88  3 24  5 17  2.0800000  0  4G 6G 9G11G13
  -5458452.744 9  -4389211.704 9  20241153.303    20241157.517       -1541.052
     -1205.331
 -19969510.471 9 -21213536.090 8  19890669.064    19890672.799        1383.678
      1075.929
 -13766960.562 9 -10871841.262 8  20238846.675    20238850.328        -730.491
      -584.537
 -40753487.068 9  27895276.135 8  21259833.391    21259838.297        2293.768
      1769.984
 88  3 24  5 17 32.0800000  0  4G 6G 9G11G13
  -5411992.559 9  -4353008.977 9  20249995.297    20249998.763       -1554.657
     -1208.401
 -20010863.157 9 -21245758.959 8  19882800.338    19882802.885        1375.648
      1067.242
 -13744625.062 8 -10854436.972 8  20243096.285    20243099.640        -748.019
      -573.694
 -40822099.020 8  27841812.301 9  21246776.352    21246781.857        2285.100
      1781.256
 88  3 24  5 18  2.0800000  0  4G 6G 9G11G13
  -5364976.383 9  -4316373.011 8  20258942.109    20258945.912       -1575.087
     -1240.234
 -20051700.900 8 -21277580.576 8  19875029.185    19875032.413        1367.267
      1052.062
 -13721862.269 8 -10836699.713 8  20247428.626    20247433.302        -778.624
      -594.554
 -40890280.459 8  27788683.927 7  21233800.595    21233806.318        2267.141
      1764.559
 88  3 24  5 18 32.0800000  0  4G 6G 9G11G13
  -5317404.124 9  -4279303.735 9  20267994.188    20267998.298       -1587.527
     -1235.785
 -20092020.616 9 -21308998.530 8  19867357.184    19867360.365        1328.568
      1038.976
 -13698673.697 8 -10818630.692 8  20251840.500    20251846.156        -754.645
      -602.973
 -40958030.240 8  27735891.894 8  21220908.331    21220914.601        2249.462
      1744.793
 88  3 24  5 19  2.0800000  0  4G 6G 9G11G13
  -5269276.114 8  -4241801.413 9  20277152.640    20277157.529       -1604.895
     -1258.285
 -20131819.734 8 -21340010.834 8  19859783.016    19859786.646        1329.525
      1026.492
 -13675060.639 8 -10800230.897 8  20256333.405    20256339.021        -799.150
      -622.590
 -41025347.371 9  27683437.032 8  21208099.249    21208104.033        2237.222
      1730.446
 88  3 24  5 19 32.0800000  0  4G 6G 9G11G13
  -5220592.975 8  -4203866.501 9  20286416.963    20286421.623       -1619.783
     -1273.366
 -20171095.949 8 -21370615.677 8  19852308.757    19852311.613        1301.814
      1020.129
 -13651025.472 9 -10781502.195 8  20260907.455    20260912.623        -814.907
      -631.059
 -41092231.566 9  27631319.477 8  21195370.842    21195377.069        2225.547
      1723.548
 88  3 24  5 20  2.0800000  0  4G 6G 9G11G13
  -5171355.461 9  -4165499.615 8  20295786.609    20295790.850       -1644.137
     -1280.468
 -20209847.276 9 -21400811.516 9  19844934.496    19844938.743        1283.154
      1010.635
 -13626570.730 9 -10762446.524 8  20265560.269    20265565.579        -828.209
      -634.117
 -41158682.467 8  27579539.585 8  21182725.928    21182731.958        2204.854
      1717.558
 88  3 24  5 20 32.0800000  0  4G 6G 9G11G13
  -5121564.114 9  -4126701.176 8  20305262.364    20305265.800       -1673.339
     -1298.874
 -20248071.077 9 -21430596.275 8  19837660.266    19837664.332        1284.334
       999.319
 -13601697.822 9 -10743065.042 9  20270294.654    20270298.954        -838.416
      -644.195
 -41224698.453 8  27528098.593 9  21170163.027    21170169.501        2201.728
      1714.986
 88  3 24  5 21  2.0800000  0  4G 6G 9G11G13
  -5071218.968 9  -4087471.202 9  20314842.190    20314846.176       -1682.932
     -1318.242
 -20285764.936 9 -21459968.118 8  19830487.143    19830491.437        1255.060
       974.098
 -13576408.373 8 -10723358.965 9  20275105.578    20275111.520        -827.427
      -661.060
 -41290278.914 8  27476996.960 8  21157685.188    21157689.178        2171.481
      1694.213
 88  3 24  5 21 32.0800000  0  4G 6G 9G11G13
  -5020320.407 9  -4047810.004 8  20324528.360    20324531.385       -1708.562
     -1333.111
 -20322925.934 8 -21488924.727 8  19823415.520    19823420.436        1219.032
       955.518
 -13550704.266 8 -10703329.789 8  20279998.307    20280001.877        -877.713
      -676.190
 -41355423.317 9  27426235.102 9  21145287.450    21145293.036        2156.936
      1695.649
 88  3 24  5 22  2.0800000  0  4G 6G 9G11G13
  -4968869.022 9  -4007718.028 8  20334318.923    20334322.674       -1718.809
     -1333.615
 -20359551.841 9 -21517464.384 8  19816445.425    19816451.178        1234.518
       942.948
 -13524587.389 8 -10682978.962 9  20284967.891    20284972.802        -872.761
      -679.191
 -41420130.492 9  27375813.937 8  21132975.133    21132979.474        2154.193
      1678.654
 88  3 24  5 22 32.0800000  0  4G 6G 9G11G13
  -4916866.964 9  -3967196.959 8  20344214.276    20344217.971       -1741.233
     -1354.804
 -20395642.004 8 -21545586.588 8  19809578.704    19809583.867        1194.335
       943.259
 -13498061.570 9 -10662309.475 9  20290015.592    20290020.464        -904.324
      -688.114
 -41484401.748 9  27325732.470 8  21120743.579    21120749.743        2147.287
      1661.914
 88  3 24  5 23  2.0800000  0  4G 6G 9G11G13
  -4864313.218 8  -3926246.005 9  20354214.155    20354218.748       -1769.526
     -1365.902
 -20431192.311 8 -21573288.129 8  19802813.921    19802817.823        1169.695
       920.293
 -13471126.975 9 -10641321.483 9  20295141.241    20295146.099        -907.386
      -688.773
 -41548234.337 9  27275992.821 8  21108598.008    21108601.497        2119.297
      1662.349
 88  3 24  5 23 32.0800000  0  4G 6G 9G11G13
  -4811206.698 9  -3884864.306 8  20364321.052    20364323.958       -1776.750
     -1377.490
 -20466200.308 8 -21600567.074 8  19796150.821    19796155.331        1168.562
       910.469
 -13443785.400 8 -10620016.346 8  20300344.990    20300348.646        -909.675
      -707.427
 -41611627.849 9  27226595.278 8  21096533.779    21096537.553        2115.748
      1649.704
 88  3 24  5 24  2.0800000  0  4G 6G 9G11G13
  -4757552.370 9  -3843055.763 9  20374529.999    20374535.258       -1792.763
     -1404.763
 -20500664.394 7 -21627422.196 9  19789591.681    19789597.034        1141.800
       889.814
 -13416039.502 8 -10598396.171 9  20305623.649    20305628.751        -928.119
      -731.549
 -41674582.372 8  27177539.820 8  21084554.491    21084558.434        2087.758
      1635.493
 88  3 24  5 24 32.0800000  0  4G 6G 9G11G13
  -4703348.272 9  -3800818.829 8  20384844.766    20384849.923       -1819.078
     -1419.092
 -20534582.372 8 -21653851.787 8  19783138.309    19783143.145        1133.220
       880.661
 -13387891.331 8 -10576462.530 9  20310980.736    20310985.037        -932.513
      -737.645
 -41737097.470 9  27128826.782 8  21072657.556    21072663.800        2067.479
      1593.904
 88  3 24  5 25  2.0800000  0  4G 6G 9G11G13
  -4648596.023 9  -3758154.746 8  20395263.347    20395267.757       -1840.920
     -1432.402
 -20567952.343 9 -21679854.376 9  19776788.368    19776793.586        1096.043
       862.212
 -13359343.312 8 -10554217.305 9  20316412.936    20316418.404        -954.714
      -741.118
 -41799172.810 8  27080456.421 8  21060844.486    21060849.883        2064.194
      1599.782
 88  3 24  5 25 32.0800000  0  4G 6G 9G11G13
  -4593295.345 9  -3715063.329 8  20405787.206    20405792.478       -1834.253
     -1432.631
 -20600770.939 8 -21705427.295 9  19770544.364    19770548.981        1081.083
       850.543
 -13330396.583 9 -10531661.416 9  20321920.700    20321926.708        -988.541
      -764.277
 -41860806.639 9  27032430.078 9  21049116.624    21049121.379        2035.215
      1600.230
 88  3 24  5 26  2.0800000  0  4G 6G 9G11G13
  -4537448.067 9  -3671545.995 9  20416415.251    20416419.320       -1887.187
     -1469.268
 -20633037.054 8 -21730569.717 9  19764403.226    19764408.337        1072.671
       818.710
 -13301054.292 9 -10508797.311 9  20327504.887    20327509.916        -981.635
      -757.473
 -41921999.635 9  26984747.251 8  21037471.889    21037477.414        2033.277
      1573.523
 88  3 24  5 26 32.0800000  0  4G 6G 9G11G13
  -4481053.505 9  -3627602.201 8  20427145.560    20427151.063       -1884.237
     -1474.015
 -20664747.109 8 -21755278.858 9  19758369.017    19758373.803        1041.515
       818.337
 -13271316.858 9 -10485625.275 9  20333163.532    20333168.563        -998.421
      -777.077
 -41982749.766 9  26937409.500 8  21025911.414    21025917.090        2029.147
      1567.955
 88  3 24  5 27  2.0800000  0  4G 6G 9G11G13
  -4424113.115 9  -3583233.076 9  20437981.286    20437986.009       -1908.933
     -1480.534
 -20695899.335 8 -21779553.313 8  19752441.075    19752446.231        1055.223
       805.586
 -13241186.924 8 -10462147.399 9  20338898.137    20338902.571       -1016.172
      -787.796
 -42043057.368 9  26890416.566 8  21014434.847    21014440.504        2009.530
      1565.501
 88  3 24  5 27 32.0800000  0  4G 6G 9G11G13
  -4366629.052 8  -3538440.303 8  20448920.659    20448923.974       -1924.140
     -1481.459
 -20726492.908 8 -21803392.457 8  19746619.812    19746623.159        1003.573
       795.147
 -13210667.774 9 -10438366.251 8  20344704.930    20344709.936       -1023.716
      -791.437
 -42102922.973 9  26843768.068 8  21003042.540    21003049.403        1975.144
      1549.724
 88  3 24  5 28  2.0800000  0  4G 6G 9G11G13
  -4308601.202 9  -3493223.807 8  20459963.085    20459967.953       -1936.868
     -1506.631
 -20756525.026 8 -21826794.107 8  19740905.285    19740908.452         995.854
       777.835
 -13179760.553 8 -10414282.700 9  20350586.968    20350591.143       -1038.684
      -804.244
 -42162345.285 9  26797464.997 9  20991734.450    20991740.108        1972.856
      1535.662
 88  3 24  5 28 32.0800000  0  4G 6G 9G11G13
  -4250030.189 9  -3447584.076 8  20471108.593    20471113.060       -1953.685
     -1518.158
 -20785993.092 8 -21849756.251 9  19735297.375    19735301.779         983.980
       758.647
 -13148467.247 8 -10389898.307 9  20356540.627    20356545.166       -1045.693
      -822.811
 -42221323.468 9  26751507.989 8  20980512.871    20980517.134        1967.034
      1530.809
 88  3 24  5 29  2.0800000  0  4G 6G 9G11G13
  -4190917.167 9  -3401522.005 8  20482357.517    20482361.079       -1988.549
     -1533.897
 -20814895.242 8 -21872277.407 9  19729797.503    19729801.645         944.674
       759.679
 -13116790.280 9 -10365214.953 9  20362569.040    20362574.057       -1060.438
      -818.505
 -42279857.539 9  26705897.033 8  20969373.672    20969378.737        1946.939
      1526.870
 88  3 24  5 29 32.0800000  0  4G 6G 9G11G13
  -4131262.496 9  -3355037.856 8  20493709.218    20493714.306       -2011.675
     -1544.585
 -20843228.817 8 -21894355.521 9  19724405.264    19724410.706         925.863
       742.379
 -13084731.048 9 -10340233.717 9  20368670.143    20368674.454       -1070.119
      -848.057
 -42337946.244 9  26660633.127 8  20958319.747    20958324.597        1927.649
      1498.877
 88  3 24  5 30  2.0800000  0  4G 6G 9G11G13
  -4071067.197 9  -3308132.445 8  20505164.020    20505168.241       -2023.142
     -1569.241
 -20870991.897 8 -21915989.087 8  19719122.676    19719126.653         903.431
       718.829
 -13052291.794 9 -10314956.377 8  20374843.296    20374847.472       -1090.796
      -845.174
 -42395589.587 9  26615716.253 9  20947349.763    20947355.885        1902.626
      1486.225
 88  3 24  5 30 32.0800000  0  4G 6G 9G11G13
  -4010333.682 9  -3260807.655 8  20516722.116    20516726.392       -2039.075
     -1575.256
 -20898183.863 8 -21937177.635 8  19713948.056    19713951.576         902.267
       699.983
 -13019475.852 9 -10289385.513 8  20381087.345    20381092.524       -1085.812
      -857.216
 -42452788.834 8  26571145.450 8  20936465.646    20936471.031        1893.918
      1490.631
 88  3 24  5 31  2.0800000  0  4G 6G 9G11G13
  -3949061.863 8  -3213063.396 8  20528381.102    20528385.091       -2034.577
     -1600.155
 -20924801.493 9 -21957918.656 7  19708883.702    19708886.448         872.084
       671.704
 -12986284.681 9 -10263522.272 8  20387404.073    20387407.749       -1112.606
      -851.288
 -42509542.485 9  26526921.846 9  20925667.284    20925670.878        1887.100
      1459.829
 88  3 24  5 31 32.0800000  0  4G 6G 9G11G13
  -3887252.463 9  -3164900.263 8  20540143.785    20540147.523       -2075.900
     -1611.856
 -20950842.543 9 -21978210.374 8  19703927.924    19703931.441         845.665
       668.684
 -12952719.824 9 -10237367.816 8  20393791.034    20393795.510       -1135.421
      -876.125
 -42565849.687 9  26483046.107 8  20914951.265    20914956.613        1874.069
      1447.426
 88  3 24  5 32  2.0800000  0  4G 6G 9G11G13
  -3824906.889 9  -3116319.306 8  20552007.086    20552011.441       -2082.687
     -1625.458
 -20976305.403 8 -21998051.575 8  19699082.798    19699086.426         829.756
       650.937
 -12918783.827 8 -10210924.182 8  20400248.264    20400253.151       -1126.673
      -878.076
 -42621710.757 8  26439518.014 8  20904321.376    20904326.041        1856.366
      1442.163
 88  3 24  5 32 32.0800000  0  4G 6G 9G11G13
  -3762025.804 9  -3067321.076 7  20563972.652    20563976.555       -2103.651
     -1653.221
 -21001187.666 7 -22017440.359 7  19694347.443    19694351.259         819.445
       644.817
 -12884478.109 9 -10184192.444 9  20406777.793    20406781.173       -1148.251
      -900.166
 -42677125.181 9  26396337.971 9  20893775.815    20893780.693        1844.572
      1435.477
 88  3 24  5 33  2.0800000  0  4G 6G 9G11G13
  -3698611.964 9  -3017907.708 9  20576039.853    20576044.713       -2113.906
     -1658.192
 -21025489.144 8 -22036376.571 8  19689723.319    19689727.554         801.989
       622.714
 -12849806.772 9 -10157175.816 8  20413375.099    20413379.752       -1160.636
      -892.219
 -42732093.720 9  26353505.367 8  20883315.999    20883320.549        1841.454
      1417.917
 88  3 24  5 33 32.0800000  0  4G 6G 9G11G13
  -3634664.668 9  -2968078.677 9  20588209.072    20588213.268       -2144.241
     -1668.302
 -21049205.873 9 -22054857.154 8  19685209.483    19685214.244         786.455
       623.410
 -12814770.211 8 -10129874.604 8  20420041.907    20420046.393       -1179.670
      -908.654
 -42786614.685 9  26311021.515 8  20872941.198    20872945.293        1807.101
      1414.326
 88  3 24  5 34  2.0800000  0  4G 6G 9G11G13
  -3570184.373 9  -2917834.299 9  20600479.967    20600483.165       -2151.529
     -1682.339
 -21072335.483 8 -22072880.229 8  19680808.656    19680811.952         749.334
       586.010
 -12779369.946 8 -10102289.982 8  20426778.221    20426783.104       -1196.576
      -930.023
 -42840686.802 9  26268887.414 8  20862650.965    20862655.117        1782.396
      1397.194
 88  3 24  5 34 32.0800000  0  4G 6G 9G11G13
  -3505173.388 9  -2867176.407 8  20612851.400    20612855.129       -2181.234
     -1680.990
 -21094877.102 8 -22090445.136 8  19676518.856    19676522.544         730.044
       578.541
 -12743609.005 9 -10074424.296 8  20433583.520    20433587.607       -1177.741
      -935.908
 -42894311.427 8  26227102.001 8  20852447.283    20852451.377        1769.677
      1384.027
 88  3 24  5 35  2.0800000  0  4G 6G 9G11G13
  -3439633.985 9  -2816106.754 8  20625323.191    20625326.073       -2189.407
     -1709.176
 -21116829.895 8 -22107551.197 8  19672342.108    19672344.973         743.920
       561.117
 -12707490.797 8 -10046280.225 8  20440456.400    20440460.828       -1208.115
      -945.315
 -42947489.372 9  26185664.668 9  20842326.422    20842332.987        1763.888
      1378.596
 88  3 24  5 35 32.0800000  0  4G 6G 9G11G13
  -3373566.739 9  -2764625.802 8  20637895.308    20637898.745       -2215.476
     -1723.642
 -21138191.629 8 -22124196.709 7  19668277.445    19668279.784         706.536
       555.450
 -12671017.089 8 -10017859.143 9  20447396.612    20447401.843       -1231.974
      -960.415
 -43000219.673 9  26144576.153 8  20832292.985    20832297.440        1753.673
      1367.337
 88  3 24  5 36  2.0800000  0  4G 6G 9G11G13
  -3306972.232 9  -2712733.998 8  20650566.689    20650572.121       -2221.672
     -1735.926
 -21158959.816 7 -22140379.713 8  19664323.807    19664327.626         674.718
       527.917
 -12634189.155 8  -9989162.044 8  20454404.496    20454410.292       -1222.788
      -961.999
 -43052501.771 8  26103836.867 7  20822343.408    20822349.078        1724.941
      1348.876
 88  3 24  5 36 32.0800000  0  4G 6G 9G11G13
  -3239851.725 9  -2660432.313 9  20663339.619    20663344.126       -2258.449
     -1748.609
 -21179132.607 8 -22156098.755 7  19660486.011    19660490.383         659.862
       501.254
 -12597009.137 8  -9960190.609 8  20461479.646    20461485.125       -1229.853
      -971.109
 -43104335.355 9  26063447.086 8  20812480.220    20812484.970        1726.217
      1343.221
 88  3 24  5 37  2.0800000  0  4G 6G 9G11G13
  -3172206.776 9  -2607721.975 9  20676212.207    20676216.146       -2256.392
     -1760.371
 -21198708.460 9 -22171352.692 8  19656760.744    19656764.411         652.342
       499.079
 -12559479.383 8  -9930946.639 8  20468621.783    20468626.528       -1254.837
      -977.826
 -43155720.422 8  26023406.798 9  20802702.461    20802706.199        1713.314
      1324.903
 88  3 24  5 37 32.0800000  0  4G 6G 9G11G13
  -3104039.082 9  -2554604.317 8  20689184.202    20689188.985       -2282.245
     -1776.738
 -21217685.865 7 -22186140.282 7  19653149.089    19653152.888         613.220
       485.439
 -12521602.713 9  -9901432.344 8  20475830.031    20475834.210       -1255.985
      -987.314
 -43206657.607 8  25983715.509 8  20793008.906    20793014.844        1684.607
      1311.730
 88  3 24  5 38  2.0800000  0  4G 6G 9G11G13
  -3035349.565 9  -2501080.026 8  20702254.817    20702259.162       -2287.851
     -1795.709
 -21236063.085 8 -22200460.184 9  19649651.058    19649656.694         612.343
       480.375
 -12483380.881 9  -9871649.093 9  20483102.937    20483107.912       -1285.123
      -996.865
 -43257146.187 8  25944373.767 8  20783401.378    20783405.540        1668.618
      1301.061
 88  3 24  5 38 32.0800000  0  4G 6G 9G11G13
  -2966139.396 9  -2447150.038 8  20715425.858    20715430.809       -2314.948
     -1795.641
 -21253838.133 8 -22214310.877 7  19646269.346    19646272.996         579.185
       461.647
 -12444815.810 9  -9841598.390 9  20490442.101    20490446.923       -1294.804
     -1000.811
 -43307186.320 9  25905381.482 8  20773879.136    20773883.354        1650.676
      1303.938
 88  3 24  5 39  2.0800000  0  4G 6G 9G11G13
  -2896410.110 9  -2392815.557 9  20728694.153    20728700.255       -2322.300
     -1815.500
 -21271009.198 7 -22227690.932 7  19643002.020    19643005.346         567.527
       465.002
 -12405909.960 9  -9811282.153 9  20497844.707    20497850.237       -1297.029
     -1008.976
 -43356777.825 9  25866738.758 8  20764442.717    20764447.248        1634.807
      1280.506
 88  3 24  5 39 32.0800000  0  4G 6G 9G11G13
  -2826162.569 8  -2338077.237 8  20742063.481    20742066.903       -2341.303
     -1817.022
 -21287574.446 9 -22240598.924 8  19639849.138    19639853.532         536.196
       433.971
 -12366665.089 9  -9780701.742 9  20505313.221    20505318.243       -1305.944
     -1030.718
 -43405920.050 8  25828446.143 8  20755089.354    20755097.321        1629.759
      1274.031
 88  3 24  5 40  2.0800000  0  4G 6G 9G11G13
  -2755398.549 9  -2282936.448 9  20755528.035    20755533.073       -2365.322
     -1839.554
 -21303532.437 7 -22253033.720 8  19636813.342    19636817.023         544.306
       398.285
 -12327083.616 9  -9749859.029 8  20512845.283    20512849.823       -1322.244
     -1035.912
 -43454613.213 9  25790503.434 9  20745824.252    20745829.720        1612.375
      1245.746
 88  3 24  5 40 32.0800000  0  4G 6G 9G11G13
  -2684119.972 9  -2227394.726 9  20769091.282    20769096.362       -2384.364
     -1849.036
 -21318882.129 7 -22264994.527 8  19633891.665    19633896.019         509.234
       387.908
 -12287168.592 9  -9718756.393 8  20520439.311    20520446.016       -1328.615
     -1051.770
 -43502858.674 9  25752909.597 8  20736643.843    20736648.506        1601.275
      1243.894
 88  3 24  5 41  2.0800000  0  4G 6G 9G11G13
  -2612328.167 9  -2171453.079 8  20782753.489    20782757.779       -2405.935
     -1855.119
 -21333621.797 7 -22276479.975 8  19631085.814    19631091.118         465.487
       382.104
 -12246921.457 9  -9687395.010 9  20528098.134    20528104.548       -1339.859
     -1049.297
 -43550655.699 9  25715665.184 8  20727548.427    20727553.842        1598.380
      1245.739
 88  3 24  5 41 32.0800000  0  4G 6G 9G11G13
  -2540024.259 8  -2115112.387 8  20796512.613    20796516.623       -2411.318
     -1875.376
 -21347749.629 8 -22287488.677 7  19628398.198    19628402.793         462.250
       368.620
 -12206344.465 9  -9655776.564 9  20535821.206    20535825.893       -1360.840
     -1059.761
 -43598004.051 8  25678770.382 7  20718537.872    20718543.084        1571.857
      1230.522
 88  3 24  5 42  2.0800000  0  4G 6G 9G11G13
  -2467209.662 8  -2058373.750 8  20810368.382    20810373.487       -2451.540
     -1897.770
 -21361263.869 6 -22298019.254 8  19625825.150    19625832.568         438.095
       355.298
 -12165439.710 8  -9623902.733 9  20543604.786    20543609.704       -1383.447
     -1073.102
 -43644903.997 9  25642224.975 9  20709613.330    20709618.697        1568.795
      1215.565
 88  3 24  5 42 32.0800000  0  4G 6G 9G11G13
  -2393885.999 8  -2001238.444 9  20824320.873    20824326.246       -2454.603
     -1916.592
 -21374163.260 7 -22308070.740 7  19623371.903    19623376.256         428.008
       331.866
 -12124209.733 9  -9591775.491 9  20551450.277    20551456.195       -1383.519
     -1075.438
 -43691355.251 9  25606029.207 8  20700773.406    20700780.128        1549.489
      1197.023
 88  3 24  5 43  2.0800000  0  4G 6G 9G11G13
  -2320055.198 8  -1943707.987 8  20838371.170    20838375.094       -2463.111
     -1916.424
 -21386446.612 8 -22317642.196 8  19621033.305    19621039.814         395.329
       303.668
 -12082656.854 8  -9559396.620 8  20559357.379    20559363.504       -1395.098
     -1079.086
 -43737358.272 9  25570182.715 9  20692020.277    20692024.779        1519.266
      1192.879
 88  3 24  5 43 32.0800000  0  4G 6G 9G11G13
  -2245718.150 8  -1885783.021 8  20852516.404    20852521.601       -2491.285
     -1938.334
 -21398111.747 7 -22326731.909 7  19618813.851    19618818.805         381.501
       298.516
 -12040782.759 9  -9526767.451 9  20567325.801    20567331.388       -1393.192
     -1087.698
 -43782913.188 9  25534685.397 8  20683352.191    20683356.574        1523.549
      1172.187
 88  3 24  5 44  2.0800000  0  4G 6G 9G11G13
  -2170876.246 9  -1827464.675 9  20866758.069    20866763.026       -2503.214
     -1951.128
 -21409157.032 6 -22335338.631 8  19616712.266    19616717.206         376.868
       294.229
 -11998589.414 8  -9493889.528 9  20575355.061    20575360.602       -1429.228
     -1100.716
 -43828019.563 9  25499537.589 9  20674767.806    20674773.362        1517.002
      1151.744
 88  3 24  5 44 32.0800000  0  4G 6G 9G11G13
  -2095531.544 9  -1768754.541 9  20881096.501    20881102.241       -2521.954
     -1957.050
 -21419581.490 7 -22343461.602 8  19614728.908    19614733.056         326.295
       265.726
 -11956079.594 8  -9460765.001 9  20583444.110    20583449.687       -1418.877
     -1103.518
 -43872677.874 9  25464738.920 8  20666269.710    20666274.807        1483.422
      1160.493
 88  3 24  5 45  2.0800000  0  4G 6G 9G11G13
  -2019686.130 9  -1709654.221 8  20895529.239    20895533.642       -2528.955
     -1981.340
 -21429384.344 7 -22351100.196 7  19612862.388    19612867.829         329.915
       228.611
 -11913256.097 9  -9427396.046 8  20591593.654    20591598.577       -1423.526
     -1117.822
 -43916888.296 9  25430289.263 8  20657856.578    20657861.503        1474.841
      1156.075
 88  3 24  5 45 32.0800000  0  4G 6G 9G11G13
  -1943341.065 9  -1650164.580 8  20910057.938    20910062.586       -2560.223
     -1979.774
 -21438563.669 7 -22358252.943 6  19611116.425    19611118.975         270.522
       235.291
 -11870120.487 9  -9393783.888 8  20599802.046    20599806.769       -1450.990
     -1120.762
 -43960651.038 9  25396188.450 9  20649529.766    20649534.651        1452.681
      1131.151
 88  3 24  5 46  2.0800000  0  4G 6G 9G11G13
  -1866497.301 9  -1590286.335 8  20924680.295    20924683.950       -2551.148
     -1992.114
 -21447117.410 7 -22364918.174 7  19609489.313    19609492.824         269.812
       223.025
 -11826674.463 9  -9359929.849 9  20608068.807    20608075.257       -1451.580
     -1129.486
 -44003966.196 9  25362436.397 8  20641286.139    20641290.488        1435.671
      1129.790
 88  3 24  5 46 32.0800000  0  4G 6G 9G11G13
  -1789157.039 8  -1530021.207 8  20939397.906    20939401.327       -2590.422
     -2008.718
 -21455044.656 6 -22371095.276 8  19607979.877    19607985.513         258.672
       202.892
 -11782920.567 9  -9325835.895 9  20616395.260    20616400.845       -1473.446
     -1133.307
 -44046834.158 9  25329032.826 8  20633128.997    20633133.778        1415.512
      1110.030
 88  3 24  5 47  2.0800000  0  4G 6G 9G11G13
  -1711322.574 9  -1469371.001 8  20954208.764    20954214.062       -2600.788
     -2026.452
 -21462344.816 7 -22376783.727 7  19606590.878    19606596.144         222.445
       210.877
 -11738861.498 9  -9291504.141 8  20624779.889    20624784.228       -1463.207
     -1146.940
 -44089255.516 9  25295977.234 8  20625056.718    20625061.079        1405.193
      1098.628
 88  3 24  5 47 32.0800000  0  4G 6G 9G11G13
  -1632996.010 9  -1408337.332 8  20969114.429    20969118.487       -2609.457
     -2044.136
 -21469017.150 7 -22381982.966 7  19605322.657    19605325.954         203.984
       165.883
 -11694500.122 9  -9256936.830 8  20633221.201    20633226.307       -1496.866
     -1160.331
 -44131230.733 9  25263269.290 9  20617068.690    20617073.695        1394.077
      1088.804
 88  3 24  5 48  2.0800000  0  4G 6G 9G11G13
  -1554177.857 9  -1346920.620 8  20984112.951    20984117.694       -2635.254
     -2056.657
 -21475058.953 7 -22386690.875 7  19604170.990    19604175.047         187.405
       158.619
 -11649836.982 8  -9222134.387 8  20641720.841    20641725.947       -1499.777
     -1160.841
 -44172759.023 9  25230909.592 9  20609165.889    20609171.269        1380.289
      1088.928
 88  3 24  5 48 32.0800000  0  4G 6G 9G11G13
  -1474870.132 9  -1285122.406 8  20999205.207    20999209.713       -2638.236
     -2073.894
 -21480469.695 6 -22390907.058 8  19603139.943    19603147.794         196.472
       134.125
 -11604875.252 9  -9187099.285 8  20650277.016    20650282.264       -1500.886
     -1184.695
 -44213840.901 9  25198897.765 9  20601347.581    20601353.327        1367.283
      1057.878
 88  3 24  5 49  2.0800000  0  4G 6G 9G11G13
  -1395074.708 9  -1222944.171 8  21014389.892    21014393.904       -2666.505
     -2081.282
 -21485247.715 7 -22394630.191 7  19602230.330    19602238.503         145.452
       121.467
 -11559616.777 9  -9151832.940 8  20658889.734    20658893.430       -1505.399
     -1179.954
 -44254477.057 8  25167233.246 7  20593615.025    20593620.101        1345.665
      1049.260
 88  3 24  5 49 32.0800000  0  4G 6G 9G11G13
  -1314794.262 9  -1160387.990 8  21029667.207    21029669.938       -2669.312
     -2097.308
 -21489393.231 7 -22397860.464 7  19601443.773    19601449.405         132.207
        83.780
 -11514064.735 9  -9116337.827 9  20667557.505    20667563.190       -1523.660
     -1194.575
 -44294668.444 9  25135915.306 9  20585967.200    20585972.352        1335.410
      1037.453
 88  3 24  5 50  2.0800000  0  4G 6G 9G11G13
  -1234030.198 9  -1097454.982 8  21045035.790    21045039.369       -2695.891
     -2095.481
 -21492904.442 7 -22400596.492 6  19600774.951    19600780.287         126.752
        82.774
 -11468221.219 9  -9080615.601 8  20676281.031    20676286.021       -1534.282
     -1193.910
 -44334414.709 9  25104944.216 9  20578403.153    20578409.513        1312.794
      1039.684
 88  3 24  5 50 32.0800000  0  4G 6G 9G11G13
  -1152783.156 9  -1034145.616 7  21060495.921    21060500.277       -2712.087
     -2117.260
 -21495779.224 7 -22402836.578 8  19600229.324    19600233.515          82.638
        75.497
 -11422087.125 8  -9044666.958 9  20685060.612    20685064.822       -1542.057
     -1207.637
 -44373715.314 8  25074320.365 9  20570924.485    20570931.005        1297.827
      1021.863
 88  3 24  5 51  2.0800000  0  4G 6G 9G11G13
  -1071055.258 9   -970461.569 8  21076048.086    21076052.498       -2727.294
     -2125.754
 -21498016.618 8 -22404580.011 7  19599802.915    19599806.853          63.205
        48.940
 -11375665.170 9  -9008493.999 8  20693894.382    20693899.475       -1564.306
     -1193.948
 -44412571.103 9  25044043.149 8  20563530.683    20563536.815        1282.013
       992.863
 88  3 24  5 51 32.0800000  0  4G 6G 9G11G13
   -988849.188 9   -906404.912 8  21091691.663    21091695.638       -2749.151
     -2127.780
 -21499616.601 7 -22405826.767 7  19599499.533    19599503.375          47.495
        33.704
 -11328958.056 8  -8972098.854 9  20702782.184    20702786.888       -1555.558
     -1225.396
 -44450983.359 9  25014111.550 9  20556221.781    20556226.491        1275.881
       999.301
 88  3 24  5 52  2.0800000  0  4G 6G 9G11G13
   -906166.653 9   -841976.985 8  21107425.292    21107430.675       -2757.397
     -2146.048
 -21500577.955 8 -22406575.881 7  19599315.834    19599319.228          31.682
        17.542
 -11281967.831 9  -8935483.093 9  20711724.422    20711729.086       -1571.132
     -1215.429
 -44488951.933 9  24984525.662 8  20548996.137    20549000.648        1254.294
       983.922
 88  3 24  5 52 32.0800000  0  4G 6G 9G11G13
   -823009.266 9   -777179.051 8  21123249.704    21123254.545       -2779.677
     -2165.106
 -21500899.225 8 -22406826.224 7  19599256.468    19599258.931         -15.933
        -3.318
 -11234696.526 9  -8898648.303 9  20720719.333    20720724.768       -1573.205
     -1236.406
 -44526477.417 8  24955285.043 8  20541856.942    20541859.804        1240.196
       976.968
 88  3 24  5 53  2.0800000  0  4G 6G 9G11G13
   -739378.383 9   -712012.142 8  21139164.229    21139169.246       -2780.538
     -2177.875
 -21500579.070 7 -22406576.772 7  19599317.233    19599320.896         -20.797
       -21.158
 -11187145.909 9  -8861595.875 9  20729767.549    20729774.364       -1591.737
     -1226.937
 -44563559.227 9  24926390.144 8  20534798.985    20534804.497        1237.166
       956.743
 88  3 24  5 53 32.0800000  0  4G 6G 9G11G13
   -655276.439 8   -646478.178 8  21155168.580    21155173.060       -2814.581
     -2187.749
 -21499616.946 7 -22405827.058 8  19599498.666    19599503.919         -41.602
       -24.308
 -11139318.658 9  -8824327.897 8  20738869.077    20738874.391       -1599.106
     -1248.735
 -44600198.096 9  24897840.411 8  20527825.417    20527832.452        1220.380
       938.412
 88  3 24  5 54  2.0800000  0  4G 6G 9G11G13
   -570706.083 9   -580579.224 8  21171262.253    21171265.990       -2830.402
     -2197.797
 -21498012.484 8 -22404576.845 8  19599804.645    19599808.484         -55.167
       -50.680
 -11091217.653 9  -8786846.596 8  20748022.199    20748028.154       -1589.074
     -1243.602
 -44636395.571 8  24869634.590 9  20520939.071    20520943.350        1196.911
       945.707
 88  3 24  5 54 32.0800000  0  4G 6G 9G11G13
   -485668.454 9   -514316.150 8  21187444.995    21187448.272       -2850.944
     -2212.064
 -21495764.403 8 -22402825.090 8  19600231.474    19600237.196         -74.281
       -70.688
 -11042844.489 9  -8749153.219 8  20757228.082    20757232.921       -1609.249
     -1260.833
 -44672151.391 8  24841772.934 8  20514134.029    20514139.096        1206.026
       928.967
 88  3 24  5 55  2.0800000  0  4G 6G 9G11G13
   -400165.035 9   -447690.129 9  21203714.883    21203720.067       -2862.092
     -2226.623
 -21492871.115 7 -22400570.587 7  19600781.909    19600786.939         -99.919
       -81.450
 -10994200.623 9  -8711248.921 9  20766484.478    20766489.443       -1633.890
     -1263.896
 -44707465.778 9  24814255.253 7  20507414.190    20507418.643        1170.053
       917.049
 88  3 24  5 55 32.0800000  0  4G 6G 9G11G13
   -314198.795 9   -380703.475 8  21220074.011    21220077.745       -2887.626
     -2238.833
 -21489332.728 8 -22397813.413 8  19601455.596    19601460.524        -139.448
       -96.488
 -10945289.439 9  -8673136.314 8  20775791.879    20775796.328       -1632.367
     -1267.960
 -44742340.199 9  24787080.397 8  20500777.015    20500783.717        1156.330
       899.911
 88  3 24  5 56  2.0800000  0  4G 6G 9G11G13
   -227771.956 8   -313357.888 9  21236520.238    21236523.935       -2876.550
     -2242.381
 -21485148.550 7 -22394553.029 8  19602252.928    19602257.293        -169.806
       -96.960
 -10896113.061 8  -8634817.051 8  20785150.179    20785154.725       -1644.009
     -1278.523
 -44776775.119 9  24760248.006 8  20494224.953    20494230.297        1142.183
       883.737
 88  3 24  5 56 32.0800000  0  4G 6G 9G11G13
   -140886.068 9   -245654.616 9  21253053.134    21253058.708       -2897.490
     -2262.849
 -21480317.596 8 -22390788.642 8  19603171.464    19603176.627        -160.659
      -129.495
 -10846673.333 8  -8596292.593 9  20794556.870    20794562.998       -1647.933
     -1290.833
 -44810770.748 9  24733757.910 8  20487755.682    20487759.834        1124.145
       880.394
 88  3 24  5 57  2.0800000  0  4G 6G 9G11G13
    -53543.536 9   -177595.507 9  21269674.557    21269680.215       -2911.406
     -2271.101
 -21474839.013 7 -22386519.649 8  19604213.919    19604218.305        -180.340
      -134.454
 -10796972.838 9  -8557564.927 8  20804014.494    20804020.648       -1650.453
     -1292.958
 -44844327.437 9  24707609.863 9  20481369.352    20481375.029        1116.737
       875.274
 88  3 24  5 57 32.0800000  0  4G 6G 9G11G13
     34253.631 9   -109182.147 9  21286382.336    21286386.399       -2938.048
     -2278.141
 -21468712.651 8 -22381745.872 8  19605380.702    19605383.400        -218.003
      -170.556
 -10747013.879 9  -8518635.881 9  20813522.187    20813528.004       -1664.671
     -1297.190
 -44877446.252 9  24681803.009 8  20475068.494    20475073.852        1107.718
       855.595
 88  3 24  5 58  2.0800000  0  4G 6G 9G11G13
    122503.696 9    -40415.894 9  21303175.060    21303180.647       -2938.207
     -2292.476
 -21461937.063 7 -22376466.190 7  19606669.717    19606673.220        -235.004
      -188.135
 -10696798.031 9  -8479506.642 9  20823078.355    20823083.723       -1686.146
     -1301.738
 -44910126.924 9  24656337.566 9  20468848.075    20468853.988        1080.796
       849.580
 88  3 24  5 58 32.0800000  0  4G 6G 9G11G13
    211205.141 9     28702.094 9  21320054.381    21320059.123       -2964.228
     -2313.939
 -21454511.157 7 -22370679.792 7  19608082.051    19608086.529        -241.862
      -194.386
 -10646327.117 9  -8440178.658 9  20832681.951    20832687.462       -1693.961
     -1307.480
 -44942369.853 9  24631213.205 8  20462713.459    20462719.288        1069.433
       847.119
 88  3 24  5 59  2.0800000  0  4G 6G 9G11G13
    300355.071 9     98169.555 8  21337018.356    21337023.674       -2965.145
     -2321.047
 -21446434.829 7 -22364386.551 7  19609620.848    19609623.482        -279.493
      -218.446
 -10595604.019 9  -8400654.175 9  20842334.383    20842339.873       -1696.146
     -1320.889
 -44974176.998 9  24606428.440 8  20456660.455    20456665.294        1048.102
       822.096
 88  3 24  5 59 32.0800000  0  4G 6G 9G11G13
    389950.744 9    167984.349 9  21354068.309    21354074.396       -2994.363
     -2337.309
 -21437708.550 8 -22357586.859 7  19611279.786    19611285.893        -303.265
      -243.002
 -10544631.502 9  -8360935.336 9  20852034.607    20852039.651       -1702.812
     -1327.059
 -45005549.016 9  24581982.727 8  20450690.276    20450695.862        1037.671
       805.978
 88  3 24  6  0  2.0800000  0  4G 6G 9G11G13
    479990.447 9    238145.151 8  21371201.938    21371207.766       -3009.091
     -2345.753
 -21428331.095 7 -22350279.778 8  19613065.198    19613068.916        -312.898
      -241.287
 -10493411.397 9  -8321023.575 9  20861781.347    20861787.083       -1708.657
     -1326.643
 -45036486.017 9  24557875.994 9  20444803.487    20444808.832        1026.706
       794.519
 88  3 24  6  0 32.0800000  0  4G 6G 9G11G13
    570472.253 9    308650.434 9  21388420.984    21388425.902       -3023.533
     -2364.451
 -21418301.521 7 -22342464.548 7  19614973.491    19614977.701        -363.583
      -283.050
 -10441945.842 9  -8280920.555 9  20871574.621    20871580.264       -1717.708
     -1341.612
 -45066988.938 9  24534107.506 8  20438999.431    20439003.935        1005.239
       787.653
 88  3 24  6  1  2.0800000  0  4G 6G 9G11G13
    661394.070 9    379498.573 8  21405722.075    21405728.289       -3044.091
     -2367.303
 -21407619.573 8 -22334140.949 8  19617004.887    19617010.030        -368.862
      -283.063
 -10390236.695 9  -8240627.707 9  20881414.364    20881420.529       -1710.699
     -1346.527
 -45097058.168 9  24510676.936 8  20433277.710    20433283.024        1007.664
       773.119
 88  3 24  6  1 32.0800000  0  4G 6G 9G11G13
    752753.715 9    450687.874 8  21423108.157    21423113.345       -3036.930
     -2373.019
 -21396284.555 7 -22325308.471 7  19619162.817    19619166.882        -392.905
      -296.646
 -10338286.160 9  -8200146.781 9  20891300.133    20891305.658       -1732.788
     -1357.066
 -45126694.075 9  24487584.049 9  20427637.721    20427642.414         990.495
       767.701
 88  3 24  6  2  2.0800000  0  4G 6G 9G11G13
    844548.059 9    522215.929 7  21440575.726    21440580.955       -3069.832
     -2395.805
 -21384296.871 7 -22315967.444 7  19621443.691    19621447.647        -417.657
      -311.410
 -10286097.183 9  -8159480.053 9  20901231.473    20901236.952       -1741.583
     -1359.893
 -45155898.373 9  24464827.467 9  20422081.505    20422085.467         971.404
       763.972
 88  3 24  6  2 32.0800000  0  4G 6G 9G11G13
    936775.150 9    594081.186 8  21458125.867    21458130.278       -3082.990
     -2397.999
 -21371655.806 7 -22306117.273 8  19623850.482    19623854.301        -436.253
      -336.998
 -10233671.717 9  -8118629.041 9  20911208.188    20911212.382       -1752.468
     -1360.781
 -45184671.707 9  24442406.703 8  20416604.831    20416609.333         942.896
       732.779
 88  3 24  6  3  2.0800000  0  4G 6G 9G11G13
   1029433.174 9    666282.222 8  21475758.025    21475762.923       -3088.604
     -2407.643
 -21358360.684 8 -22295757.430 7  19626379.719    19626384.739        -447.146
      -361.928
 -10181011.645 9  -8077595.215 9  20921228.106    20921234.647       -1760.539
     -1365.908
 -45213014.452 9  24420321.456 8  20411210.835    20411216.908         930.025
       739.067
 88  3 24  6  3 32.0800000  0  4G 6G 9G11G13
   1122520.442 9    738817.750 8  21493471.865    21493478.043       -3093.955
     -2424.047
 -21344410.489 6 -22284887.144 7  19629034.459    19629038.915        -482.449
      -369.335
 -10128118.476 9  -8036379.764 9  20931294.273    20931299.208       -1758.784
     -1371.183
 -45240926.698 9  24398571.658 8  20405899.719    20405905.023         927.290
       723.166
 88  3 24  6  4  2.0800000  0  4G 6G 9G11G13
   1216034.391 8    811685.752 8  21511266.617    21511271.972       -3127.168
     -2434.126
 -21329805.334 7 -22273506.526 8  19631812.117    19631817.999        -503.684
      -389.685
 -10074994.710 9  -7994984.625 8  20941403.332    20941408.156       -1775.140
     -1379.031
 -45268409.732 9  24377156.325 7  20400669.539    20400673.935         903.526
       712.504
 88  3 24  6  4 32.0800000  0  4G 6G 9G11G13
   1309971.732 9    884883.672 8  21529142.849    21529148.090       -3133.364
     -2440.110
 -21314545.595 7 -22261615.846 7  19634716.407    19634720.865        -528.500
      -386.914
 -10021643.759 9  -7953412.461 8  20951556.513    20951561.789       -1790.283
     -1379.497
 -45295465.124 8  24356074.216 9  20395521.269    20395526.359         893.670
       699.020
 88  3 24  6  5  2.0800000  0  4G 6G 9G11G13
   1404330.765 8    958410.173 8  21547099.148    21547102.794       -3159.488
     -2446.348
 -21298630.670 7 -22249214.606 7  19637745.957    19637750.372        -539.657
      -430.708
  -9968066.801 9  -7911664.185 8  20961751.249    20961756.673       -1783.058
     -1399.966
 -45322092.827 9  24335325.376 8  20390452.062    20390458.443         887.466
       680.018
 88  3 24  6  5 32.0800000  0  4G 6G 9G11G13
   1499108.803 9   1032263.175 8  21565134.222    21565139.608       -3163.786
     -2468.774
 -21282060.607 8 -22236302.871 8  19640899.849    19640901.812        -547.814
      -443.416
  -9914266.414 9  -7869741.807 9  20971989.209    20971994.806       -1808.281
     -1386.811
 -45348294.531 9  24314908.471 9  20385467.820    20385473.840         876.039
       667.920
 88  3 24  6  6  2.0800000  0  4G 6G 9G11G13
   1594303.880 9   1106441.135 9  21583249.030    21583255.117       -3167.773
     -2472.427
 -21264834.786 8 -22222880.172 7  19644176.541    19644181.771        -582.718
      -446.815
  -9860244.454 9  -7827646.771 9  20982268.489    20982273.670       -1788.241
     -1401.892
 -45374070.465 9  24294823.346 8  20380562.567    20380568.664         859.899
       660.128
 88  3 24  6  6 32.0800000  0  4G 6G 9G11G13
   1689913.948 8   1180942.472 8  21601442.701    21601449.444       -3191.824
     -2485.079
 -21246952.926 7 -22208946.276 7  19647579.245    19647584.457        -597.311
      -473.086
  -9806002.837 9  -7785380.580 8  20992591.103    20992595.483       -1810.163
     -1404.085
 -45399421.222 9  24275069.528 8  20375738.949    20375743.785         849.987
       650.788
 88  3 24  6  7  2.0800000  0  4G 6G 9G11G13
   1785936.131 9   1255764.926 8  21619716.008    21619720.632       -3213.785
     -2496.698
 -21228415.038 8 -22194501.177 7  19651107.049    19651110.808        -632.446
      -473.273
  -9751543.823 9  -7742944.986 9  21002953.055    21002958.905       -1804.549
     -1407.490
 -45424348.175 9  24255645.940 8  20370995.509    20371000.032         829.150
       636.795
 88  3 24  6  7 32.0800000  0  4G 6G 9G11G13
   1882368.366 8   1330906.902 9  21638066.863    21638071.469       -3232.023
     -2506.510
 -21209221.059 7 -22179544.840 7  19654760.664    19654763.094        -658.762
      -510.829
  -9696869.592 9  -7700341.705 9  21013358.012    21013363.370       -1817.858
     -1422.335
 -45448852.336 9  24236551.801 8  20366332.954    20366338.147         821.056
       646.681
 88  3 24  6  8  2.0800000  0  4G 6G 9G11G13
   1979208.315 9   1406366.595 8  21656495.181    21656499.205       -3241.999
     -2522.784
 -21189370.766 8 -22164077.107 7  19658537.710    19658542.268        -683.323
      -526.631
  -9641982.102 9  -7657572.236 9  21023802.312    21023807.642       -1816.351
     -1423.435
 -45472934.034 8  24217786.853 8  20361749.007    20361754.763         813.297
       625.393
 88  3 24  6  8 32.0800000  0  4G 6G 9G11G13
   2076453.505 9   1482142.056 8  21674999.689    21675004.629       -3248.553
     -2531.179
 -21168863.946 7 -22148097.769 7  19662440.046    19662444.605        -683.650
      -550.927
  -9586883.387 9  -7614638.169 9  21034287.804    21034292.006       -1833.480
     -1425.964
 -45496594.180 9  24199350.382 8  20357246.895    20357251.970         787.492
       597.014
 88  3 24  6  9  2.0800000  0  4G 6G 9G11G13
   2174101.187 9   1558231.149 9  21693582.226    21693585.952       -3252.828
     -2534.472
 -21147701.227 7 -22131607.371 7  19666467.256    19666470.722        -715.675
      -557.134
  -9531576.201 9  -7571541.666 9  21044813.503    21044818.018       -1850.122
     -1432.973
 -45519834.448 8  24181241.093 8  20352824.558    20352829.730         771.934
       599.767
 88  3 24  6  9 32.0800000  0  4G 6G 9G11G13
   2272148.333 9   1634631.485 8  21712238.788    21712244.084       -3274.853
     -2545.818
 -21125882.920 7 -22114606.107 7  19670619.120    19670621.580        -721.759
      -574.377
  -9476063.371 9  -7528284.919 8  21055376.720    21055381.563       -1854.014
     -1451.801
 -45542655.770 9  24163458.252 9  20348481.353    20348486.518         747.724
       587.060
 88  3 24  6 10  2.0800000  0  4G 6G 9G11G13
   2370593.429 8   1711341.926 9  21730972.205    21730978.035       -3286.296
     -2565.752
 -21103408.387 8 -22097093.518 6  19674896.611    19674899.581        -759.701
      -596.449
  -9420345.908 9  -7484868.727 9  21065979.309    21065984.737       -1868.846
     -1442.487
 -45565058.972 9  24146001.226 7  20344218.051    20344223.470         745.427
       582.691
 88  3 24  6 10 32.0800000  0  4G 6G 9G11G13
   2469434.252 9   1788360.726 9  21749781.408    21749786.351       -3289.701
     -2564.472
 -21080277.318 8 -22079069.319 7  19679296.885    19679300.813        -786.471
      -608.988
  -9364425.827 9  -7441294.647 9  21076620.559    21076625.434       -1857.578
     -1459.108
 -45587044.625 9  24128869.563 8  20340035.431    20340040.661         719.032
       556.892
 88  3 24  6 11  2.0800000  0  4G 6G 9G11G13
   2568668.085 9   1865685.768 8  21768664.010    21768670.083       -3308.297
     -2579.012
 -21056490.071 8 -22060533.807 7  19683823.000    19683826.628        -797.547
      -626.393
  -9308305.016 9  -7397564.151 9  21087299.168    21087304.850       -1867.459
     -1462.284
 -45608613.491 8  24112062.662 8  20335930.140    20335935.795         701.121
       558.601
 88  3 24  6 11 32.0800000  0  4G 6G 9G11G13
   2668291.244 9   1943314.178 9  21787623.098    21787627.301       -3336.375
     -2581.324
 -21032047.815 7 -22041487.916 7  19688475.009    19688478.467        -815.003
      -647.222
  -9251987.204 9  -7353680.143 8  21098016.552    21098021.385       -1884.843
     -1465.515
 -45629767.776 8  24095578.825 8  20331906.590    20331910.434         697.940
       525.661
 88  3 24  6 12  2.0800000  0  4G 6G 9G11G13
   2768301.815 9   2021244.471 9  21806654.280    21806658.443       -3342.428
     -2594.740
 -21006950.450 8 -22021931.539 7  19693251.438    19693254.511        -851.414
      -659.817
  -9195473.834 9  -7309643.756 9  21108770.164    21108775.394       -1889.532
     -1464.396
 -45650507.923 8  24079417.678 8  20327957.769    20327964.458         689.104
       535.777
 88  3 24  6 12 32.0800000  0  4G 6G 9G11G13
   2868698.631 9   2099475.733 8  21825759.526    21825763.682       -3360.657
     -2623.553
 -20981196.657 7 -22001863.673 7  19698151.703    19698155.527        -885.481
      -682.230
  -9138765.344 9  -7265455.324 9  21119562.206    21119567.249       -1891.804
     -1465.359
 -45670833.995 9  24063579.193 7  20324090.633    20324096.396         671.848
       524.139
 88  3 24  6 13  2.0800000  0  4G 6G 9G11G13
   2969477.875 9   2178005.002 8  21844936.891    21844941.258       -3369.333
     -2622.484
 -20954787.809 8 -21981285.351 6  19703177.654    19703181.412        -884.819
      -718.276
  -9081865.288 9  -7221117.626 8  21130389.869    21130394.872       -1894.053
     -1485.517
 -45690747.872 9  24048061.904 8  20320301.839    20320305.786         666.361
       522.523
 88  3 24  6 13 32.0800000  0  4G 6G 9G11G13
   3070637.297 9   2256830.502 8  21864186.782    21864190.750       -3379.524
     -2631.463
 -20927724.054 8 -21960196.722 7  19708327.087    19708330.801        -927.673
      -716.859
  -9024776.046 9  -7176632.513 9  21141253.022    21141258.206       -1896.493
     -1477.992
 -45710250.657 9  24032864.945 8  20316589.888    20316595.758         643.993
       513.967
 88  3 24  6 14  2.0800000  0  4G 6G 9G11G13
   3172173.749 9   2335949.792 8  21883508.723    21883512.733       -3396.366
     -2642.710
 -20900006.197 7 -21938598.420 8  19713600.738    19713605.849        -932.202
      -726.025
  -8967499.276 9  -7132001.270 9  21152152.909    21152157.731       -1905.728
     -1491.551
 -45729344.051 9  24017986.989 8  20312957.067    20312960.477         630.644
       503.814
 88  3 24  6 14 32.0800000  0  4G 6G 9G11G13
   3274085.805 9   2415361.756 8  21902902.138    21902906.373       -3411.470
     -2647.389
 -20871633.575 7 -21916489.897 7  19719001.243    19719005.759        -956.269
      -738.471
  -8910036.289 9  -7087224.926 9  21163087.651    21163092.803       -1914.284
     -1502.791
 -45748028.276 9  24003427.887 7  20309400.997    20309405.931         624.623
       489.640
 88  3 24  6 15  2.0800000  0  4G 6G 9G11G13
   3376370.088 9   2495063.771 9  21922365.936    21922370.416       -3421.836
     -2661.438
 -20842607.262 7 -21893871.986 7  19724524.233    19724530.254        -993.868
      -763.202
  -8852390.238 9  -7042305.925 9  21174057.895    21174062.932       -1929.108
     -1497.957
 -45766304.810 8  23989186.443 8  20305923.409    20305928.040         601.043
       466.332
 88  3 24  6 15 32.0800000  0  4G 6G 9G11G13
   3479023.480 9   2575053.408 9  21941899.208    21941904.805       -3437.394
     -2672.294
 -20812927.923 8 -21870745.238 8  19730171.434    19730176.892       -1016.451
      -778.438
  -8794563.446 9  -6997246.112 9  21185061.086    21185067.414       -1927.872
     -1500.648
 -45784175.290 9  23975261.404 8  20302521.869    20302527.204         587.838
       460.665
 88  3 24  6 16  2.0800000  0  4G 6G 9G11G13
   3582044.942 9   2655329.851 8  21961504.608    21961509.398       -3421.964
     -2681.751
 -20782594.843 8 -21847109.084 7  19735945.810    19735947.893       -1017.281
      -803.200
  -8736556.896 8  -6952046.214 9  21196099.849    21196104.748       -1949.084
     -1504.202
 -45801639.736 9  23961652.742 9  20299199.036    20299204.255         574.257
       451.369
 88  3 24  6 16 32.0800000  0  4G 6G 9G11G13
   3685430.950 9   2735890.344 9  21981177.808    21981183.914       -3456.724
     -2691.687
 -20751609.103 8 -21822964.354 8  19741841.118    19741844.920       -1050.127
      -799.217
  -8678372.786 9  -6906707.950 9  21207172.730    21207177.058       -1944.212
     -1506.060
 -45818699.518 9  23948359.426 8  20295953.088    20295958.541         567.017
       435.108
 88  3 24  6 17  2.0800000  0  4G 6G 9G11G13
   3789178.241 9   2816732.369 8  22000920.260    22000926.225       -3473.765
     -2698.336
 -20719971.767 7 -21798311.902 7  19747861.423    19747866.032       -1084.815
      -826.924
  -8620013.861 9  -6861233.470 9  21218277.578    21218282.382       -1947.123
     -1512.677
 -45835357.049 9  23935379.551 9  20292783.256    20292787.544         540.932
       428.235
 88  3 24  6 17 32.0800000  0  4G 6G 9G11G13
   3893284.926 9   2897854.448 9  22020730.974    22020736.427       -3472.840
     -2698.062
 -20687682.624 8 -21773151.542 7  19754005.063    19754010.375       -1087.096
      -847.486
  -8561481.763 9  -6815624.052 9  21229416.411    21229420.375       -1948.590
     -1528.467
 -45851612.279 8  23922713.154 7  20289690.030    20289694.144         541.762
       403.759
 88  3 24  6 18  2.0800000  0  4G 6G 9G11G13
   3997749.163 9   2979255.132 9  22040609.947    22040615.248       -3491.341
     -2703.021
 -20654741.668 8 -21747483.284 8  19760274.180    19760278.326       -1119.376
      -851.462
  -8502777.923 9  -6769880.802 9  21240586.923    21240590.908       -1967.760
     -1525.559
 -45867465.666 8  23910359.882 8  20286673.185    20286677.937         532.368
       408.103
 88  3 24  6 18 32.0800000  0  4G 6G 9G11G13
   4102567.792 9   3060931.976 9  22060557.141    22060561.136       -3490.129
     -2726.640
 -20621149.605 7 -21721307.657 7  19766666.549    19766671.422       -1124.201
      -871.719
  -8443904.439 9  -6724005.361 8  21251789.086    21251794.479       -1959.044
     -1530.082
 -45882918.641 9  23898318.627 8  20283731.653    20283737.033         518.804
       400.429
 88  3 24  6 19  2.0800000  0  4G 6G 9G11G13
   4207737.513 9   3142882.391 8  22080570.101    22080575.005       -3510.168
     -2730.567
 -20586908.061 7 -21694625.958 8  19773182.958    19773186.762       -1162.876
      -895.574
  -8384864.260 9  -6678000.043 8  21263024.343    21263029.877       -1971.731
     -1532.288
 -45897973.231 9  23886587.786 9  20280867.465    20280872.459         492.424
       380.663
 88  3 24  6 19 32.0800000  0  4G 6G 9G11G13
   4313255.515 9   3225104.188 9  22100649.182    22100655.426       -3525.136
     -2748.754
 -20552017.636 7 -21667438.640 7  19779821.752    19779827.038       -1159.487
      -897.320
  -8325659.479 9  -6631866.454 9  21274290.895    21274296.036       -1973.940
     -1539.651
 -45912631.582 9  23875165.708 8  20278077.602    20278083.563         490.630
       392.090
 88  3 24  6 20  2.0800000  0  4G 6G 9G11G13
   4419119.597 9   3307595.657 9  22120794.900    22120799.137       -3534.944
     -2747.338
 -20516478.509 8 -21639745.819 8  19786586.193    19786588.299       -1195.236
      -921.666
  -8266291.403 9  -6585605.635 8  21285588.221    21285594.370       -1977.002
     -1551.818
 -45926893.687 9  23864052.394 9  20275364.084    20275368.349         481.244
       367.726
 88  3 24  6 20 32.0800000  0  4G 6G 9G11G13
   4525327.470 9   3390355.023 9  22141005.469    22141010.061       -3537.129
     -2767.806
 -20480290.827 8 -21611547.635 8  19793471.619    19793475.532       -1211.967
      -948.690
  -8206761.904 9  -6539219.007 8  21296916.132    21296921.419       -1980.950
     -1535.004
 -45940760.360 8  23853247.194 9  20272725.035    20272730.258         454.809
       346.015
 88  3 24  6 21  2.0800000  0  4G 6G 9G11G13
   4631877.097 9   3473380.697 9  22161281.485    22161285.411       -3553.341
     -2773.299
 -20443454.774 8 -21582844.243 8  19800480.571    19800484.538       -1245.738
      -972.327
  -8147072.011 9  -6492707.408 9  21308274.990    21308280.497       -1990.575
     -1552.756
 -45954232.489 9  23842749.445 8  20270161.416    20270166.968         441.668
       340.870
 88  3 24  6 21 32.0800000  0  4G 6G 9G11G13
   4738764.085 9   3556669.239 9  22181621.785    22181626.203       -3571.403
     -2778.021
 -20405972.879 8 -21553637.582 7  19807613.559    19807617.249       -1254.454
      -993.019
  -8087225.533 9  -6446073.805 9  21319663.073    21319668.784       -1994.857
     -1547.636
 -45967312.753 8  23832557.028 8  20267672.187    20267676.305         443.263
       345.822
 88  3 24  6 22  2.0800000  0  4G 6G 9G11G13
   4845985.304 9   3640218.227 9  22202025.420    22202029.818       -3572.169
     -2786.627
 -20367845.949 8 -21523928.309 7  19814869.195    19814873.023       -1279.230
     -1001.706
  -8027224.617 9  -6399319.850 9  21331081.627    21331087.261       -2005.854
     -1561.300
 -45980002.753 9  23822668.732 8  20265256.815    20265263.011         415.903
       320.998
 88  3 24  6 22 32.0800000  0  4G 6G 9G11G13
   4953539.066 9   3724026.323 9  22222491.087    22222496.297       -3583.763
     -2800.888
 -20329073.881 7 -21493716.329 7  19822246.795    19822251.229       -1300.099
     -1028.064
  -7967070.334 9  -6352446.401 9  21342527.672    21342533.340       -2014.163
     -1561.754
 -45992302.440 9  23813084.573 8  20262917.347    20262922.316         415.998
       312.951
 88  3 24  6 23  2.0800000  0  4G 6G 9G11G13
   5061422.754 9   3808091.510 8  22243021.527    22243025.924       -3582.703
     -2796.725
 -20289657.526 8 -21463002.289 7  19829747.993    19829751.068       -1340.569
     -1041.772
  -7906764.644 9  -6305454.965 9  21354003.591    21354009.532       -2006.284
     -1577.139
 -46004213.448 9  23803803.285 8  20260649.492    20260655.079         385.161
       311.901
 88  3 24  6 23 32.0800000  0  4G 6G 9G11G13
   5169634.128 9   3892412.056 8  22263613.721    22263617.954       -3611.203
     -2808.916
 -20249597.099 7 -21431786.398 6  19837370.707    19837374.126       -1341.670
     -1042.835
  -7846309.000 9  -6258346.678 9  21365508.163    21365513.796       -2029.522
     -1577.431
 -46015736.799 9  23794824.057 8  20258458.257    20258462.120         365.457
       281.764
 88  3 24  6 24  2.0800000  0  4G 6G 9G11G13
   5278169.960 8   3976985.414 9  22284267.512    22284271.167       -3612.822
     -2816.460
 -20208894.133 8 -21400069.803 8  19845116.434    19845121.070       -1366.342
     -1071.020
  -7785705.689 9  -6211123.334 9  21377040.026    21377046.186       -2022.129
     -1580.600
 -46026873.750 9  23786145.917 8  20256338.126    20256343.468         378.431
       280.378
 88  3 24  6 24 32.0800000  0  4G 6G 9G11G13
   5387027.574 8   4061809.509 8  22304982.065    22304986.650       -3630.581
     -2830.901
 -20167549.182 8 -21367852.969 8  19852983.656    19852987.907       -1397.522
     -1078.868
  -7724956.599 9  -6163786.391 9  21388601.143    21388606.165       -2026.986
     -1569.005
 -46037626.021 9  23777767.542 8  20254292.971    20254297.105         357.124
       275.917
 88  3 24  6 25  2.0800000  0  4G 6G 9G11G13
   5496203.393 8   4146881.567 9  22325757.498    22325762.035       -3635.294
     -2840.899
 -20125564.260 7 -21335137.471 8  19860972.523    19860976.823       -1405.385
     -1088.313
  -7664064.169 9  -6116337.744 9  21400187.417    21400193.042       -2023.860
     -1585.174
 -46047995.648 9  23769687.314 9  20252319.476    20252322.919         341.717
       274.022
 88  3 24  6 25 32.0800000  0  4G 6G 9G11G13
   5605694.921 9   4232199.621 9  22346592.974    22346598.001       -3648.914
     -2849.759
 -20082939.874 8 -21301923.684 8  19869083.657    19869088.901       -1442.370
     -1100.430
  -7603030.452 8  -6068779.001 9  21411802.714    21411807.663       -2046.188
     -1597.955
 -46057983.502 9  23761904.586 8  20250418.811    20250423.085         323.560
       258.599
 88  3 24  6 26  2.0800000  0  4G 6G 9G11G13
   5715499.634 9   4317761.725 9  22367487.475    22367493.069       -3667.933
     -2852.183
 -20039676.911 8 -21268212.291 8  19877317.640    19877320.734       -1444.387
     -1136.122
  -7541857.189 9  -6021111.530 8  21423443.233    21423448.680       -2038.245
     -1602.491
 -46067590.793 8  23754418.397 9  20248590.969    20248595.031         313.839
       244.009
 88  3 24  6 26 32.0800000  0  4G 6G 9G11G13
   5825614.840 9   4403565.761 9  22388441.589    22388447.510       -3659.352
     -2868.003
 -19995776.335 7 -21234004.069 7  19885671.958    19885675.825       -1467.321
     -1151.582
  -7480545.986 9  -5973336.568 8  21435110.656    21435116.707       -2044.473
     -1594.233
 -46076818.655 9  23747227.862 8  20246833.691    20246839.606         308.966
       226.082
 88  3 24  6 27  2.0800000  0  4G 6G 9G11G13
   5936037.374 9   4489609.260 9  22409454.686    22409459.963       -3688.379
     -2871.141
 -19951239.573 8 -21199300.114 8  19894146.503    19894150.470       -1495.750
     -1164.563
  -7419098.860 9  -5925455.699 9  21446804.314    21446809.124       -2059.968
     -1598.676
 -46085668.834 9  23740331.625 8  20245150.200    20245155.033         283.616
       224.678
 88  3 24  6 27 32.0800000  0  4G 6G 9G11G13
   6046765.737 9   4575891.078 9  22430525.853    22430531.634       -3700.699
     -2876.684
 -19906066.308 7 -21164100.179 8  19902741.902    19902747.385       -1518.533
     -1173.995
  -7357516.476 8  -5877469.433 9  21458522.192    21458527.513       -2062.567
     -1595.793
 -46094141.166 8  23733729.823 8  20243536.931    20243542.439         280.490
       219.713
 88  3 24  6 28  2.0800000  0  4G 6G 9G11G13
   6157796.930 9   4662408.865 9  22451654.411    22451659.362       -3709.463
     -2882.630
 -19860257.900 8 -21128405.337 8  19911459.653    19911464.048       -1545.319
     -1186.733
  -7295800.998 9  -5829379.466 9  21470267.168    21470270.956       -2054.194
     -1582.881
 -46102237.063 9  23727421.334 8  20241996.800    20242002.341         271.128
       200.289
 88  3 24  6 28 32.0800000  0  4G 6G 9G11G13
   6269126.537 9   4749159.194 9  22472839.625    22472844.944       -3725.101
     -2899.526
 -19813816.965 8 -21092217.609 7  19920297.219    19920301.175       -1547.017
     -1208.270
  -7233955.726 9  -5781188.347 9  21482035.251    21482040.499       -2054.992
     -1613.036
 -46109960.075 9  23721403.412 8  20240528.183    20240533.461         250.068
       198.431
 88  3 24  6 29  2.0800000  0  4G 6G 9G11G13
   6380751.767 9   4836139.877 9  22494081.531    22494087.146       -3718.554
     -2902.328
 -19766744.773 8 -21055537.984 8  19929255.108    19929259.655       -1577.934
     -1217.175
  -7171982.725 9  -5732897.698 8  21493828.824    21493833.275       -2069.345
     -1606.369
 -46117311.654 9  23715674.921 8  20239127.838    20239133.843         229.917
       188.470
 88  3 24  6 29 32.0800000  0  4G 6G 9G11G13
   6492670.035 9   4923348.900 9  22515379.078    22515383.632       -3729.136
     -2910.797
 -19719042.058 8 -21018367.056 8  19938332.574    19938337.065       -1598.563
     -1242.850
  -7109883.178 9  -5684508.465 9  21505646.108    21505650.506       -2074.170
     -1601.472
 -46124292.369 9  23710235.401 8  20237800.305    20237806.289         230.507
       172.420
 88  3 24  6 30  2.0800000  0  4G 6G 9G11G13
   6604879.836 8   5010785.081 8  22536731.108    22536736.461       -3735.627
     -2919.752
 -19670709.098 8 -20980705.025 8  19947529.580    19947534.834       -1622.909
     -1253.967
  -7047657.815 9  -5636021.182 8  21517485.704    21517491.466       -2071.267
     -1623.500
 -46130902.598 9  23705084.588 8  20236542.421    20236547.905         219.502
       159.228
 88  3 24  6 30 32.0800000  0  4G 6G 9G11G13
   6717377.516 8   5098445.581 9  22558138.333    22558144.728       -3738.322
     -2926.338
 -19621747.607 8 -20942553.213 7  19956846.223    19956851.701       -1647.949
     -1280.475
  -6985309.472 8  -5587438.065 9  21529351.944    21529356.814       -2091.012
     -1615.217
 -46137144.544 8  23700220.741 8  20235355.556    20235359.542         181.696
       153.909
 88  3 24  6 31  2.0800000  0  4G 6G 9G11G13
   6830159.878 8   5186327.923 9  22579600.914    22579606.163       -3767.229
     -2930.178
 -19572159.398 8 -20903913.081 7  19966283.326    19966288.843       -1663.395
     -1299.706
  -6922840.377 9  -5538760.862 8  21541239.342    21541242.771       -2081.004
     -1618.007
 -46143019.980 9  23695642.492 9  20234235.802    20234241.351         194.239
       155.220
 88  3 24  6 31 32.0800000  0  4G 6G 9G11G13
   6943223.481 8   5274429.395 9  22601114.567    22601121.026       -3777.492
     -2944.687
 -19521946.477 7 -20864786.144 7  19975838.972    19975843.185       -1696.106
     -1316.595
  -6860252.399 8  -5489991.020 8  21553149.625    21553153.227       -2080.518
     -1617.709
 -46148530.596 9  23691348.520 9  20233187.597    20233192.330         181.425
       146.900
 88  3 24  6 32  2.0800000  0  4G 6G 9G11G13
   7056565.873 8   5362748.107 9  22622684.724    22622690.015       -3775.028
     -2939.524
 -19471109.605 8 -20825173.023 8  19985511.752    19985517.837       -1695.986
     -1321.889
  -6797547.299 9  -5441129.895 8  21565081.977    21565086.073       -2092.096
     -1629.652
 -46153678.105 9  23687337.487 9  20232208.694    20232213.428         174.200
       136.548
 88  3 24  6 32 32.0800000  0  4G 6G 9G11G13
   7170184.494 8   5451282.085 9  22644304.327    22644311.078       -3774.590
     -2953.760
 -19419649.658 8 -20785074.380 8  19995305.083    19995309.173       -1721.672
     -1346.459
  -6734726.524 9  -5392178.655 8  21577035.842    21577040.164       -2086.690
     -1635.064
 -46158463.460 8  23683608.661 8  20231298.270    20231302.839         141.473
       123.387
 88  3 24  6 33  2.0800000  0  4G 6G 9G11G13
   7284077.280 8   5540029.689 9  22665977.486    22665984.634       -3792.341
     -2953.660
 -19367567.555 8 -20744490.934 8  20005216.131    20005219.759       -1752.628
     -1369.083
  -6671790.659 9  -5343137.730 9  21589011.108    21589016.565       -2074.991
     -1629.099
 -46162887.073 9  23680161.716 9  20230455.926    20230460.158         139.942
       112.556
 88  3 24  6 33 32.0800000  0  4G 6G 9G11G13
   7398241.228 9   5628988.580 9  22687702.801    22687708.811       -3805.514
     -2958.662
 -19314864.715 8 -20703423.801 8  20015244.371    20015248.704       -1762.325
     -1378.801
  -6608742.167 9  -5294009.037 8  21601009.234    21601014.756       -2116.530
     -1635.157
 -46166950.262 8  23676995.615 8  20229682.802    20229687.445         122.247
       107.579
 88  3 24  6 34  2.0800000  0  4G 6G 9G11G13
   7512672.599 8   5718155.870 9  22709477.997    22709483.380       -3820.825
     -2967.585
 -19261543.309 8 -20661874.686 9  20025390.641    20025396.301       -1785.522
     -1394.398
  -6545583.362 8  -5244794.399 9  21613028.615    21613033.431       -2116.984
     -1643.055
 -46170655.698 9  23674108.280 9  20228976.968    20228982.423         121.346
        84.514
 88  3 24  6 34 32.0800000  0  4G 6G 9G11G13
   7627368.039 8   5807528.928 9  22731303.571    22731310.411       -3821.040
     -2968.660
 -19207605.627 8 -20619845.322 8  20035655.532    20035660.109       -1800.937
     -1411.803
  -6482316.460 9  -5195495.529 8  21625068.306    21625073.196       -2103.882
     -1635.946
 -46174005.430 9  23671498.106 8  20228339.690    20228345.325         103.738
        87.614
 88  3 24  6 35  2.0800000  0  4G 6G 9G11G13
   7742325.137 9   5897105.864 9  22753179.403    22753185.313       -3832.404
     -2978.484
 -19153052.213 7 -20577336.179 8  20046037.363    20046040.494       -1823.121
     -1426.604
  -6418942.770 9  -5146113.445 8  21637127.673    21637132.313       -2109.026
     -1641.713
 -46177000.070 9  23669164.638 8  20227770.303    20227775.213          84.353
        56.309
 88  3 24  6 35 32.0800000  0  4G 6G 9G11G13
   7857541.091 9   5986884.523 9  22775104.903    22775110.833       -3841.415
     -2996.063
 -19097884.960 7 -20534348.731 8  20056534.864    20056539.636       -1836.821
     -1443.450
  -6355463.821 8  -5096649.348 9  21649206.318    21649212.401       -2121.466
     -1648.579
 -46179641.302 8  23667106.533 9  20227266.838    20227272.363          87.678
        64.306
 88  3 24  6 36  2.0800000  0  4G 6G 9G11G13
   7973012.350 8   6076862.105 9  22797078.742    22797084.095       -3839.940
     -3000.742
 -19042105.764 8 -20490884.441 8  20067149.633    20067153.681       -1874.859
     -1457.412
  -6291881.868 7  -5047104.982 9  21661305.478    21661311.667       -2135.142
     -1653.780
 -46181931.608 8  23665321.884 9  20226831.770    20226837.094          67.168
        44.770
 88  3 24  6 36 32.0800000  0  4G 6G 9G11G13
   8088736.761 8   6167036.944 9  22819101.222    22819106.152       -3861.957
     -3010.815
 -18985715.338 9 -20446943.874 9  20077878.975    20077885.056       -1874.747
     -1483.920
  -6228197.922 9  -4997481.146 9  21673424.721    21673429.812       -2128.093
     -1661.243
 -46183871.136 9  23663810.559 8  20226463.074    20226467.522          61.777
        48.859
 88  3 24  6 37  2.0800000  0  4G 6G 9G11G13
   8204711.853 9   6257407.126 9  22841169.651    22841174.803       -3865.705
     -3003.221
 -18928715.030 8 -20402528.060 8  20088726.519    20088731.268       -1901.693
     -1495.155
  -6164413.662 9  -4947779.132 8  21685562.493    21685567.828       -2134.663
     -1652.053
 -46185461.172 9  23662571.582 8  20226159.697    20226164.572          45.382
        43.422
 88  3 24  6 37 32.0800000  0  4G 6G 9G11G13
   8320933.918 8   6347969.738 8  22863285.491    22863291.090       -3866.933
     -3017.973
 -18871107.307 8 -20357638.954 8  20099688.543    20099693.369       -1914.882
     -1509.316
  -6100531.446 8  -4898000.792 8  21697718.931    21697724.691       -2139.472
     -1658.478
 -46186704.167 9  23661603.029 8  20225923.087    20225928.250          40.231
        33.138
 88  3 24  6 38  2.0800000  0  4G 6G 9G11G13
   8437400.500 7   6438722.895 9  22885448.072    22885454.229       -3879.022
     -3027.132
 -18812893.484 7 -20312277.551 7  20110766.558    20110770.764       -1931.485
     -1520.271
  -6036552.396 9  -4848147.000 9  21709893.809    21709899.152       -2137.845
     -1672.303
 -46187601.328 9  23660903.962 9  20225753.030    20225757.072          36.132
         6.891
 88  3 24  6 38 32.0800000  0  4G 6G 9G11G13
   8554108.607 8   6529664.268 9  22907657.767    22907662.353       -3900.832
     -3039.765
 -18754075.014 8 -20266444.998 7  20121959.972    20121962.445       -1971.572
     -1523.968
  -5972477.953 9  -4798218.877 9  21722086.611    21722092.242       -2129.959
     -1664.928
 -46188153.378 9  23660473.792 9  20225648.533    20225653.069          26.244
        17.529
 88  3 24  6 39  2.0800000  0  4G 6G 9G11G13
   8671054.575 8   6620790.964 9  22929911.247    22929917.303       -3889.891
     -3036.353
 -18694654.393 8 -20220143.232 7  20133267.148    20133270.532       -1997.305
     -1550.948
  -5908310.734 9  -4748218.462 8  21734297.020    21734303.156       -2132.606
     -1666.574
 -46188363.500 9  23660310.070 9  20225607.645    20225611.895           7.528
         4.586
 88  3 24  6 39 32.0800000  0  4G 6G 9G11G13
   8788235.579 9   6712100.812 9  22952209.743    22952215.370       -3902.929
     -3047.650
 -18634633.283 8 -20173373.555 8  20144688.132    20144692.796       -1998.445
     -1571.081
  -5844052.192 8  -4698146.884 8  21746524.499    21746530.234       -2133.595
     -1679.611
 -46188232.471 8  23660412.189 8  20225632.700    20225637.686         -21.890
        -3.523
 88  3 24  6 40  2.0800000  0  4G 6G 9G11G13
   8905648.368 8   6803591.269 9  22974552.839    22974558.432       -3915.537
     -3045.202
 -18574013.777 9 -20126137.588 7  20156224.625    20156226.955       -2040.973
     -1586.771
  -5779704.340 9  -4648005.704 9  21758770.854    21758775.584       -2156.545
     -1671.570
 -46187762.706 9  23660778.252 8  20225721.445    20225727.210         -19.832
       -17.498
 88  3 24  6 40 32.0800000  0  4G 6G 9G11G13
   9023290.691 8   6895260.594 8  22996940.246    22996945.261       -3913.479
     -3067.851
 -18512797.042 9 -20078436.267 8  20167873.134    20167877.387       -2051.555
     -1588.001
  -5715268.050 9  -4597795.629 9  21771031.337    21771037.714       -2134.951
     -1672.999
 -46186955.257 9  23661407.441 8  20225875.727    20225880.664         -27.727
       -25.296
 88  3 24  6 41  2.0800000  0  4G 6G 9G11G13
   9141159.834 9   6987106.659 8  23019370.558    23019375.087       -3939.444
     -3070.995
 -18450984.634 9 -20030270.768 8  20179636.495    20179640.227       -2063.365
     -1603.790
  -5650744.821 9  -4547517.800 8  21783310.621    21783316.317       -2149.934
     -1684.060
 -46185810.588 9  23662299.397 8  20226093.307    20226099.514         -56.036
       -39.234
 88  3 24  6 41 32.0800000  0  4G 6G 9G11G13
   9259252.363 9   7079126.806 9  23041841.247    23041847.246       -3933.822
     -3070.399
 -18388578.734 9 -19981642.821 8  20191511.282    20191515.411       -2089.505
     -1629.186
  -5586136.358 9  -4497173.559 9  21795605.242    21795610.119       -2162.215
     -1688.105
 -46184331.017 9  23663452.319 8  20226375.883    20226380.458         -61.809
       -41.881
 88  3 24  6 42  2.0800000  0  4G 6G 9G11G13
   9377564.175 9   7171317.795 8  23064355.851    23064361.056       -3938.830
     -3082.975
 -18325582.454 9 -19932554.834 8  20203498.764    20203503.933       -2111.626
     -1645.280
  -5521445.843 8  -4446765.374 8  21807915.400    21807920.481       -2152.008
     -1655.433
 -46182519.702 9  23664863.735 9  20226719.762    20226724.820         -68.428
       -43.186
 88  3 24  6 42 32.0800000  0  4G 6G 9G11G13
   9496093.060 9   7263677.933 9  23086910.915    23086916.308       -3956.325
     -3096.198
 -18261996.869 9 -19883007.643 7  20215597.886    20215603.360       -2132.494
     -1656.054
  -5456674.052 8  -4396293.853 9  21820241.591    21820246.330       -2156.928
     -1680.114
 -46180377.140 8  23666533.270 9  20227127.098    20227132.950         -67.224
       -53.992
 88  3 24  6 43  2.0800000  0  4G 6G 9G11G13
   9614837.137 9   7356205.757 8  23109507.097    23109513.022       -3958.207
     -3074.419
 -18197822.706 9 -19833001.818 7  20227811.703    20227815.798       -2146.043
     -1671.670
  -5391821.488 9  -4345759.397 9  21832581.464    21832587.492       -2162.566
     -1685.116
 -46177903.800 8  23668460.541 8  20227598.455    20227603.241         -84.799
       -81.587
 88  3 24  6 43 32.0800000  0  4G 6G 9G11G13
   9733793.791 8   7448899.234 9  23132145.333    23132149.490       -3959.603
     -3086.101
 -18133061.658 9 -19782538.684 7  20240134.919    20240139.062       -2160.413
     -1694.642
  -5326889.192 8  -4295162.823 9  21844939.115    21844943.764       -2148.427
     -1678.542
 -46175101.014 9  23670644.532 8  20228130.671    20228136.715         -93.579
       -87.161
 88  3 24  6 44  2.0800000  0  4G 6G 9G11G13
   9852958.450 8   7541754.802 8  23154821.977    23154826.025       -3974.124
     -3091.886
 -18067717.517 8 -19731621.185 8  20252569.972    20252573.466       -2189.208
     -1705.522
  -5261880.482 9  -4244506.694 9  21857308.922    21857314.363       -2165.636
     -1688.385
 -46171972.120 8  23673082.640 8  20228726.322    20228732.007        -101.936
       -95.618
 88  3 24  6 44 32.0800000  0  4G 6G 9G11G13
   9972328.043 9   7634770.050 8  23177535.693    23177541.486       -3976.859
     -3091.861
 -18001792.139 9 -19680250.795 8  20265113.984    20265119.191       -2208.713
     -1717.596
  -5196797.143 9  -4193792.418 9  21869694.351    21869700.592       -2184.790
     -1682.028
 -46168518.498 9  23675773.780 8  20229383.824    20229389.047        -110.206
       -91.479
 88  3 24  6 45  2.0800000  0  4G 6G 9G11G13
  10091899.977 9   7727942.967 8  23200289.584    23200294.906       -3977.497
     -3110.875
 -17935287.151 9 -19628428.744 9  20277769.449    20277774.590       -2238.777
     -1735.703
  -5131640.122 9  -4143020.724 9  21882093.507    21882098.581       -2177.813
     -1688.142
 -46164741.455 8  23678716.947 8  20230102.303    20230107.534        -131.545
       -91.952
 88  3 24  6 45 32.0800000  0  4G 6G 9G11G13
  10211671.202 8   7821271.159 9  23223081.600    23223087.139       -3987.242
     -3114.703
 -17868204.789 9 -19576156.785 8  20290534.882    20290541.029       -2234.622
     -1745.744
  -5066410.893 9  -4092192.744 9  21894505.693    21894511.318       -2180.963
     -1694.928
 -46160643.035 9  23681910.518 9  20230882.317    20230887.438        -143.634
      -114.122
 88  3 24  6 46  2.0800000  0  4G 6G 9G11G13
  10331639.470 9   7914752.910 9  23245911.062    23245916.005       -4000.798
     -3123.042
 -17800546.004 9 -19523435.652 8  20303410.771    20303414.880       -2260.977
     -1761.049
  -5001110.513 9  -4041309.335 9  21906932.613    21906937.091       -2184.998
     -1691.436
 -46156224.101 9  23685353.873 8  20231724.234    20231728.786        -150.851
      -123.567
 88  3 24  6 46 32.0800000  0  4G 6G 9G11G13
  10451802.178 9   8008386.170 8  23268777.304    23268781.645       -4008.629
     -3125.993
 -17732312.754 9 -19470266.901 8  20316394.948    20316400.312       -2293.887
     -1776.005
  -4935740.097 9  -3990371.340 8  21919370.972    21919377.626       -2161.768
     -1691.436
 -46151485.309 9  23689046.449 7  20232625.610    20232631.030        -157.669
      -121.399
 88  3 24  6 47  2.0800000  0  4G 6G 9G11G13
  10572154.821 9   8102167.429 8  23291679.237    23291685.153       -4000.798
     -3120.407
 -17663508.857 8 -19416653.502 8  20329487.968    20329492.244       -2311.822
     -1798.574
  -4870302.531 9  -3939381.050 9  21931823.415    21931828.720       -2189.208
     -1690.149
 -46146430.089 9  23692985.599 8  20233587.711    20233591.972        -173.514
      -133.522
 88  3 24  6 47 32.0800000  0  4G 6G 9G11G13
  10692694.598 9   8196094.502 9  23314616.985    23314622.414       -4016.691
     -3133.437
 -17594135.961 8 -19362596.714 8  20342687.737    20342695.061       -2327.842
     -1810.964
  -4804799.298 9  -3888339.590 9  21944289.023    21944294.047       -2204.112
     -1696.525
 -46141059.626 9  23697170.382 8  20234610.563    20234613.628        -187.764
      -122.604
 88  3 24  6 48  2.0800000  0  4G 6G 9G11G13
  10813420.332 9   8290166.478 8  23337590.153    23337596.434       -4020.702
     -3126.062
 -17524194.692 9 -19308097.036 8  20355997.190    20356002.691       -2338.392
     -1815.606
  -4739230.180 9  -3837246.787 9  21956766.359    21956771.435       -2182.191
     -1712.612
 -46135374.021 9  23701600.749 9  20235692.032    20235696.610        -188.665
      -152.325
 88  3 24  6 48 32.0800000  0  4G 6G 9G11G13
  10934327.862 8   8384380.100 8  23360598.449    23360604.442       -4037.632
     -3140.391
 -17453688.013 8 -19253156.793 8  20369415.867    20369420.505       -2364.405
     -1824.901
  -4673597.379 9  -3786104.361 8  21969255.332    21969259.961       -2190.946
     -1698.619
 -46129376.449 9  23706274.173 9  20236833.111    20236837.700        -215.555
      -162.435
 88  3 24  6 49  2.0800000  0  4G 6G 9G11G13
  11055413.375 8   8478732.409 9  23383640.401    23383645.990       -4027.321
     -3138.881
 -17382619.125 7 -19197778.430 7  20382939.907    20382944.774       -2376.733
     -1851.670
  -4607903.462 8  -3734914.315 8  21981756.958    21981761.327       -2179.232
     -1697.805
 -46123069.063 8  23711189.024 7  20238032.329    20238038.402        -205.005
      -173.862
 88  3 24  6 49 32.0800000  0  4G 6G 9G11G13
  11176673.923 9   8573221.119 9  23406715.882    23406720.381       -4051.627
     -3159.063
 -17310990.182 8 -19141963.697 8  20396569.926    20396573.960       -2380.529
     -1862.290
  -4542149.648 9  -3683677.585 8  21994269.544    21994274.176       -2199.583
     -1696.487
 -46116453.018 9  23716344.398 9  20239291.085    20239297.105        -221.863
      -168.027
 88  3 24  6 50  2.0800000  0  4G 6G 9G11G13
  11298107.568 9   8667844.714 9  23429823.900    23429828.687       -4046.802
     -3155.136
 -17238802.370 8 -19085713.461 8  20410305.710    20410311.374       -2417.705
     -1881.285
  -4476336.477 9  -3632394.616 9  22006792.696    22006798.644       -2187.669
     -1714.625
 -46109529.094 9  23721739.670 9  20240609.398    20240615.576        -236.495
      -179.286
 88  3 24  6 50 32.0800000  0  4G 6G 9G11G13
  11419711.943 9   8762601.342 9  23452965.245    23452970.493       -4052.121
     -3163.742
 -17166057.286 8 -19029028.993 8  20424148.402    20424154.075       -2427.585
     -1893.247
  -4410464.583 8  -3581065.890 9  22019328.227    22019333.589       -2200.994
     -1708.002
 -46102298.461 9  23727373.933 9  20241985.252    20241990.102        -247.564
      -190.658
 88  3 24  6 51  2.0800000  0  4G 6G 9G11G13
  11541482.386 9   8857487.392 9  23476137.136    23476142.035       -4060.112
     -3170.037
 -17092758.787 9 -18971913.297 8  20438097.146    20438102.788       -2459.762
     -1905.295
  -4344537.315 8  -3529694.011 9  22031873.243    22031879.098       -2179.774
     -1709.499
 -46094764.617 9  23733244.468 8  20243419.079    20243425.102        -259.525
      -204.912
 88  3 24  6 51 32.0800000  0  4G 6G 9G11G13
  11663415.528 9   8952500.230 8  23499339.540    23499345.562       -4055.399
     -3170.092
 -17018909.724 8 -18914368.588 8  20452151.040    20452156.430       -2477.130
     -1911.615
  -4278556.343 9  -3478280.275 9  22044429.744    22044435.307       -2212.397
     -1707.610
 -46086929.363 9  23739349.865 8  20244909.608    20244914.555        -271.463
      -205.210
 88  3 24  6 52  2.0800000  0  4G 6G 9G11G13
  11785508.634 9   9047637.697 8  23522574.261    23522578.402       -4069.490
     -3164.705
 -16944512.150 8 -18856396.466 8  20466308.339    20466312.381       -2497.808
     -1933.500
  -4212522.686 8  -3426825.489 9  22056995.507    22057000.703       -2216.680
     -1720.000
 -46078793.838 8  23745689.244 8  20246457.987    20246463.021        -274.150
      -210.728
 88  3 24  6 52 32.0800000  0  4G 6G 9G11G13
  11907760.049 9   9142898.529 8  23545837.071    23545842.818       -4080.151
     -3178.960
 -16869566.916 9 -18797997.604 8  20480570.318    20480574.637       -2515.192
     -1956.360
  -4146436.600 9  -3375329.834 9  22069572.251    22069576.472       -2208.051
     -1705.156
 -46070359.049 8  23752261.818 8  20248062.378    20248068.068        -285.769
      -217.986
 88  3 24  6 53  2.0800000  0  4G 6G 9G11G13
  12030167.268 8   9238280.754 9  23569129.998    23569135.052       -4080.327
     -3181.781
 -16794075.836 8 -18739173.403 8  20494935.027    20494940.215       -2525.399
     -1970.049
  -4080298.570 8  -3323793.721 9  22082157.918    22082161.764       -2206.090
     -1709.406
 -46061625.430 9  23759067.241 9  20249724.952    20249729.809        -309.445
      -230.451
 88  3 24  6 53 32.0800000  0  4G 6G 9G11G13
  12152725.590 9   9333780.724 8  23592452.048    23592457.480       -4102.503
     -3184.247
 -16718042.975 8 -18679927.025 8  20509403.247    20509408.817       -2534.394
     -1985.229
  -4014111.947 9  -3272219.736 9  22094751.779    22094757.138       -2208.961
     -1727.960
 -46052596.436 9  23766102.819 9  20251443.144    20251448.547        -304.054
      -226.871
 88  3 24  6 54  2.0800000  0  3G 9G11G13
 -16641472.077 8 -18620261.411 8  20523974.409    20523978.839       -2565.438
     -2003.268
  -3947879.155 9  -3220609.787 9  22107356.026    22107361.605       -2210.300
     -1728.917
 -46043274.414 9  23773366.739 8  20253216.960    20253222.043        -299.014
      -244.481
 88  3 24  6 54 32.0800000  0  4G 3G 9G11G13
 -86878778.908 9   9710328.902 8                                      2131.872
     -3185.409
 -16564364.585 8 -18560177.657 9  20538647.695    20538652.449       -2581.929
     -2014.130
  -3881600.725 8  -3168964.284 9  22119968.135    22119972.692       -2201.473
     -1721.908
 -46033661.182 9  23780857.575 9  20255047.049    20255051.655        -324.277
      -253.988
 88  3 24  6 55  2.0800000  0  4G 3G 9G11G13
 -86941248.036 9 110098763.604 9  22621696.196    22621700.276        2085.900
      1626.564
 -16486721.388 9 -18499676.489 7  20553423.749    20553427.339       -2594.090
     -2010.644
  -3815276.170 9  -3117282.818 9  22132588.894    22132593.899       -2201.648
     -1716.651
 -46023756.393 9  23788575.606 7  20256931.374    20256936.668        -332.738
      -263.079
 88  3 24  6 55 32.0800000  0  4G 3G 9G11G13
 -87003481.604 9 110050269.927 9  22609853.018    22609858.212        2073.899
      1614.565
 -16408545.705 9 -18438760.404 8  20568300.078    20568303.118       -2616.354
     -2046.609
  -3748907.783 8  -3065567.202 9  22145218.794    22145224.104       -2208.466
     -1723.101
 -46013562.753 9  23796518.700 8  20258871.406    20258876.629        -343.160
      -272.089
 88  3 24  6 56  2.0800000  0  4G 3G 9G11G13
 -87065481.774 8 110001958.124 9  22598054.401    22598059.993        2061.164
      1603.020
 -16329840.236 9 -18377431.489 7  20583276.726    20583281.231       -2628.093
     -2041.694
  -3682497.066 9  -3013818.583 9  22157855.642    22157861.734       -2216.082
     -1726.780
 -46003081.631 9  23804685.811 7  20260864.982    20260871.050        -348.033
      -276.321
 88  3 24  6 56 32.0800000  0  4G 3G 9G11G13
 -87127248.646 9 109953828.125 9  22586300.487    22586305.987        2061.220
      1611.837
 -16250607.331 9 -18315691.583 8  20598354.158    20598358.510       -2644.313
     -2056.719
  -3616045.313 9  -2962038.013 9  22170500.859    22170506.891       -2212.876
     -1729.383
 -45992314.964 9  23813075.436 7  20262914.669    20262919.563        -368.487
      -292.327
 88  3 24  6 57  2.0800000  0  4G 3G 9G11G13
 -87188783.054 9 109905879.265 8  22574591.244    22574596.207        2046.619
      1591.661
 -16170850.119 9 -18253543.125 7  20613532.317    20613536.110       -2662.749
     -2072.086
  -3549554.590 9  -2910227.075 9  22183154.051    22183159.661       -2219.431
     -1716.390
 -45981264.611 9  23821686.099 9  20265017.163    20265021.666        -366.007
      -280.900
 88  3 24  6 57 32.0800000  0  4G 3G 9G11G13
 -87250085.908 9 109858110.811 9  22562926.481    22562930.848        2051.770
      1582.769
 -16090571.473 9 -18190988.351 8  20628808.344    20628811.991       -2682.390
     -2097.444
  -3483026.309 8  -2858386.874 9  22195814.398    22195819.690       -2208.929
     -1728.544
 -45969933.042 9  23830515.899 8  20267173.984    20267178.920        -399.172
      -285.648
 88  3 24  6 58  2.0800000  0  4G 3G 9G11G13
 -87311156.758 8 109810523.146 8  22551303.529    22551309.851        2048.971
      1576.070
 -16009773.198 8 -18128028.684 7  20644182.672    20644187.390       -2690.468
     -2096.717
  -3416460.986 8  -2806517.791 9  22208481.228    22208486.825       -2210.252
     -1733.267
 -45958320.525 8  23839564.617 9  20269382.148    20269387.606        -392.936
      -294.291
 88  3 24  6 58 32.0800000  0  4G 3G 9G11G13
 -87371995.340 9 109763116.505 8  22539727.698    22539732.187        2031.380
      1578.792
 -15928457.461 8 -18064665.798 8  20659657.528    20659661.757       -2716.289
     -2109.785
  -3349859.270 9  -2754620.362 8  22221155.312    22221159.906       -2214.774
     -1721.659
 -45946428.539 9  23848831.112 9  20271646.532    20271651.410        -396.732
      -311.522
 88  3 24  6 59  2.0800000  0  4G 3G 9G11G13
 -87432602.534 8 109715890.135 8  22528193.081    22528199.764        2019.554
      1574.244
 -15846627.514 9 -18000902.212 7  20675229.545    20675232.359       -2730.499
     -2128.159
  -3283223.244 9  -2702696.203 9  22233834.576    22233839.896       -2209.734
     -1731.030
 -45934259.592 9  23858313.416 8  20273961.468    20273966.755        -396.030
      -326.099
 88  3 24  6 59 32.0800000  0  4G 3G 9G11G13
 -87492978.643 9 109668843.836 8  22516704.859    22516709.938        2004.426
      1564.413
 -15764286.226 8 -17936740.194 9  20690898.171    20690902.835       -2745.340
     -2147.322
  -3216554.217 8  -2650746.330 9  22246522.304    22246526.999       -2234.478
     -1735.342
 -45921815.763 9  23868009.907 9  20276330.461    20276334.885        -430.543
      -311.118
 88  3 24  7  0  2.0800000  0  4G 3G 9G11G13
 -87553123.196 9 109621977.965 9  22505258.878    22505264.447        2006.787
      1547.332
 -15681435.159 9 -17872180.956 8  20706664.830    20706668.815       -2766.209
     -2148.248
  -3149852.454 8  -2598770.955 9  22259215.730    22259219.953       -2225.308
     -1736.106
 -45909097.312 9  23877920.406 9  20278750.227    20278754.780        -415.839
      -334.407
 88  3 24  7  0 32.0800000  0  4G 3G 9G11G13
 -87613036.700 9 109575292.139 8  22493855.343    22493863.527        2002.130
      1560.965
 -15598077.507 9 -17807226.939 8  20722527.080    20722531.940       -2787.660
     -2172.463
  -3083119.642 9  -2546771.389 9  22271914.396    22271918.576       -2214.463
     -1728.432
 -45896107.065 9  23888042.694 9  20281222.280    20281227.054        -429.738
      -328.305
 88  3 24  7  1  2.0800000  0  4G 3G 9G11G13
 -87672720.854 8 109528785.033 8  22482500.035    22482506.165        1980.312
      1548.643
 -15514216.771 9 -17741880.935 8  20738485.118    20738488.888       -2813.959
     -2186.227
  -3016358.058 9  -2494749.377 9  22284618.980    22284623.103       -2219.527
     -1732.142
 -45882847.013 9  23898375.219 8  20283746.231    20283750.657        -458.789
      -343.846
 88  3 24  7  1 32.0800000  0  4G 3G 9G11G13
 -87732174.970 9 109482457.171 9  22471187.083    22471193.000        1981.675
      1535.463
 -15429855.049 9 -17676144.539 8  20754538.883    20754542.893       -2815.339
     -2194.454
  -2949567.876 9  -2442705.098 9  22297327.655    22297332.980       -2228.490
     -1739.673
 -45869318.375 9  23908917.026 8  20286320.427    20286325.252        -458.446
      -364.675
 88  3 24  7  2  2.0800000  0  4G 3G 9G11G13
 -87791398.547 8 109436308.969 9  22459915.491    22459923.065        1962.338
      1534.612
 -15344993.890 9 -17610018.986 8  20770687.636    20770691.320       -2828.680
     -2213.971
  -2882749.491 9  -2390638.832 9  22310042.068    22310048.791       -2225.659
     -1741.593
 -45855521.551 8  23919667.804 9  20288946.492    20288950.699        -466.835
      -369.789
 88  3 24  7  2 32.0800000  0  4G 3G 9G11G13
 -87850392.997 9 109390339.287 8  22448690.168    22448695.368        1978.238
      1529.511
 -15259637.967 8 -17543507.897 9  20786929.554    20786934.658       -2850.362
     -2221.204
  -2815906.142 9  -2338553.130 9  22322762.848    22322768.096       -2233.992
     -1724.835
 -45841459.899 8  23930624.937 8  20291620.920    20291626.101        -454.809
      -358.181
 88  3 24  7  3  2.0800000  0  4G 3G 9G11G13
 -87909158.993 8 109344547.619 9  22437508.047    22437512.652        1961.444
      1525.590
 -15173789.585 9 -17476613.072 9  20803266.138    20803270.564       -2871.127
     -2224.988
  -2749038.351 8  -2286448.371 8  22335487.232    22335493.057       -2238.226
     -1729.010
 -45827135.026 9  23941787.177 8  20294346.821    20294351.480        -482.744
      -368.434
 88  3 24  7  3 32.0800000  0  4G 3G 9G11G13
 -87967695.427 8 109298934.832 8  22426368.391    22426375.196        1954.363
      1512.218
 -15087450.381 9 -17409335.784 8  20819695.953    20819700.304       -2884.604
     -2245.966
  -2682146.252 8  -2234324.668 9  22348215.787    22348221.912       -2237.030
     -1727.948
 -45812547.223 9  23953154.304 7  20297123.355    20297127.742        -485.782
      -370.950
 88  3 24  7  4  2.0800000  0  4G 3G 9G11G13
 -88026003.738 8 109253499.819 8  22415271.141    22415278.623        1967.505
      1512.336
 -15000623.920 9 -17341678.821 8  20836218.161    20836221.649       -2902.482
     -2273.686
  -2615231.914 9  -2182183.653 9  22360949.733    22360954.807       -2209.878
     -1736.454
 -45797699.412 9  23964724.034 7  20299948.340    20299953.770        -499.522
      -375.300
 88  3 24  7  4 32.0800000  0  4G 3G 9G11G13
 -88084084.542 8 109208242.079 8  22404219.583    22404225.222        1933.590
      1506.868
 -14913313.198 9 -17273644.505 6  20852832.962    20852838.712       -2928.216
     -2270.691
  -2548296.456 9  -2130026.162 8  22373687.183    22373692.293       -2223.889
     -1744.961
 -45782593.359 9  23976494.984 8  20302824.288    20302827.877        -501.786
      -387.367
 88  3 24  7  5  2.0800000  0  4G 3G 9G11G13
 -88141938.194 8 109163161.344 9  22393210.613    22393216.404        1937.107
      1503.854
 -14825521.227 9 -17205235.201 9  20869538.568    20869544.463       -2936.310
     -2277.165
  -2481341.124 8  -2077853.174 9  22386428.346    22386432.787       -2240.108
     -1731.633
 -45767231.149 9  23988465.542 8  20305746.441    20305750.834        -510.853
      -399.615
 88  3 24  7  5 32.0800000  0  4G 3G 9G11G13
 -88199564.755 9 109118257.561 9  22382245.002    22382250.713        1906.134
      1488.239
 -14737250.537 8 -17136452.856 7  20886336.565    20886342.047       -2941.820
     -2289.811
  -2414366.837 9  -2025665.426 9  22399172.736    22399178.165       -2226.703
     -1733.049
 -45751613.474 9  24000635.168 8  20308717.820    20308722.704        -517.958
      -415.684
 88  3 24  7  6  2.0800000  0  4G 3G 9G11G13
 -88256963.826 8 109073531.030 9  22371321.626    22371328.623        1915.504
      1493.856
 -14648503.768 9 -17067299.548 8  20903225.002    20903229.895       -2957.115
     -2309.235
  -2347374.676 8  -1973463.751 9  22411920.817    22411926.957       -2238.131
     -1737.741
 -45735742.350 9  24013002.282 8  20311738.616    20311743.270        -541.626
      -403.368
 88  3 24  7  6 32.0800000  0  4G 3G 9G11G13
 -88314135.503 8 109028981.717 7  22360443.001    22360449.385        1902.179
      1484.224
 -14559283.107 9 -16997776.972 9  20920203.771    20920207.232       -2987.329
     -2319.898
  -2280364.887 9  -1921248.332 8  22424673.453    22424678.167       -2226.751
     -1732.515
 -45719618.836 9  24025566.077 8  20314806.981    20314810.645        -550.892
      -434.623
 88  3 24  7  7  2.0800000  0  4G 3G 9G11G13
 -88371080.678 9 108984608.871 9  22349606.034    22349611.599        1880.385
      1463.241
 -14469591.469 9 -16927887.395 8  20937269.586    20937275.107       -3003.573
     -2331.716
  -2213338.531 8  -1869020.017 9  22437426.893    22437432.614       -2225.428
     -1733.981
 -45703244.300 8  24038325.457 8  20317923.086    20317927.255        -539.681
      -434.685
 88  3 24  7  7 32.0800000  0  4G 3G 9G11G13
 -88427801.427 8 108940410.909 9  22338813.495    22338818.486        1877.195
      1478.707
 -14379433.129 8 -16857634.175 8  20954426.504    20954430.996       -2988.007
     -2347.996
  -2146298.536 8  -1816781.083 9  22450185.330    22450190.630       -2255.730
     -1734.485
 -45686621.921 8  24051277.968 8  20321085.828    20321089.136        -572.001
      -426.489
 88  3 24  7  8  2.0800000  0  4G 3G 9G11G13
 -88484298.122 9 108896387.523 8  22328062.862    22328067.163        1889.946
      1464.502
 -14288811.202 8 -16787019.689 8  20971671.282    20971675.905       -3031.061
     -2359.821
  -2079245.781 9  -1764532.214 9  22462944.539    22462949.626       -2220.699
     -1743.867
 -45669753.687 9  24064422.049 8  20324295.900    20324299.754        -566.466
      -421.941
 88  3 24  7  8 32.0800000  0  4G 3G 9G11G13
 -88540570.108 8 108852539.244 9  22317353.701    22317359.183        1854.014
      1466.683
 -14197727.629 8 -16716045.504 8  20989005.163    20989009.412       -3035.359
     -2370.316
  -2012180.633 7  -1712273.682 9  22475707.879    22475712.803       -2237.054
     -1737.225
 -45652640.177 9  24077757.249 8  20327552.397    20327557.086        -565.573
      -435.499
 88  3 24  7  9  2.0800000  0  4G 3G 9G11G13
 -88596617.281 9 108808866.151 8  22306688.377    22306693.643        1867.650
      1453.727
 -14106185.181 8 -16644713.737 9  21006425.307    21006430.108       -3056.156
     -2373.989
  -1945103.304 7  -1660005.646 9  22488470.455    22488476.272       -2217.876
     -1732.490
 -45635282.587 9  24091282.655 8  20330855.852    20330860.124        -584.712
      -447.069
 88  3 24  7  9 32.0800000  0  4G 3G 9G11G13
 -88652439.884 9 108765368.050 8  22296066.061    22296071.272        1864.101
      1453.951
 -14014186.830 9 -16573026.733 8  21023931.684    21023936.639       -3076.236
     -2385.540
  -1878015.080 9  -1607729.126 9  22501237.287    22501243.857       -2231.034
     -1740.338
 -45617682.745 9  24104996.817 8  20334204.312    20334208.604        -587.941
      -461.144
 88  3 24  7 10  2.0800000  0  4G 3G 9G11G13
 -88708038.531 9 108722044.432 9  22285486.294    22285489.979        1846.693
      1431.612
 -13921734.769 8 -16500986.177 9  21041524.119    21041529.813       -3077.615
     -2403.908
  -1810917.046 8  -1555444.961 9  22514005.817    22514011.457       -2233.386
     -1736.467
 -45599842.138 9  24118898.598 9  20337599.615    20337604.268        -592.917
      -468.880
 88  3 24  7 10 32.0800000  0  4G 3G 9G11G13
 -88763414.701 9 108678894.185 8  22274948.062    22274952.746        1851.685
      1430.674
 -13828834.013 9 -16428595.998 8  21059202.245    21059207.245       -3093.444
     -2405.051
  -1743811.211 8  -1503154.717 9  22526775.318    22526781.239       -2238.633
     -1735.584
 -45581764.048 8  24132985.420 7  20341039.082    20341044.578        -604.919
      -475.317
 88  3 24  7 11  2.0800000  0  4G 3G 9G11G13
 -88818568.378 8 108635917.324 9  22264452.399    22264456.876        1838.424
      1428.766
 -13735486.067 9 -16355857.353 8  21076966.844    21076971.463       -3105.366
     -2424.594
  -1676698.060 8  -1450858.749 9  22539547.744    22539552.344       -2242.692
     -1744.601
 -45563449.178 9  24147256.757 7  20344524.810    20344528.845        -603.483
      -472.738
 88  3 24  7 11 32.0800000  0  4G 3G 9G11G13
 -88873499.725 8 108593113.706 8  22253998.820    22254005.242        1837.451
      1426.840
 -13641694.103 8 -16282772.717 8  21094814.708    21094819.111       -3147.805
     -2437.854
  -1609578.196 8  -1398557.570 9  22552320.002    22552325.494       -2232.908
     -1746.185
 -45544899.102 8  24161711.354 8  20348054.655    20348059.505        -613.053
      -480.649
 88  3 24  7 12  2.0800000  0  4G 3G 9G11G13
 -88928209.711 8 108550482.570 9  22243588.957    22243593.224        1824.676
      1425.921
 -13547461.926 9 -16209345.067 8  21112746.450    21112751.001       -3142.199
     -2443.521
  -1542453.423 9  -1346252.585 9  22565092.542    22565099.513       -2239.686
     -1757.395
 -45526115.708 9  24176347.751 8  20351628.908    20351633.537        -624.615
      -476.287
 88  3 24  7 12 32.0800000  0  4G 3G 9G11G13
 -88982698.388 8 108508023.884 8  22233219.650    22233224.589        1812.276
      1415.680
 -13452791.695 9 -16135576.081 8  21130761.449    21130767.075       -3153.515
     -2466.891
  -1475324.042 9  -1293943.999 9  22577867.395    22577873.340       -2241.703
     -1745.179
 -45507100.694 9  24191164.645 9  20355246.990    20355253.056        -633.674
      -492.337
 88  3 24  7 13  2.0800000  0  4G 3G 9G11G13
 -89036966.499 8 108465737.083 9  22222892.473    22222897.462        1810.602
      1403.657
 -13357686.793 9 -16061468.377 7  21148859.750    21148863.950       -3183.283
     -2473.043
  -1408190.973 9  -1241632.523 9  22590643.383    22590648.293       -2240.156
     -1748.733
 -45487855.044 9  24206161.287 9  20358910.315    20358914.964        -651.497
      -511.289
 88  3 24  7 13 32.0800000  0  4G 3G 9G11G13
 -89091013.430 9 108423622.593 8  22212608.025    22212613.168        1817.467
      1385.935
 -13262148.978 8 -15987023.344 7  21167039.215    21167044.534       -3178.020
     -2491.628
  -1341054.170 8  -1189318.135 8  22603419.153    22603423.981       -2242.269
     -1735.181
 -45468379.903 9  24221336.718 8  20362615.245    20362619.835        -636.768
      -494.642
 88  3 24  7 14  2.0800000  0  4G 3G 9G11G13
 -89144840.389 9 108381679.525 9  22202365.512    22202370.979        1782.404
      1389.961
 -13166182.490 9 -15912244.283 8  21185301.374    21185305.608       -3204.782
     -2504.571
  -1273915.611 9  -1137002.386 9  22616194.345    22616199.469       -2241.823
     -1741.065
 -45448677.547 9  24236689.210 8  20366364.990    20366369.856        -654.758
      -517.565
 88  3 24  7 14 32.0800000  0  4G 3G 9G11G13
 -89198448.675 8 108339906.881 9  22192163.060    22192169.148        1779.238
      1377.869
 -13069790.759 8 -15837133.880 8  21203644.620    21203648.743       -3216.720
     -2518.155
  -1206776.664 8  -1084686.337 9  22628969.982    22628976.603       -2236.919
     -1732.676
 -45428750.174 8  24252217.035 9  20370156.971    20370161.968        -668.171
      -530.148
 88  3 24  7 15  2.0800000  0  4G 3G 9G11G13
 -89251838.588 8 108298304.358 9  22182003.746    22182009.123        1774.916
      1378.360
 -12972976.951 8 -15761694.562 7  21222067.855    21222071.949       -3240.874
     -2520.684
  -1139638.394 7  -1032370.816 9  22641746.474    22641751.665       -2227.900
     -1744.191
 -45408599.476 9  24267918.896 8  20373991.639    20373997.572        -691.536
      -527.650
 88  3 24  7 15 32.0800000  0  4G 3G 9G11G13
 -89305010.390 9 108256871.804 8  22171884.359    22171890.561        1758.170
      1395.349
 -12875743.680 9 -15685928.389 8  21240570.485    21240574.877       -3252.604
     -2525.978
  -1072501.256 8   -980056.183 9  22654521.461    22654527.930       -2251.320
     -1728.637
 -45388226.901 9  24283793.628 8  20377867.269    20377873.679        -686.552
      -536.983
 88  3 24  7 16  2.0800000  0  4G 3G 9G11G13
 -89357964.501 8 108215608.892 8  22161808.193    22161814.011        1763.266
      1362.658
 -12778093.875 9 -15609837.650 8  21259151.903    21259155.716       -3253.769
     -2543.178
  -1005365.815 8   -927742.865 9  22667297.354    22667302.808       -2217.581
     -1738.468
 -45367633.528 9  24299840.419 8  20381787.115    20381792.301        -689.774
      -522.685
 88  3 24  7 16 32.0800000  0  4G 3G 9G11G13
 -89410700.448 9 108174515.982 8  22151774.758    22151779.476        1760.419
      1366.629
 -12680030.092 9 -15533424.321 9  21277813.144    21277818.213       -3274.358
     -2554.555
   -938232.499 8   -875431.217 9  22680072.113    22680077.391       -2243.745
     -1748.074
 -45346820.734 9  24316058.178 8  20385747.550    20385752.204        -696.727
      -550.852
 88  3 24  7 17  2.0800000  0  4G 3G 9G11G13
 -89463220.365 8 108133591.390 8  22141778.900    22141784.129        1720.675
      1367.281
 -12581557.102 8 -15456692.139 8  21296551.805    21296556.371       -3296.025
     -2565.510
   -871103.727 8   -823123.108 9  22692846.061    22692852.363       -2232.166
     -1734.851
 -45325791.843 9  24332444.322 8  20389750.093    20389754.226        -706.361
      -548.273
 88  3 24  7 17 32.0800000  0  4G 3G 9G11G13
 -89515523.781 9 108092835.503 7  22131825.486    22131830.896        1738.234
      1354.928
 -12482676.828 9 -15379642.592 8  21315367.972    21315371.814       -3282.779
     -2567.890
   -803979.466 7   -770818.505 9  22705620.748    22705625.280       -2244.454
     -1740.089
 -45304547.154 9  24348998.623 9  20393790.749    20393796.477        -720.045
      -544.414
 88  3 24  7 18  2.0800000  0  4G 3G 9G11G13
 -89567611.315 9 108052247.831 8  22121913.430    22121918.403        1746.735
      1335.479
 -12383392.515 9 -15302278.212 7  21334262.331    21334264.959       -3314.374
     -2583.033
   -736860.189 8   -718517.806 9  22718391.123    22718397.783       -2241.448
     -1736.604
 -45283088.004 9  24365720.043 9  20397874.938    20397880.749        -708.553
      -557.700
 88  3 24  7 18 32.0800000  0  4G 3G 9G11G13
 -89619483.961 8 108011827.607 8  22112042.760    22112047.722        1730.603
      1345.800
 -12283707.469 9 -15224601.576 8  21353230.939    21353235.915       -3311.248
     -2599.624
   -669747.041 8   -666221.870 9  22731163.332    22731168.651       -2238.888
     -1735.131
 -45261416.721 9  24382606.768 9  20401999.374    20402003.965        -711.360
      -556.587
 88  3 24  7 19  2.0800000  0  4G 3G 9G11G13
 -89671142.072 9 107971574.572 9  22102212.783    22102218.178        1714.215
      1335.510
 -12183624.616 9 -15146614.949 7  21372276.096    21372280.937       -3346.885
     -2595.728
   -602640.811 8   -613931.311 9  22743933.140    22743939.763       -2219.710
     -1738.169
 -45239534.226 9  24399658.054 9  20406162.829    20406168.598        -726.488
      -576.235
 88  3 24  7 19 32.0800000  0  4G 3G 9G11G13
 -89722585.635 8 107931488.720 8  22092422.795    22092428.495        1702.629
      1332.683
 -12083147.023 8 -15068320.728 8  21391396.048    21391400.589       -3367.451
     -2596.131
   -535542.495 9   -561646.937 9  22756701.750    22756707.715       -2229.239
     -1743.905
 -45217442.578 9  24416872.329 9  20410367.796    20410372.116        -739.350
      -575.943
 88  3 24  7 20  2.0800000  0  4G 3G 9G11G13
 -89773816.376 9 107891568.657 9  22082673.974    22082679.748        1711.002
      1325.058
 -11982278.784 9 -14989722.124 8  21410590.431    21410596.417       -3371.446
     -2615.351
   -468453.584 8   -509369.881 9  22769468.620    22769474.889       -2234.925
     -1745.582
 -45195144.089 9  24434247.779 8  20414611.602    20414615.238        -737.971
      -581.188
 88  3 24  7 20 32.0800000  0  4G 3G 9G11G13
 -89824833.820 9 107851814.834 8  22072965.553    22072971.110        1713.091
      1322.188
 -11881022.289 9 -14910820.959 8  21429859.261    21429863.853       -3390.744
     -2632.352
   -401373.694 8   -457099.843 9  22782232.796    22782238.531       -2240.826
     -1739.139
 -45172639.429 9  24451783.887 9  20418893.188    20418897.773        -756.320
      -577.236
 88  3 24  7 21  2.0800000  0  4G 3G 9G11G13
 -89875638.328 9 107812226.925 9  22063297.039    22063303.524        1694.965
      1322.790
 -11779380.656 9 -14831619.708 8  21449201.242    21449205.883       -3399.157
     -2638.522
   -334303.234 9   -404837.158 8  22794996.743    22795001.906       -2227.581
     -1745.539
 -45149929.533 9  24469479.907 9  20423215.467    20423219.803        -756.439
      -596.927
 88  3 24  7 21 32.0800000  0  4G 3G 9G11G13
 -89926231.195 9 107772803.934 8  22053671.431    22053675.436        1683.179
      1306.796
 -11677357.474 9 -14752121.130 7  21468615.797    21468620.122       -3406.876
     -2644.462
   -267243.882 8   -352583.151 9  22807757.588    22807763.228       -2226.560
     -1737.424
 -45127017.188 9  24487333.687 8  20427574.848    20427578.619        -760.809
      -580.833
 88  3 24  7 22  2.0800000  0  4G 3G 9G11G13
 -89976612.751 9 107733545.584 8  22044083.314    22044087.309        1670.125
      1303.795
 -11574955.400 8 -14672327.334 8  21488101.590    21488106.507       -3432.913
     -2675.158
   -200195.991 8   -300338.056 9  22820517.239    22820521.601       -2233.833
     -1750.846
 -45103903.327 9  24505344.497 8  20431973.387    20431977.152        -773.816
      -608.839
 88  3 24  7 22 32.0800000  0  4G 3G 9G11G13
 -90026784.528 9 107694450.713 8  22034536.189    22034540.948        1676.991
      1298.420
 -11472178.877 8 -14592241.745 9  21507659.477    21507664.085       -3448.319
     -2670.094
   -133161.350 9   -248103.296 8  22833273.284    22833278.604       -2239.941
     -1745.241
 -45080590.424 9  24523510.392 9  20436409.587    20436414.391        -783.058
      -608.242
 88  3 24  7 23  2.0800000  0  4G 3G 9G11G13
 -90076746.562 8 107655519.278 8  22025029.460    22025033.783        1661.704
      1294.977
 -11369030.701 9 -14511866.577 7  21527287.493    21527292.798       -3439.005
     -2678.240
    -66140.207 8   -195879.045 9  22846026.349    22846032.466       -2221.600
     -1745.794
 -45057079.343 9  24541830.714 8  20440883.698    20440888.520        -780.674
      -612.194
 88  3 24  7 23 32.0800000  0  4G 3G 9G11G13
 -90126498.242 9 107616751.747 8  22015561.859    22015566.260        1659.918
      1284.352
 -11265512.765 8 -14431203.268 9  21546986.183    21546991.543       -3455.177
     -2689.630
       868.095 8   -143664.798 9  22858777.747    22858783.076       -2238.067
     -1742.563
 -45033370.824 9  24560304.871 9  20445394.894    20445399.820        -777.165
      -616.929
 88  3 24  7 24  2.0800000  0  4G 3G 9G11G13
 -90176041.438 9 107578146.698 9  22006133.411    22006138.807        1663.810
      1278.356
 -11161629.905 8 -14350255.611 9  21566755.096    21566759.671       -3471.277
     -2705.221
     67861.187 8    -91462.403 9  22871525.931    22871531.791       -2213.259
     -1738.959
 -45009467.767 9  24578930.632 9  20449943.682    20449947.695        -803.951
      -613.462
 88  3 24  7 24 32.0800000  0  4G 3G 9G11G13
 -90225377.083 9 107539703.345 8  21996745.782    21996750.451        1632.829
      1277.405
 -11057385.177 9 -14269025.959 9  21586592.022    21586597.562       -3482.330
     -2711.987
    134838.275 8    -39272.484 9  22884271.003    22884276.867       -2229.813
     -1746.869
 -44985371.548 9  24597706.903 9  20454529.244    20454534.018        -795.099
      -642.853
 88  3 24  7 25  2.0800000  0  3G 3G 9G13
 -90274504.397 9 107501422.335 8  21987396.930    21987401.967        1644.448
      1264.170
 -10952780.614 8 -14187515.910 9  21606498.113    21606502.780       -3479.618
     -2709.017
 -44961082.432 8  24616633.490 9  20459150.844    20459156.354        -802.156
      -635.502
 88  3 24  7 25 32.0800000  0  3G 3G 9G13
 -90323424.744 9 107463302.604 8  21978087.667    21978092.885        1638.116
      1269.725
 -10847820.356 9 -14105728.700 8  21626470.336    21626476.184       -3499.140
     -2726.049
 -44936603.345 9  24635708.091 8  20463808.509    20463814.029        -814.979
      -631.687
 88  3 24  7 26  2.0800000  0  3G 3G 9G13
 -90372139.208 9 107425343.306 9  21968818.092    21968822.371        1620.533
      1265.276
 -10742508.170 9 -14023667.288 8  21646510.192    21646516.827       -3511.005
     -2735.699
 -44911936.400 9  24654929.091 8  20468503.575    20468507.913        -844.644
      -635.210
 88  3 24  7 26 32.0800000  0  3G 3G 9G13
 -90420647.957 9 107387544.297 9  21959586.821    21959590.703        1613.523
      1263.300
 -10636847.044 8 -13941333.966 9  21666617.403    21666622.904       -3539.019
     -2738.893
 -44887081.327 9  24674296.688 8  20473233.157    20473237.778        -831.837
      -650.465
 88  3 24  7 27  2.0800000  0  3G 3G 9G13
 -90468950.646 9 107349905.861 8  21950395.466    21950399.846        1600.047
      1250.108
 -10530838.747 9 -13858730.104 9  21686789.628    21686795.686       -3547.815
     -2751.781
 -44862039.127 9  24693810.082 9  20477998.028    20478003.174        -835.003
      -645.034
 88  3 24  7 27 32.0800000  0  3G 3G 9G13
 -90517049.391 9 107312426.311 9  21941242.980    21941247.310        1611.458
      1246.690
 -10424488.587 8 -13775859.867 8  21707028.068    21707033.376       -3560.749
     -2768.489
 -44836813.462 9  24713466.437 9  20482797.417    20482803.828        -836.773
      -654.038
 88  3 24  7 28  2.0800000  0  3G 3G 9G13
 -90564945.476 9 107275104.720 9  21932127.752    21932133.301        1591.139
      1237.854
 -10317800.118 9 -13692726.018 8  21727330.932    21727335.316       -3564.920
     -2766.389
 -44811406.273 9  24733264.249 8  20487632.927    20487638.518        -862.921
      -665.614
 88  3 24  7 28 32.0800000  0  3G 3G 9G13
 -90612637.981 9 107237941.758 9  21923052.505    21923056.340        1594.489
      1242.328
 -10210775.232 9 -13609330.006 8  21747697.115    21747702.076       -3586.818
     -2782.154
 -44785817.331 8  24753203.677 9  20492503.126    20492507.624        -864.213
      -656.337
 88  3 24  7 29  2.0800000  0  3G 3G 9G13
 -90660127.474 9 107200936.962 8  21914014.657    21914020.021        1579.776
      1228.099
 -10103417.576 8 -13525674.705 9  21768126.702    21768131.067       -3582.743
     -2787.342
 -44760048.740 9  24773283.104 9  20497407.135    20497411.913        -859.189
      -671.120
 88  3 24  7 29 32.0800000  0  3G 3G 9G13
 -90707415.150 9 107164089.426 9  21905015.718    21905021.626        1594.042
      1219.946
  -9995730.764 9 -13441762.922 8  21788618.268    21788623.552       -3585.422
     -2797.508
 -44734102.462 9  24793500.974 9  20502344.405    20502349.014        -858.902
      -676.134
 88  3 24  7 30  2.0800000  0  3G 3G 9G13
 -90754501.778 9 107127398.570 9  21896056.615    21896061.923        1574.521
      1222.873
  -9887718.246 8 -13357597.334 8  21809172.007    21809179.028       -3597.766
     -2801.304
 -44707979.607 9  24813856.447 7  20507314.350    20507320.001        -861.932
      -673.177
 88  3 24  7 30 32.0800000  0  3G 3G 9G13
 -90801388.371 9 107090863.571 8  21887134.338    21887138.321        1569.194
      1210.607
  -9779383.615 9 -13273180.745 8  21829786.696    21829792.924       -3614.672
     -2819.349
 -44681682.033 9  24834348.057 8  20512319.318    20512324.254        -879.253
      -687.822
 88  3 24  7 31  2.0800000  0  3G 3G 9G13
 -90848074.670 9 107054484.659 9  21878248.985    21878254.578        1544.824
      1198.347
  -9670729.241 8 -13188515.017 7  21850462.710    21850468.423       -3623.252
     -2824.743
 -44655210.667 9  24854975.095 9  20517358.050    20517361.459        -893.319
      -679.341
 88  3 24  7 31 32.0800000  0  3G 3G 9G13
 -90894562.018 9 107018260.773 9  21869404.636    21869409.580        1545.327
      1197.489
  -9561759.146 8 -13103603.269 8  21871199.492    21871205.283       -3634.991
     -2817.553
 -44628566.667 9  24875736.661 9  20522427.177    20522431.101        -882.650
      -697.988
 88  3 24  7 32  2.0800000  0  3G 3G 9G13
 -90940850.497 9 106982191.847 8  21860594.704    21860600.810        1540.949
      1192.543
  -9452476.391 9 -13018447.893 8  21891995.705    21892001.647       -3629.640
     -2831.839
 -44601752.017 9  24896631.188 8  20527528.351    20527533.842        -890.249
      -691.252
 88  3 24  7 32 32.0800000  0  3G 3G 9G13
 -90986940.912 8 106946277.278 8  21851824.617    21851828.892        1545.965
      1200.888
  -9342884.145 8 -12933051.337 8  21912851.020    21912856.318       -3642.702
     -2855.159
 -44574767.777 9  24917657.859 8  20532663.339    20532669.080        -909.053
      -715.822
 88  3 24  7 33  2.0800000  0  3G 3G 9G13
 -91032833.642 9 106910516.721 9  21843092.272    21843096.285        1531.188
      1202.224
  -9232985.362 9 -12847415.944 8  21933764.711    21933769.076       -3664.105
     -2851.288
 -44547614.677 9  24938816.113 7  20537831.158    20537836.032        -906.748
      -697.870
 88  3 24  7 33 32.0800000  0  3G 3G 9G13
 -91078529.528 9 106874909.553 9  21834394.774    21834401.892        1511.970
      1188.771
  -9122784.150 8 -12761544.876 8  21954736.422    21954739.865       -3677.973
     -2865.362
 -44520295.457 9  24960103.824 8  20543029.825    20543033.796        -927.051
      -709.925
 88  3 24  7 34  2.0800000  0  3G 3G 9G13
 -91124028.883 9 106839455.542 9  21825736.700    21825742.648        1522.416
      1177.835
  -9012283.190 9 -12675440.258 9  21975761.524    21975766.070       -3691.696
     -2860.777
 -44492810.438 8  24981520.723 9  20548260.488    20548265.465        -917.928
      -715.542
 88  3 24  7 34 32.0800000  0  3G 3G 9G13
 -91169332.731 9 106804153.857 8  21817115.845    21817121.162        1508.246
      1166.532
  -8901486.024 8 -12589104.825 7  21996845.914    21996851.205       -3713.139
     -2878.212
 -44465161.859 9  25003065.071 8  20553522.062    20553526.927        -919.603
      -721.986
 88  3 24  7 35  2.0800000  0  3G 3G 9G13
 -91214442.946 8 106769003.043 9  21808532.022    21808537.444        1498.405
      1164.196
  -8790397.274 9 -12502542.175 8  22017984.919    22017990.506       -3713.427
     -2887.198
 -44437351.647 9  25024735.356 8  20558813.497    20558818.551        -924.140
      -730.089
 88  3 24  7 35 32.0800000  0  3G 3G 9G13
 -91259360.076 9 106734002.712 9  21799983.753    21799989.066        1494.107
      1170.385
  -8679019.978 9 -12415754.676 8  22039180.053    22039185.563       -3715.237
     -2879.113
 -44409381.049 8  25046530.618 7  20564136.790    20564140.593        -943.502
      -730.766
 88  3 24  7 36  2.0800000  0  3G 3G 9G13
 -91304082.605 9 106699153.999 9  21791473.306    21791478.758        1485.104
      1173.498
  -8567355.811 9 -12328743.654 8  22060429.783    22060435.164       -3721.808
     -2909.785
 -44381250.189 8  25068450.777 9  20569489.789    20569494.225        -918.869
      -722.868
 88  3 24  7 36 32.0800000  0  3G 3G 9G13
 -91348611.816 8 106664455.933 8  21782999.446    21783005.581        1487.991
      1153.148
  -8455408.608 9 -12241512.073 9  22081732.316    22081736.383       -3724.327
     -2905.503
 -44352960.510 9  25090494.684 8  20574872.903    20574877.085        -943.518
      -742.485
 88  3 24  7 37  2.0800000  0  3G 3G 9G13
 -91392949.176 9 106629907.365 8  21774563.266    21774568.154        1472.226
      1160.051
  -8343182.473 9 -12154063.142 8  22103089.017    22103093.239       -3739.854
     -2910.058
 -44324514.429 9  25112660.476 8  20580286.401    20580290.416        -952.505
      -734.743
 88  3 24  7 37 32.0800000  0  3G 3G 9G13
 -91437095.616 9 106595507.562 9  21766162.065    21766167.717        1471.947
      1146.741
  -8230681.380 9 -12066399.971 8  22124497.313    22124501.275       -3741.783
     -2922.448
 -44295913.495 9  25134946.914 9  20585728.296    20585733.234        -944.866
      -745.014
 88  3 24  7 38  2.0800000  0  3G 3G 9G13
 -91481050.910 9 106561256.689 8  21757798.648    21757802.977        1448.582
      1137.626
  -8117907.258 9 -11978524.038 9  22145958.015    22145961.284       -3756.616
     -2921.038
 -44267157.764 8  25157353.966 8  20591200.557    20591205.263        -976.396
      -758.802
 88  3 24  7 38 32.0800000  0  3G 3G 9G13
 -91524816.621 9 106527153.561 8  21749469.774    21749474.511        1461.596
      1120.196
  -8004864.384 9 -11890438.698 9  22167469.011    22167472.239       -3783.521
     -2943.476
 -44238249.530 9  25179879.861 8  20596702.156    20596705.908        -965.096
      -761.425
 88  3 24  7 39  2.0800000  0  3G 3G 9G13
 -91568392.733 8 106493198.162 9  21741178.056    21741183.386        1441.508
      1133.326
  -7891555.645 8 -11802146.191 9  22189030.704    22189034.850       -3788.968
     -2951.125
 -44209189.897 8  25202523.751 8  20602231.402    20602235.980        -971.540
      -762.351
 88  3 24  7 39 32.0800000  0  3G 3G 9G13
 -91611780.068 9 106459389.882 8  21732921.639    21732926.943        1447.944
      1124.453
  -7777984.489 8 -11713649.208 8  22210642.039    22210647.238       -3788.952
     -2953.648
 -44179980.053 9  25225284.663 8  20607789.735    20607794.371        -965.096
      -755.870
 88  3 24  7 40  2.0800000  0  3G 3G 9G13
 -91654980.124 9 106425727.512 9  21724700.458    21724706.222        1425.584
      1127.031
  -7664155.066 9 -11624950.975 9  22232302.382    22232307.855       -3795.937
     -2967.026
 -44150621.930 9  25248161.130 8  20613376.823    20613380.555        -977.225
      -758.989
 88  3 24  7 40 32.0800000  0  3G 3G 9G13
 -91697993.468 9 106392210.634 9  21716515.271    21716521.234        1435.679
      1113.137
  -7550070.827 9 -11536054.180 9  22254012.864    22254017.756       -3814.972
     -2977.540
 -44121117.494 9  25271151.606 8  20618990.835    20618996.189        -980.335
      -770.689
 88  3 24  7 41  2.0800000  0  3G 3G 9G13
 -91740820.129 9 106358839.238 8  21708365.328    21708370.715        1419.108
      1113.895
  -7435734.092 8 -11446960.635 9  22275770.133    22275775.426       -3822.197
     -2969.133
 -44091466.617 8  25294256.179 9  20624634.474    20624638.719        -990.686
      -766.042
 88  3 24  7 41 32.0800000  0  3G 3G 9G13
 -91783460.309 9 106325613.144 9  21700250.931    21700256.449        1413.495
      1112.062
  -7321148.209 9 -11357672.977 9  22297575.367    22297580.395       -3818.736
     -2977.080
 -44061670.316 9  25317474.070 8  20630302.879    20630308.073        -997.640
      -779.923
 88  3 24  7 42  2.0800000  0  3G 3G 9G13
 -91825917.375 9 106292529.733 9  21692171.828    21692177.649        1416.772
      1100.486
  -7206318.602 9 -11268195.377 9  22319427.542    22319431.733       -3839.062
     -2982.902
 -44031732.165 9  25340802.489 8  20636001.053    20636005.254       -1000.431
      -769.385
 88  3 24  7 42 32.0800000  0  3G 3G 9G13
 -91868190.162 8 106259589.921 9  21684127.686    21684132.835        1404.603
      1091.097
  -7091247.494 8 -11178529.589 9  22341324.935    22341329.263       -3842.420
     -3002.333
 -44001652.185 9  25364241.438 8  20641724.544    20641728.521        -996.045
      -774.822
 88  3 24  7 43  2.0800000  0  3G 3G 9G13
 -91910279.322 8 106226793.198 8  21676118.031    21676123.251        1396.748
      1102.419
  -6975937.766 9 -11088677.864 9  22363267.408    22363271.694       -3842.842
     -2990.061
 -43971431.591 9  25387789.947 8  20647475.698    20647480.119        -998.956
      -781.135
 88  3 24  7 43 32.0800000  0  3G 3G 9G13
 -91952184.768 8 106194139.615 7  21668144.391    21668149.480        1399.819
      1085.865
  -6860392.045 9 -10998642.251 9  22385253.783    22385258.964       -3847.212
     -2996.548
 -43941070.337 9  25411448.060 8  20653253.019    20653258.157        -999.992
      -783.533
 88  3 24  7 44  2.0800000  0  3G 3G 9G13
 -91993907.597 9 106161628.338 8  21660204.332    21660210.427        1385.273
      1078.713
  -6744614.673 9 -10908426.154 9  22407286.012    22407290.876       -3860.067
     -2997.940
 -43910571.197 9  25435213.616 9  20659056.816    20659062.151       -1019.960
      -793.301
 88  3 24  7 44 32.0800000  0  3G 3G 9G13
 -92035449.724 9 106129257.878 8  21652299.200    21652305.170        1387.634
      1087.940
  -6628610.115 9 -10818033.002 9  22429361.392    22429366.166       -3876.398
     -3020.931
 -43879936.074 9  25459085.137 8  20664886.301    20664892.047       -1032.918
      -795.489
 88  3 24  7 45  2.0800000  0  3G 3G 9G13
 -92076810.652 9 106097028.612 8  21644429.365    21644433.858        1372.291
      1067.019
  -6512380.427 9 -10727464.443 8  22451479.633    22451482.937       -3871.885
     -3021.453
 -43849164.605 9  25483062.907 8  20670741.864    20670746.904       -1030.239
      -815.944
 88  3 24  7 45 32.0800000  0  3G 3G 9G13
 -92117991.546 9 106064939.627 8  21636592.682    21636596.122        1368.248
      1072.940
  -6395929.093 9 -10636723.164 8  22473639.285    22473644.085       -3875.649
     -3027.163
 -43818258.851 9  25507145.315 7  20676623.473    20676628.271       -1020.877
      -806.760
 88  3 24  7 46  2.0800000  0  3G 3G 9G13
 -92158993.679 9 106032989.943 8  21628790.231    21628794.705        1375.305
      1065.683
  -6279259.973 9 -10545812.173 9  22495840.532    22495843.705       -3885.561
     -3027.716
 -43787220.339 9  25531331.170 8  20682529.925    20682533.999       -1037.296
      -802.622
 88  3 24  7 46 32.0800000  0  3G 3G 9G13
 -92199817.827 9 106001178.947 8  21621022.478    21621026.512        1353.057
      1071.319
  -6162377.143 9 -10454734.660 8  22518082.317    22518087.878       -3887.642
     -3031.935
 -43756050.695 9  25555619.195 8  20688461.251    20688465.998       -1038.221
      -805.915
 88  3 24  7 47  2.0800000  0  3G 3G 9G13
 -92240463.594 8 105969506.941 9  21613287.109    21613291.080        1357.778
      1051.590
  -6045282.519 9 -10363492.104 8  22540364.687    22540369.463       -3900.122
     -3038.590
 -43724749.958 9  25580009.375 9  20694417.836    20694422.062       -1048.628
      -798.515
 88  3 24  7 47 32.0800000  0  3G 3G 9G13
 -92280932.213 9 105937972.956 8  21605585.440    21605589.393        1357.124
      1041.747
  -5927980.208 8 -10272087.725 8  22562686.169    22562690.754       -3918.782
     -3041.076
 -43693319.798 9  25604500.422 9  20700397.359    20700403.347       -1057.184
      -812.943
 88  3 24  7 48  2.0800000  0  3G 3G 9G13
 -92321224.880 9 105906576.099 8  21597917.663    21597922.566        1342.483
      1040.343
  -5810474.167 9 -10180524.585 9  22585047.305    22585052.417       -3916.701
     -3055.268
 -43661761.738 9  25629091.110 8  20706402.936    20706409.158       -1057.806
      -825.526
 88  3 24  7 48 32.0800000  0  3G 3G 9G13
 -92361341.831 9 105875316.158 8  21590284.821    21590287.962        1339.963
      1051.869
  -5692766.879 9 -10088804.620 9  22607446.189    22607451.100       -3914.332
     -3052.857
 -43630076.164 8  25653781.162 7  20712432.995    20712438.232       -1054.027
      -828.788
 88  3 24  7 49  2.0800000  0  3G 3G 9G13
 -92401283.544 9 105844192.765 8  21582682.552    21582688.601        1332.395
      1036.434
  -5574861.478 8  -9996930.321 9  22629883.138    22629886.783       -3932.897
     -3066.857
 -43598264.564 9  25678569.422 9  20718487.237    20718491.660       -1058.795
      -832.305
 88  3 24  7 49 32.0800000  0  3G 3G 9G13
 -92441051.329 9 105813204.894 9  21575116.331    21575120.863        1321.064
      1044.450
  -5456762.439 8  -9904905.107 8  22652356.157    22652361.121       -3932.067
     -3067.590
 -43566328.641 9  25703454.542 8  20724563.844    20724567.860       -1073.101
      -829.584
 88  3 24  7 50  2.0800000  0  3G 3G 9G13
 -92480646.726 9 105782351.349 9  21567580.565    21567586.282        1327.172
      1041.225
  -5338473.912 9  -9812732.237 8  22674866.292    22674870.070       -3937.769
     -3080.111
 -43534270.536 9  25728434.890 9  20730664.079    20730668.871       -1065.063
      -829.888
 88  3 24  7 50 32.0800000  0  3G 3G 9G13
 -92520069.357 9 105751632.437 8  21560078.828    21560084.225        1317.348
      1031.041
  -5219998.171 9  -9720413.500 8  22697411.227    22697415.885       -3949.101
     -3071.442
 -43502090.144 8  25753510.532 8  20736788.499    20736794.052       -1083.404
      -849.928
 88  3 24  7 51  2.0800000  0  3G 3G 9G13
 -92559319.999 9 105721047.537 9  21552609.718    21552614.948        1312.244
      1015.028
  -5101338.552 8  -9627951.479 8  22719991.485    22719996.344       -3962.912
     -3069.914
 -43469788.511 9  25778680.622 8  20742934.812    20742939.154       -1078.524
      -823.426
 88  3 24  7 51 32.0800000  0  3G 3G 9G13
 -92598398.807 9 105690596.531 8  21545172.849    21545178.208        1302.763
      1007.540
  -4982497.938 8  -9535348.420 8  22742605.799    22742610.111       -3955.105
     -3070.063
 -43437365.889 9  25803945.003 7  20749104.480    20749109.236       -1067.814
      -848.436
 88  3 24  7 52  2.0800000  0  3G 3G 9G13
 -92637307.652 9 105660277.955 7  21537769.839    21537773.243        1300.833
      1009.087
  -4863480.647 9  -9442607.674 9  22765253.871    22765257.936       -3976.804
     -3096.515
 -43404824.794 9  25829301.698 8  20755297.434    20755301.397       -1088.547
      -846.883
 88  3 24  7 52 32.0800000  0  3G 3G 9G13
 -92676046.552 9 105630091.810 9  21530397.281    21530403.429        1283.664
      1012.816
  -4744289.507 8  -9349731.488 9  22787935.376    22787939.438       -3966.006
     -3094.365
 -43372165.902 8  25854750.191 9  20761513.179    20761516.047       -1089.393
      -834.176
 88  3 24  7 53  2.0800000  0  3G 3G 9G13
 -92714616.252 9 105600037.521 8  21523057.779    21523064.035        1278.377
      1001.606
  -4624928.208 9  -9256722.696 8  22810648.972    22810652.926       -3973.406
     -3097.559
 -43339390.691 9  25880289.330 9  20767749.646    20767753.721       -1095.804
      -852.363
 88  3 24  7 53 32.0800000  0  3G 3G 9G13
 -92753018.225 9 105570113.916 8  21515750.614    21515755.041        1276.838
      1001.003
  -4505400.516 9  -9163584.262 8  22833395.727    22833398.187       -3987.417
     -3098.261
 -43306500.422 9  25905918.099 9  20774008.248    20774012.791       -1082.024
      -860.124
 88  3 24  7 54  2.0800000  0  3G 3G 9G13
 -92791252.042 9 105540321.346 8  21508474.425    21508479.054        1277.500
       984.903
  -4385709.053 8  -9070318.190 9  22856170.848    22856175.561       -4002.234
     -3113.920
 -43273495.314 9  25931636.357 8  20780288.679    20780293.555       -1110.190
      -858.913
 88  3 24  7 54 32.0800000  0  3G 3G 9G13
 -92829318.669 9 105510659.057 8  21501229.726    21501235.641        1266.607
       975.328
  -4265857.363 8  -8976927.303 8  22878977.614    22878982.475       -3984.794
     -3103.934
 -43240377.094 9  25957442.760 9  20786590.209    20786595.841       -1115.908
      -859.640
 88  3 24  7 55  2.0800000  0  3G 3G 9G13
 -92867219.814 9 105481125.711 8  21494018.767    21494023.178        1254.239
       980.343
  -4145849.489 9  -8883414.719 8  22901815.724    22901818.698       -4002.154
     -3108.626
 -43207147.036 8  25983336.317 9  20792914.497    20792919.040       -1105.652
      -852.457
 88  3 24  7 55 32.0800000  0  3G 3G 9G13
 -92904955.430 9 105451721.364 8  21486838.239    21486842.060        1248.114
       970.748
  -4025688.510 9  -8789782.776 7  22924680.721    22924684.017       -3995.727
     -3131.020
 -43173806.056 9  26009316.284 8  20799258.306    20799263.970       -1114.432
      -866.003
 88  3 24  7 56  2.0800000  0  3G 3G 9G13
 -92942525.791 9 105422445.774 8  21479687.961    21479692.388        1246.224
       977.845
  -3905377.230 9  -8696033.743 7  22947574.844    22947577.859       -4015.487
     -3130.262
 -43140354.695 9  26035382.284 8  20805624.696    20805628.674       -1122.343
      -877.504
 88  3 24  7 56 32.0800000  0  3G 3G 9G13
 -92979931.885 9 105393298.180 9  21472570.452    21472575.782        1245.834
       979.485
  -3784919.374 9  -8602170.481 8  22970497.613    22970501.366       -4019.012
     -3132.586
 -43106794.325 9  26061533.222 8  20812010.385    20812015.182       -1119.097
      -882.712
 88  3 24  7 57  2.0800000  0  3G 3G 9G13
 -93017175.368 9 105364277.306 8  21465482.214    21465488.239        1240.395
       965.684
  -3664318.894 9  -8508196.082 8  22993447.820    22993451.853       -4023.741
     -3126.882
 -43073126.811 9  26087767.640 8  20818417.971    20818421.227       -1121.314
      -866.804
 88  3 24  7 57 32.0800000  0  3G 3G 9G13
 -93054256.090 9 105335383.247 9  21458426.196    21458431.633        1223.976
       971.065
  -3543578.521 9  -8414112.694 8  23016423.306    23016426.204       -4027.329
     -3119.637
 -43039351.753 9  26114085.869 9  20824844.954    20824848.144       -1126.131
      -877.641
 88  3 24  7 58  2.0800000  0  3G 3G 9G13
 -93091174.598 9 105306615.582 9  21451401.387    21451406.696        1230.666
       958.955
  -3422701.906 9  -8319923.135 8  23039425.414    23039429.335       -4023.733
     -3142.907
 -43005470.842 9  26140486.577 8  20831291.763    20831296.208       -1140.389
      -882.451
 88  3 24  7 58 32.0800000  0  3G 3G 9G13
 -93127932.013 9 105277973.456 8  21444406.381    21444412.651        1217.325
       951.548
  -3301692.240 9  -8225629.884 9  23062453.315    23062456.874       -4031.356
     -3127.155
 -42971485.021 9  26166969.022 9  20837758.260    20837764.044       -1130.365
      -890.373
 88  3 24  7 59  2.0800000  0  3G 3G 9G13
 -93164528.812 9 105249456.475 8  21437442.547    21437447.576        1205.164
       948.205
  -3180552.338 9  -8131235.172 9  23085505.930    23085509.491       -4035.327
     -3136.967
 -42937395.010 9  26193532.663 8  20844245.818    20844250.737       -1138.252
      -880.319
 88  3 24  7 59 32.0800000  0  3G 3G 9G13
 -93200966.261 9 105221063.670 9  21430508.593    21430512.686        1212.373
       943.973
  -3059286.510 9  -8036742.344 8  23108581.379    23108585.445       -4042.616
     -3133.773
 -42903202.514 9  26220176.162 8  20850752.724    20850758.296       -1152.877
      -881.947
 88  3 24  8  0  2.0800000  0  3G 3G 9G13
 -93237245.281 8 105192794.328 9  21423604.976    21423609.390        1207.668
       951.225
  -2937897.921 9  -7942153.851 9  23131681.546    23131685.416       -4043.724
     -3158.870
 -42868908.582 9  26246898.701 9  20857279.346    20857283.542       -1150.500
      -880.406
 88  3 24  8  0 32.0800000  0  3G 3G 9G13
 -93273366.201 9 105164648.177 9  21416731.892    21416736.035        1210.101
       932.521
  -2816390.331 9  -7847472.647 9  23154802.719    23154807.940       -4057.448
     -3154.987
 -42834513.649 9  26273699.937 9  20863824.301    20863828.788       -1144.639
      -884.762
 88  3 24  8  1  2.0800000  0  3G 3G 9G13
 -93309328.401 9 105136625.687 8  21409888.047    21409892.894        1194.184
       924.872
  -2694765.409 9  -7752700.010 9  23177946.546    23177952.562       -4044.187
     -3158.305
 -42800017.894 8  26300579.740 8  20870388.094    20870392.324       -1145.078
      -882.357
 88  3 24  8  1 32.0800000  0  3G 3G 9G13
 -93345133.747 8 105108725.449 8  21403074.316    21403078.634        1190.571
       922.119
  -2573027.572 9  -7657839.404 9  23201112.268    23201118.127       -4056.507
     -3152.924
 -42765423.136 9  26327536.697 9  20876971.970    20876976.895       -1144.256
      -899.756
 88  3 24  8  2  2.0800000  0  3G 3G 9G13
 -93380783.476 9 105080946.459 8  21396290.408    21396295.148        1194.997
       916.626
  -2451180.941 9  -7562894.004 9  23224299.339    23224305.265       -4057.687
     -3159.591
 -42730731.172 9  26354569.376 8  20883572.556    20883577.894       -1155.524
      -905.317
 88  3 24  8  2 32.0800000  0  3G 3G 9G13
 -93416276.973 9 105053289.220 8  21389535.891    21389540.761        1186.225
       912.463
  -2329227.366 9  -7467865.262 9  23247507.335    23247511.861       -4085.167
     -3172.305
 -42695941.193 9  26381678.450 8  20890194.343    20890198.184       -1154.160
      -915.446
 88  3 24  8  3  2.0800000  0  3G 3G 9G13
 -93451615.636 9 105025752.605 9  21382811.301    21382815.933        1182.772
       916.925
  -2207171.305 9  -7372756.688 9  23270733.697    23270738.472       -4072.241
     -3173.616
 -42661055.340 9  26408862.223 9  20896832.308    20896837.484       -1160.556
      -899.389
 88  3 24  8  3 32.0800000  0  3G 3G 9G13
 -93486800.850 8 104998335.554 8  21376115.152    21376120.455        1168.068
       900.676
  -2085016.352 9  -7277571.015 8  23293978.403    23293983.773       -4074.266
     -3176.257
 -42626074.512 9  26436120.010 9  20903489.111    20903493.176       -1166.768
      -915.893
 88  3 24  8  4  2.0800000  0  3G 3G 9G13
 -93521832.575 9 104971038.137 8  21369448.842    21369454.889        1163.674
       900.520
  -1962764.905 9  -7182310.168 8  23317242.050    23317247.413       -4078.373
     -3163.661
 -42590999.155 9  26463451.454 9  20910163.980    20910167.601       -1155.556
      -908.002
 88  3 24  8  4 32.0800000  0  3G 3G 9G13
 -93556711.524 9 104943859.735 8  21362812.670    21362816.746        1147.303
       909.891
  -1840420.369 9  -7086976.784 8  23340522.625    23340528.563       -4096.562
     -3168.769
 -42555830.412 8  26490855.659 9  20916856.055    20916860.114       -1168.020
      -904.603
 88  3 24  8  5  2.0800000  0  3G 3G 9G13
 -93591438.276 9 104916799.944 8  21356204.112    21356209.059        1147.550
       892.890
  -1717986.138 8  -6991573.495 8  23363820.659    23363827.538       -4091.244
     -3188.050
 -42520568.666 9  26518332.351 8  20923566.494    20923569.974       -1195.699
      -912.861
 88  3 24  8  5 32.0800000  0  3G 3G 9G13
 -93626014.523 9 104889857.440 9  21349624.737    21349629.662        1154.448
       903.857
  -1595466.568 8  -6896103.708 8  23387135.807    23387140.985       -4076.778
     -3198.862
 -42485215.880 8  26545879.976 9  20930293.264    20930297.665       -1199.032
      -925.052
 88  3 24  8  6  2.0800000  0  3G 3G 9G13
 -93660440.831 9 104863031.754 8  21343073.539    21343077.814        1139.551
       903.770
  -1472864.749 8  -6800569.833 8  23410466.326    23410471.498       -4101.116
     -3189.554
 -42449773.098 9  26573497.710 9  20937037.458    20937042.029       -1198.530
      -918.068
 88  3 24  8  6 32.0800000  0  3G 3G 9G13
 -93694717.269 8 104836322.849 8  21336550.915    21336555.385        1149.009
       884.190
  -1350183.601 9  -6704974.143 8  23433812.339    23433817.334       -4092.376
     -3184.769
 -42414240.568 9  26601185.393 9  20943798.218    20943804.223       -1189.925
      -917.962
 88  3 24  8  7  2.0800000  0  3G 3G 9G13
 -93728843.764 9 104809730.793 9  21330057.136    21330062.427        1140.365
       886.583
  -1227425.352 8  -6609318.369 8  23457170.978    23457177.488       -4089.800
     -3177.195
 -42378618.307 8  26628943.012 8  20950578.062    20950582.713       -1194.862
      -934.180
 88  3 24  8  7 32.0800000  0  3G 3G 9G13
 -93762821.629 8 104783254.559 9  21323591.363    21323595.842        1117.845
       892.585
  -1104594.332 8  -6513605.925 9  23480544.939    23480551.862       -4078.764
     -3197.750
 -42342907.805 9  26656769.366 8  20957373.288    20957378.108       -1192.206
      -929.054
 88  3 24  8  8  2.0800000  0  3G 3G 9G13
 -93796652.078 9 104756893.188 8  21317153.592    21317158.071        1122.175
       876.790
   -981694.030 8  -6417839.493 9  23503931.828    23503938.758       -4113.444
     -3194.767
 -42307110.287 9  26684663.521 9  20964186.121    20964189.872       -1191.504
      -936.492
 88  3 24  8  8 32.0800000  0  3G 3G 9G13
 -93830335.795 8 104730646.155 9  21310743.567    21310748.782        1112.550
       875.230
   -858727.398 7  -6322021.371 9  23527331.550    23527339.061       -4118.819
     -3199.832
 -42271226.367 9  26712625.019 9  20971013.901    20971018.979       -1202.326
      -937.269
 88  3 24  8  9  2.0800000  0  3G 3G 9G13
 -93863873.204 9 104704513.124 8  21304361.630    21304366.505        1117.056
       865.021
   -735697.925 8  -6226154.282 8  23550743.935    23550750.171       -4115.884
     -3198.340
 -42235256.774 9  26740653.275 9  20977859.434    20977863.905       -1209.774
      -928.638
 88  3 24  8  9 32.0800000  0  3G 3G 9G13
 -93897264.465 9 104678493.966 8  21298006.736    21298011.327        1123.778
       872.266
   -612608.628 8  -6130240.593 9  23574167.700    23574173.779       -4110.398
     -3194.171
 -42199201.852 9  26768748.015 8  20984719.992    20984724.617       -1202.070
      -948.211
 88  3 24  8 10  2.0800000  0  3G 3G 9G13
 -93930510.713 9 104652587.810 8  21291679.360    21291685.799        1108.348
       861.734
   -489462.656 8  -6034282.731 9  23597601.903    23597608.149       -4104.298
     -3191.990
 -42163062.477 9  26796908.548 9  20991597.169    20991602.792       -1200.882
      -936.082
 88  3 24  8 10 32.0800000  0  3G 3G 9G13
 -93963611.940 9 104626794.668 9  21285381.353    21285386.451        1091.043
       855.595
   -366263.526 9  -5938283.417 9  23621046.748    23621051.531       -4108.540
     -3203.119
 -42126839.860 9  26825133.972 8  20998489.566    20998495.097       -1197.621
      -954.630
 88  3 24  8 11  2.0800000  0  3G 3G 9G13
 -93996569.849 9 104601113.179 9  21279109.848    21279115.624        1091.307
       846.094
   -243015.017 8  -5842245.642 9  23644499.503    23644505.454       -4093.692
     -3194.525
 -42090535.109 9  26853423.388 9  21005399.181    21005402.744       -1221.265
      -925.065
 88  3 24  8 11 32.0800000  0  3G 3G 9G13
 -94029384.406 9 104575543.412 8  21272866.132    21272870.795        1097.782
       851.798
   -119719.489 9  -5746171.218 9  23667962.235    23667968.306       -4121.546
     -3200.186
 -42054147.982 8  26881776.980 9  21012322.352    21012327.871       -1218.426
      -946.018
 88  3 24  8 12  2.0800000  0  3G 3G 9G13
 -94062055.712 9 104550085.274 8  21266648.772    21266652.408        1087.846
       850.170
      3620.168 9  -5650062.412 8  23691432.668    23691438.329       -4105.039
     -3212.048
 -42017679.051 9  26910194.319 8  21019261.828    21019267.161       -1222.915
      -950.156
 88  3 24  8 12 32.0800000  0  3G 3G 9G13
 -94094586.480 9 104524736.640 9  21260457.851    21260462.778        1075.669
       845.615
    126998.467 8  -5553923.508 8  23714909.988    23714917.243       -4112.224
     -3194.637
 -41981130.827 9  26938673.437 8  21026217.574    21026221.890       -1218.577
      -942.811
 88  3 24  8 13  2.0800000  0  3G 3G 9G13
 -94126976.471 9 104499497.701 9  21254294.151    21254299.286        1077.989
       835.394
    250412.937 9  -5457756.400 8  23738395.840    23738402.008       -4115.286
     -3218.187
 -41944504.034 9  26967213.792 9  21033187.397    21033192.483       -1235.132
      -946.701
 88  3 24  8 13 32.0800000  0  3G 3G 9G13
 -94159224.524 9 104474369.357 8  21248158.182    21248163.323        1072.631
       843.540
    373862.078 9  -5361562.275 8  23761887.315    23761892.772       -4103.907
     -3200.720
 -41907797.449 9  26995816.320 9  21040171.648    21040176.647       -1216.496
      -961.745
 88  3 24  8 14  2.0800000  0  3G 3G 9G13
 -94191332.961 9 104449349.828 8  21242048.085    21242051.015        1073.165
       851.848
    497341.946 8  -5265344.207 8  23785384.554    23785390.516       -4108.165
     -3202.131
 -41871012.287 9  27024480.091 8  21047172.405    21047176.857       -1223.490
      -962.534
 88  3 24  8 14 32.0800000  0  3G 3G 9G13
 -94223302.671 9 104424438.374 8  21235963.877    21235968.912        1058.333
       823.003
    620848.521 8  -5169105.343 8  23808887.454    23808892.768       -4103.987
     -3200.882
 -41834150.144 9  27053203.833 9  21054187.616    21054191.549       -1230.467
      -960.005
 88  3 24  8 15  2.0800000  0  3G 3G 9G13
 -94255133.944 9 104399634.799 9  21229906.208    21229910.818        1059.425
       826.471
    744378.846 7  -5072847.955 8  23832394.364    23832399.050       -4107.264
     -3195.892
 -41797211.361 9  27081987.298 9  21061216.389    21061221.268       -1237.636
      -969.176
 88  3 24  8 15 32.0800000  0  3G 3G 9G13
 -94286826.209 8 104374939.520 9  21223875.102    21223880.772        1071.195
       819.505
    867931.157 8  -4976573.439 7  23855906.203    23855911.802       -4120.549
     -3212.060
 -41760195.379 9  27110830.909 8  21068260.812    21068264.893       -1224.981
      -965.262
 88  3 24  8 16  2.0800000  0  3G 3G 9G13
 -94318380.877 9 104350351.489 9  21217871.141    21217876.230        1055.558
       815.795
    991501.155 8  -4880285.148 8  23879420.083    23879425.707       -4108.221
     -3210.954
 -41723103.571 9  27139733.615 8  21075317.493    21075323.114       -1240.403
      -964.448
 88  3 24  8 16 32.0800000  0  3G 3G 9G13
 -94349799.368 9 104325869.566 9  21211893.137    21211897.084        1043.748
       809.165
   1115084.838 9  -4783986.169 8  23902937.744    23902943.846       -4110.039
     -3213.086
 -41685937.666 9  27168694.050 9  21082390.434    21082395.437       -1248.322
      -964.323
 88  3 24  8 17  2.0800000  0  3G 3G 9G13
 -94381083.233 9 104301492.542 9  21205939.345    21205944.815        1033.006
       808.780
   1238678.073 8  -4687679.784 8  23926457.438    23926462.619       -4120.254
     -3207.953
 -41648698.970 9  27197711.225 9  21089477.277    21089482.184       -1266.806
      -955.543
 88  3 24  8 17 32.0800000  0  3G 3G 9G13
 -94412230.890 9 104277221.656 9  21200012.523    21200017.483        1040.087
       821.512
   1362279.877 8  -4591366.726 8  23949976.473    23949982.828       -4125.111
     -3212.340
 -41611386.136 8  27226786.147 8  21096577.662    21096582.048       -1227.269
      -974.210
 88  3 24  8 18  2.0800000  0  3G 3G 9G13
 -94443241.798 9 104253057.324 9  21194110.903    21194116.059        1032.615
       810.072
   1485887.932 9  -4495048.777 8  23973499.003    23973504.956       -4118.843
     -3205.983
 -41573998.390 9  27255919.452 9  21103691.507    21103697.697       -1238.848
      -955.537
 88  3 24  8 18 32.0800000  0  3G 3G 9G13
 -94474118.857 8 104228997.295 8  21188235.672    21188240.065        1028.477
       799.919
   1609497.444 9  -4398729.704 9  23997021.812    23997026.518       -4126.889
     -3208.003
 -41536538.627 9  27285108.868 8  21110821.047    21110825.436       -1245.690
      -968.673
 88  3 24  8 19  2.0800000  0  3G 3G 9G13
 -94504863.015 9 104205040.825 9  21182383.566    21182389.894        1032.057
       788.368
   1733104.336 8  -4302412.673 8  24020542.311    24020548.865       -4110.238
     -3201.087
 -41499008.103 9  27314353.433 8  21117961.942    21117967.343       -1246.169
      -991.639
 88  3 24  8 19 32.0800000  0  3G 3G 9G13
 -94535473.226 9 104181188.729 9  21176559.049    21176564.457        1025.255
       799.590
   1856707.361 9  -4206098.636 9  24044063.620    24044069.032       -4137.112
     -3213.862
 -41461405.936 9  27343653.818 9  21125117.889    21125121.478       -1254.071
      -973.924
 88  3 24  8 20  2.0800000  0  3G 3G 9G13
 -94565951.161 9 104157439.708 8  21170759.888    21170764.868        1029.625
       783.807
   1980302.146 8  -4109791.036 9  24067583.608    24067589.101       -4113.986
     -3211.532
 -41423733.349 9  27373009.070 9  21132286.945    21132291.197       -1253.417
      -984.935
 88  3 24  8 20 32.0800000  0  3G 3G 9G13
 -94596296.555 9 104133793.940 8  21164985.895    21164990.433        1002.488
       784.882
   2103886.491 9  -4013491.557 9  24091100.574    24091105.576       -4123.723
     -3205.294
 -41385990.406 9  27402419.152 9  21139468.307    21139474.274       -1252.413
      -980.703
 88  3 24  8 21  2.0800000  0  3G 3G 9G13
 -94626510.968 9 104110250.248 9  21159235.954    21159240.528        1005.271
       796.315
   2227456.481 9  -3917203.254 8  24114615.042    24114620.588       -4114.776
     -3214.316
 -41348177.946 8  27431883.393 8  21146664.528    21146668.859       -1267.739
      -983.226
 88  3 24  8 21 32.0800000  0  3G 3G 9G13
 -94656595.541 9 104086807.713 8  21153511.024    21153516.117        1005.574
       780.215
   2351008.137 8  -3820929.254 8  24138125.766    24138130.345       -4124.265
     -3204.908
 -41310297.483 9  27461400.622 9  21153872.396    21153876.717       -1256.065
      -981.927
 88  3 24  8 22  2.0800000  0  3G 3G 9G13
 -94686549.750 9 104063466.776 9  21147811.071    21147816.086         984.769
       774.026
   2474539.509 8  -3724671.051 8  24161632.800    24161638.285       -4142.630
     -3201.801
 -41272348.676 8  27490971.121 9  21161093.611    21161098.635       -1253.043
      -984.897
 88  3 24  8 22 32.0800000  0  3G 3G 9G13
 -94716373.720 8 104040227.321 9  21142135.743    21142141.722         989.881
       770.031
   2598047.900 6  -3628430.749 8  24185136.832    24185141.954       -4110.685
     -3216.472
 -41234331.519 9  27520594.880 9  21168328.881    21168332.510       -1273.242
      -986.569
 88  3 24  8 23  2.0800000  0  3G 3G 9G13
 -94746068.012 8 104017088.902 9  21136485.073    21136489.646         984.267
       756.690
   2721529.910 6  -3532211.030 8  24208630.416    24208638.530       -4085.438
     -3209.637
 -41196246.858 9  27550271.222 8  21175576.641    21175581.409       -1267.683
      -996.256
 88  3 24  8 23 32.0800000  0  3G 3G 9G13
 -94775634.288 9 103994050.249 9  21130858.279    21130862.978         981.859
       755.435
   2844981.779 6  -3436014.876 7  24232125.698    24232131.281       -4125.605
     -3197.222
 -41158095.603 9  27579999.465 9  21182835.930    21182840.524       -1261.360
      -989.085
